<?xml version="1.0" encoding="UTF-8" standalone="no" ?>
<gpx xmlns="http://www.topografix.com/GPX/1/1" xmlns:xsi="http://www.w3.org/2001/XMLSchema-instance" xsi:schemaLocation="http://www.topografix.com/GPX/1/1 http://www.topografix.com/GPX/1/1/gpx.xsd" version="1.1" creator="VisuGPX - https://www.visugpx.com">
  <metadata>
    <name>Rando du samedi 13/06 à Lyons complête</name>
    <desc><![CDATA[Le parcours complet de Luc]]></desc>
  </metadata>
  <trk>
    <name><![CDATA[Rando du samedi 13/06 à Lyons complête_1]]></name>
    <trkseg>
      <trkpt lat="49.39932" lon="1.47905">
        <ele>106.2</ele>
        <time>2015-06-13T08:00:38Z</time>
      </trkpt>
      <trkpt lat="49.39934" lon="1.47905">
        <ele>106.8</ele>
        <time>2015-06-13T08:01:03Z</time>
      </trkpt>
      <trkpt lat="49.39934" lon="1.47911">
        <ele>106.8</ele>
        <time>2015-06-13T08:01:07Z</time>
      </trkpt>
      <trkpt lat="49.39922" lon="1.47917">
        <ele>107.2</ele>
        <time>2015-06-13T08:01:15Z</time>
      </trkpt>
      <trkpt lat="49.39912" lon="1.47912">
        <ele>107.2</ele>
        <time>2015-06-13T08:01:20Z</time>
      </trkpt>
      <trkpt lat="49.39903" lon="1.47902">
        <ele>107.6</ele>
        <time>2015-06-13T08:01:26Z</time>
      </trkpt>
      <trkpt lat="49.39895" lon="1.47881">
        <ele>107.8</ele>
        <time>2015-06-13T08:01:32Z</time>
      </trkpt>
      <trkpt lat="49.3989" lon="1.47854">
        <ele>108.4</ele>
        <time>2015-06-13T08:01:38Z</time>
      </trkpt>
      <trkpt lat="49.39871" lon="1.47814">
        <ele>109.4</ele>
        <time>2015-06-13T08:01:49Z</time>
      </trkpt>
      <trkpt lat="49.39861" lon="1.47796">
        <ele>110.4</ele>
        <time>2015-06-13T08:01:57Z</time>
      </trkpt>
      <trkpt lat="49.39844" lon="1.47776">
        <ele>110.8</ele>
        <time>2015-06-13T08:02:04Z</time>
      </trkpt>
      <trkpt lat="49.39828" lon="1.47749">
        <ele>109.8</ele>
        <time>2015-06-13T08:02:10Z</time>
      </trkpt>
      <trkpt lat="49.39817" lon="1.47734">
        <ele>108.2</ele>
        <time>2015-06-13T08:02:15Z</time>
      </trkpt>
      <trkpt lat="49.39798" lon="1.47698">
        <ele>108.4</ele>
        <time>2015-06-13T08:02:25Z</time>
      </trkpt>
      <trkpt lat="49.39791" lon="1.47666">
        <ele>107.8</ele>
        <time>2015-06-13T08:02:31Z</time>
      </trkpt>
      <trkpt lat="49.39791" lon="1.4765">
        <ele>106.8</ele>
        <time>2015-06-13T08:02:34Z</time>
      </trkpt>
      <trkpt lat="49.39797" lon="1.4757">
        <ele>105.2</ele>
        <time>2015-06-13T08:02:46Z</time>
      </trkpt>
      <trkpt lat="49.39782" lon="1.47563">
        <ele>105</ele>
        <time>2015-06-13T08:02:51Z</time>
      </trkpt>
      <trkpt lat="49.39782" lon="1.47552">
        <ele>105</ele>
        <time>2015-06-13T08:02:54Z</time>
      </trkpt>
      <trkpt lat="49.39788" lon="1.47533">
        <ele>104.8</ele>
        <time>2015-06-13T08:02:58Z</time>
      </trkpt>
      <trkpt lat="49.39797" lon="1.47513">
        <ele>103.8</ele>
        <time>2015-06-13T08:03:03Z</time>
      </trkpt>
      <trkpt lat="49.39797" lon="1.47494">
        <ele>103.6</ele>
        <time>2015-06-13T08:03:06Z</time>
      </trkpt>
      <trkpt lat="49.39791" lon="1.47452">
        <ele>103.2</ele>
        <time>2015-06-13T08:03:13Z</time>
      </trkpt>
      <trkpt lat="49.39791" lon="1.4743">
        <ele>102.4</ele>
        <time>2015-06-13T08:03:17Z</time>
      </trkpt>
      <trkpt lat="49.39801" lon="1.474">
        <ele>101.2</ele>
        <time>2015-06-13T08:03:22Z</time>
      </trkpt>
      <trkpt lat="49.39811" lon="1.47396">
        <ele>100.8</ele>
        <time>2015-06-13T08:03:25Z</time>
      </trkpt>
      <trkpt lat="49.39823" lon="1.47381">
        <ele>100</ele>
        <time>2015-06-13T08:03:29Z</time>
      </trkpt>
      <trkpt lat="49.39831" lon="1.47367">
        <ele>98.6</ele>
        <time>2015-06-13T08:03:32Z</time>
      </trkpt>
      <trkpt lat="49.39846" lon="1.47355">
        <ele>96.4</ele>
        <time>2015-06-13T08:03:36Z</time>
      </trkpt>
      <trkpt lat="49.39859" lon="1.47352">
        <ele>94.8</ele>
        <time>2015-06-13T08:03:39Z</time>
      </trkpt>
      <trkpt lat="49.39882" lon="1.47343">
        <ele>93.6</ele>
        <time>2015-06-13T08:03:46Z</time>
      </trkpt>
      <trkpt lat="49.3989" lon="1.47337">
        <ele>93.6</ele>
        <time>2015-06-13T08:03:50Z</time>
      </trkpt>
      <trkpt lat="49.39891" lon="1.47301">
        <ele>93</ele>
        <time>2015-06-13T08:03:57Z</time>
      </trkpt>
      <trkpt lat="49.39896" lon="1.47298">
        <ele>93.2</ele>
        <time>2015-06-13T08:04:00Z</time>
      </trkpt>
      <trkpt lat="49.39911" lon="1.47335">
        <ele>90.6</ele>
        <time>2015-06-13T08:04:06Z</time>
      </trkpt>
      <trkpt lat="49.39924" lon="1.47349">
        <ele>87.8</ele>
        <time>2015-06-13T08:04:09Z</time>
      </trkpt>
      <trkpt lat="49.3995" lon="1.47363">
        <ele>86.8</ele>
        <time>2015-06-13T08:04:21Z</time>
      </trkpt>
      <trkpt lat="49.39959" lon="1.47375">
        <ele>86.8</ele>
        <time>2015-06-13T08:04:25Z</time>
      </trkpt>
      <trkpt lat="49.39965" lon="1.47373">
        <ele>86.6</ele>
        <time>2015-06-13T08:04:28Z</time>
      </trkpt>
      <trkpt lat="49.39975" lon="1.47362">
        <ele>86.2</ele>
        <time>2015-06-13T08:04:32Z</time>
      </trkpt>
      <trkpt lat="49.39989" lon="1.4736">
        <ele>86.4</ele>
        <time>2015-06-13T08:04:36Z</time>
      </trkpt>
      <trkpt lat="49.39996" lon="1.47347">
        <ele>86.2</ele>
        <time>2015-06-13T08:04:39Z</time>
      </trkpt>
      <trkpt lat="49.40006" lon="1.47343">
        <ele>86</ele>
        <time>2015-06-13T08:04:42Z</time>
      </trkpt>
      <trkpt lat="49.40109" lon="1.47338">
        <ele>85</ele>
        <time>2015-06-13T08:05:13Z</time>
      </trkpt>
      <trkpt lat="49.40124" lon="1.47333">
        <ele>85.2</ele>
        <time>2015-06-13T08:05:19Z</time>
      </trkpt>
      <trkpt lat="49.40129" lon="1.47319">
        <ele>85.6</ele>
        <time>2015-06-13T08:05:24Z</time>
      </trkpt>
      <trkpt lat="49.40138" lon="1.47309">
        <ele>87</ele>
        <time>2015-06-13T08:05:30Z</time>
      </trkpt>
      <trkpt lat="49.40148" lon="1.47315">
        <ele>86.8</ele>
        <time>2015-06-13T08:05:34Z</time>
      </trkpt>
      <trkpt lat="49.40272" lon="1.47495">
        <ele>90</ele>
        <time>2015-06-13T08:06:30Z</time>
      </trkpt>
      <trkpt lat="49.40303" lon="1.47556">
        <ele>91.2</ele>
        <time>2015-06-13T08:06:50Z</time>
      </trkpt>
      <trkpt lat="49.40352" lon="1.47718">
        <ele>92.2</ele>
        <time>2015-06-13T08:07:31Z</time>
      </trkpt>
      <trkpt lat="49.40371" lon="1.47762">
        <ele>92</ele>
        <time>2015-06-13T08:07:42Z</time>
      </trkpt>
      <trkpt lat="49.40371" lon="1.47778">
        <ele>92</ele>
        <time>2015-06-13T08:07:47Z</time>
      </trkpt>
      <trkpt lat="49.40357" lon="1.47799">
        <ele>91.4</ele>
        <time>2015-06-13T08:07:55Z</time>
      </trkpt>
      <trkpt lat="49.40352" lon="1.47803">
        <ele>91.2</ele>
        <time>2015-06-13T08:07:58Z</time>
      </trkpt>
      <trkpt lat="49.40354" lon="1.47815">
        <ele>91.2</ele>
        <time>2015-06-13T08:08:01Z</time>
      </trkpt>
      <trkpt lat="49.40361" lon="1.47841">
        <ele>91.4</ele>
        <time>2015-06-13T08:08:07Z</time>
      </trkpt>
      <trkpt lat="49.40423" lon="1.48179">
        <ele>101</ele>
        <time>2015-06-13T08:09:11Z</time>
      </trkpt>
      <trkpt lat="49.40447" lon="1.48253">
        <ele>99.8</ele>
        <time>2015-06-13T08:09:23Z</time>
      </trkpt>
      <trkpt lat="49.40459" lon="1.4828">
        <ele>98.6</ele>
        <time>2015-06-13T08:09:26Z</time>
      </trkpt>
      <trkpt lat="49.40481" lon="1.48313">
        <ele>97.6</ele>
        <time>2015-06-13T08:09:30Z</time>
      </trkpt>
      <trkpt lat="49.40504" lon="1.48324">
        <ele>96.6</ele>
        <time>2015-06-13T08:09:33Z</time>
      </trkpt>
      <trkpt lat="49.40511" lon="1.48324">
        <ele>96.4</ele>
        <time>2015-06-13T08:09:34Z</time>
      </trkpt>
      <trkpt lat="49.40631" lon="1.48295">
        <ele>101.8</ele>
        <time>2015-06-13T08:10:05Z</time>
      </trkpt>
      <trkpt lat="49.4068" lon="1.48277">
        <ele>105.2</ele>
        <time>2015-06-13T08:10:22Z</time>
      </trkpt>
      <trkpt lat="49.4071" lon="1.48252">
        <ele>108</ele>
        <time>2015-06-13T08:10:36Z</time>
      </trkpt>
      <trkpt lat="49.40725" lon="1.48233">
        <ele>109.6</ele>
        <time>2015-06-13T08:10:47Z</time>
      </trkpt>
      <trkpt lat="49.40735" lon="1.48216">
        <ele>110</ele>
        <time>2015-06-13T08:10:56Z</time>
      </trkpt>
      <trkpt lat="49.40742" lon="1.48213">
        <ele>110.8</ele>
        <time>2015-06-13T08:11:06Z</time>
      </trkpt>
      <trkpt lat="49.40743" lon="1.48216">
        <ele>111.8</ele>
        <time>2015-06-13T08:11:10Z</time>
      </trkpt>
      <trkpt lat="49.40747" lon="1.48215">
        <ele>112.6</ele>
        <time>2015-06-13T08:11:22Z</time>
      </trkpt>
      <trkpt lat="49.40774" lon="1.48193">
        <ele>115.8</ele>
        <time>2015-06-13T08:11:37Z</time>
      </trkpt>
      <trkpt lat="49.40843" lon="1.4808">
        <ele>124.6</ele>
        <time>2015-06-13T08:12:21Z</time>
      </trkpt>
      <trkpt lat="49.40883" lon="1.47996">
        <ele>133.4</ele>
        <time>2015-06-13T08:13:00Z</time>
      </trkpt>
      <trkpt lat="49.40897" lon="1.47977">
        <ele>135.4</ele>
        <time>2015-06-13T08:13:12Z</time>
      </trkpt>
      <trkpt lat="49.40913" lon="1.47963">
        <ele>136.8</ele>
        <time>2015-06-13T08:13:21Z</time>
      </trkpt>
      <trkpt lat="49.40941" lon="1.47946">
        <ele>138.4</ele>
        <time>2015-06-13T08:13:34Z</time>
      </trkpt>
      <trkpt lat="49.40963" lon="1.47936">
        <ele>139</ele>
        <time>2015-06-13T08:13:44Z</time>
      </trkpt>
      <trkpt lat="49.40978" lon="1.47938">
        <ele>140.2</ele>
        <time>2015-06-13T08:13:50Z</time>
      </trkpt>
      <trkpt lat="49.40997" lon="1.47935">
        <ele>141</ele>
        <time>2015-06-13T08:13:58Z</time>
      </trkpt>
      <trkpt lat="49.41015" lon="1.47931">
        <ele>142</ele>
        <time>2015-06-13T08:14:05Z</time>
      </trkpt>
      <trkpt lat="49.41092" lon="1.47866">
        <ele>138.6</ele>
        <time>2015-06-13T08:14:28Z</time>
      </trkpt>
      <trkpt lat="49.41118" lon="1.47855">
        <ele>138.2</ele>
        <time>2015-06-13T08:14:32Z</time>
      </trkpt>
      <trkpt lat="49.41147" lon="1.47853">
        <ele>139.8</ele>
        <time>2015-06-13T08:14:38Z</time>
      </trkpt>
      <trkpt lat="49.4118" lon="1.47853">
        <ele>141.8</ele>
        <time>2015-06-13T08:14:46Z</time>
      </trkpt>
      <trkpt lat="49.41211" lon="1.47848">
        <ele>144</ele>
        <time>2015-06-13T08:14:56Z</time>
      </trkpt>
      <trkpt lat="49.41247" lon="1.47828">
        <ele>145.4</ele>
        <time>2015-06-13T08:15:07Z</time>
      </trkpt>
      <trkpt lat="49.41314" lon="1.47759">
        <ele>145</ele>
        <time>2015-06-13T08:15:25Z</time>
      </trkpt>
      <trkpt lat="49.41342" lon="1.47753">
        <ele>146.2</ele>
        <time>2015-06-13T08:15:31Z</time>
      </trkpt>
      <trkpt lat="49.41362" lon="1.47743">
        <ele>147.4</ele>
        <time>2015-06-13T08:15:36Z</time>
      </trkpt>
      <trkpt lat="49.4143" lon="1.47676">
        <ele>148.2</ele>
        <time>2015-06-13T08:15:55Z</time>
      </trkpt>
      <trkpt lat="49.4149" lon="1.47634">
        <ele>147</ele>
        <time>2015-06-13T08:16:09Z</time>
      </trkpt>
      <trkpt lat="49.41544" lon="1.47611">
        <ele>147.2</ele>
        <time>2015-06-13T08:16:21Z</time>
      </trkpt>
      <trkpt lat="49.41605" lon="1.47563">
        <ele>144.8</ele>
        <time>2015-06-13T08:16:33Z</time>
      </trkpt>
      <trkpt lat="49.4166" lon="1.47537">
        <ele>144</ele>
        <time>2015-06-13T08:16:43Z</time>
      </trkpt>
      <trkpt lat="49.41682" lon="1.47515">
        <ele>143</ele>
        <time>2015-06-13T08:16:47Z</time>
      </trkpt>
      <trkpt lat="49.41701" lon="1.47506">
        <ele>142</ele>
        <time>2015-06-13T08:16:50Z</time>
      </trkpt>
      <trkpt lat="49.41714" lon="1.47503">
        <ele>141.2</ele>
        <time>2015-06-13T08:16:52Z</time>
      </trkpt>
      <trkpt lat="49.41745" lon="1.47486">
        <ele>143.2</ele>
        <time>2015-06-13T08:16:59Z</time>
      </trkpt>
      <trkpt lat="49.41768" lon="1.47481">
        <ele>146</ele>
        <time>2015-06-13T08:17:05Z</time>
      </trkpt>
      <trkpt lat="49.41816" lon="1.47481">
        <ele>151.2</ele>
        <time>2015-06-13T08:17:21Z</time>
      </trkpt>
      <trkpt lat="49.41833" lon="1.47476">
        <ele>152.4</ele>
        <time>2015-06-13T08:17:26Z</time>
      </trkpt>
      <trkpt lat="49.4186" lon="1.47474">
        <ele>153.6</ele>
        <time>2015-06-13T08:17:34Z</time>
      </trkpt>
      <trkpt lat="49.41876" lon="1.4747">
        <ele>154</ele>
        <time>2015-06-13T08:17:39Z</time>
      </trkpt>
      <trkpt lat="49.41975" lon="1.47423">
        <ele>152.6</ele>
        <time>2015-06-13T08:18:04Z</time>
      </trkpt>
      <trkpt lat="49.42143" lon="1.47277">
        <ele>156.4</ele>
        <time>2015-06-13T08:18:54Z</time>
      </trkpt>
      <trkpt lat="49.42276" lon="1.47218">
        <ele>154.8</ele>
        <time>2015-06-13T08:19:29Z</time>
      </trkpt>
      <trkpt lat="49.42291" lon="1.4721">
        <ele>153.8</ele>
        <time>2015-06-13T08:19:39Z</time>
      </trkpt>
      <trkpt lat="49.42399" lon="1.47125">
        <ele>152.6</ele>
        <time>2015-06-13T08:20:09Z</time>
      </trkpt>
      <trkpt lat="49.42444" lon="1.471">
        <ele>152.6</ele>
        <time>2015-06-13T08:20:17Z</time>
      </trkpt>
      <trkpt lat="49.42458" lon="1.47094">
        <ele>153.8</ele>
        <time>2015-06-13T08:20:20Z</time>
      </trkpt>
      <trkpt lat="49.42477" lon="1.47081">
        <ele>155</ele>
        <time>2015-06-13T08:20:25Z</time>
      </trkpt>
      <trkpt lat="49.42489" lon="1.47062">
        <ele>155.8</ele>
        <time>2015-06-13T08:20:29Z</time>
      </trkpt>
      <trkpt lat="49.42492" lon="1.47057">
        <ele>156</ele>
        <time>2015-06-13T08:20:30Z</time>
      </trkpt>
      <trkpt lat="49.42605" lon="1.46853">
        <ele>159.6</ele>
        <time>2015-06-13T08:21:14Z</time>
      </trkpt>
      <trkpt lat="49.4264" lon="1.46769">
        <ele>160.2</ele>
        <time>2015-06-13T08:21:34Z</time>
      </trkpt>
      <trkpt lat="49.42643" lon="1.46749">
        <ele>160.2</ele>
        <time>2015-06-13T08:21:38Z</time>
      </trkpt>
      <trkpt lat="49.42641" lon="1.46719">
        <ele>160.2</ele>
        <time>2015-06-13T08:21:43Z</time>
      </trkpt>
      <trkpt lat="49.42627" lon="1.46666">
        <ele>160.4</ele>
        <time>2015-06-13T08:21:51Z</time>
      </trkpt>
      <trkpt lat="49.4261" lon="1.46635">
        <ele>160.4</ele>
        <time>2015-06-13T08:21:57Z</time>
      </trkpt>
      <trkpt lat="49.42578" lon="1.46555">
        <ele>159.6</ele>
        <time>2015-06-13T08:22:11Z</time>
      </trkpt>
      <trkpt lat="49.42568" lon="1.46518">
        <ele>159.4</ele>
        <time>2015-06-13T08:22:17Z</time>
      </trkpt>
      <trkpt lat="49.42566" lon="1.46494">
        <ele>159.2</ele>
        <time>2015-06-13T08:22:20Z</time>
      </trkpt>
      <trkpt lat="49.42535" lon="1.46363">
        <ele>155.8</ele>
        <time>2015-06-13T08:22:37Z</time>
      </trkpt>
      <trkpt lat="49.42532" lon="1.46353">
        <ele>155</ele>
        <time>2015-06-13T08:22:38Z</time>
      </trkpt>
      <trkpt lat="49.42509" lon="1.46303">
        <ele>152.2</ele>
        <time>2015-06-13T08:22:43Z</time>
      </trkpt>
      <trkpt lat="49.42475" lon="1.46255">
        <ele>149.8</ele>
        <time>2015-06-13T08:22:48Z</time>
      </trkpt>
      <trkpt lat="49.42443" lon="1.46221">
        <ele>148.6</ele>
        <time>2015-06-13T08:22:52Z</time>
      </trkpt>
      <trkpt lat="49.42403" lon="1.46188">
        <ele>146.2</ele>
        <time>2015-06-13T08:22:58Z</time>
      </trkpt>
      <trkpt lat="49.42396" lon="1.46171">
        <ele>146.6</ele>
        <time>2015-06-13T08:23:01Z</time>
      </trkpt>
      <trkpt lat="49.42402" lon="1.46137">
        <ele>148.4</ele>
        <time>2015-06-13T08:23:10Z</time>
      </trkpt>
      <trkpt lat="49.42392" lon="1.46122">
        <ele>148.6</ele>
        <time>2015-06-13T08:23:15Z</time>
      </trkpt>
      <trkpt lat="49.42279" lon="1.45985">
        <ele>159.4</ele>
        <time>2015-06-13T08:23:57Z</time>
      </trkpt>
      <trkpt lat="49.42209" lon="1.45926">
        <ele>161.8</ele>
        <time>2015-06-13T08:24:22Z</time>
      </trkpt>
      <trkpt lat="49.42199" lon="1.45913">
        <ele>162</ele>
        <time>2015-06-13T08:24:27Z</time>
      </trkpt>
      <trkpt lat="49.42191" lon="1.459">
        <ele>162.4</ele>
        <time>2015-06-13T08:24:31Z</time>
      </trkpt>
      <trkpt lat="49.42174" lon="1.45875">
        <ele>163</ele>
        <time>2015-06-13T08:24:38Z</time>
      </trkpt>
      <trkpt lat="49.42147" lon="1.4585">
        <ele>163.2</ele>
        <time>2015-06-13T08:24:48Z</time>
      </trkpt>
      <trkpt lat="49.4212" lon="1.45814">
        <ele>163.6</ele>
        <time>2015-06-13T08:25:00Z</time>
      </trkpt>
      <trkpt lat="49.42116" lon="1.45798">
        <ele>164</ele>
        <time>2015-06-13T08:25:05Z</time>
      </trkpt>
      <trkpt lat="49.42113" lon="1.45794">
        <ele>164.2</ele>
        <time>2015-06-13T08:25:10Z</time>
      </trkpt>
      <trkpt lat="49.4211" lon="1.45783">
        <ele>164</ele>
        <time>2015-06-13T08:26:09Z</time>
      </trkpt>
      <trkpt lat="49.42061" lon="1.45673">
        <ele>164.4</ele>
        <time>2015-06-13T08:26:31Z</time>
      </trkpt>
      <trkpt lat="49.42042" lon="1.45584">
        <ele>165</ele>
        <time>2015-06-13T08:26:48Z</time>
      </trkpt>
      <trkpt lat="49.42028" lon="1.45541">
        <ele>165.4</ele>
        <time>2015-06-13T08:26:59Z</time>
      </trkpt>
      <trkpt lat="49.42018" lon="1.45532">
        <ele>165.4</ele>
        <time>2015-06-13T08:27:03Z</time>
      </trkpt>
      <trkpt lat="49.41928" lon="1.4535">
        <ele>167</ele>
        <time>2015-06-13T08:27:43Z</time>
      </trkpt>
      <trkpt lat="49.4192" lon="1.45312">
        <ele>167.6</ele>
        <time>2015-06-13T08:27:55Z</time>
      </trkpt>
      <trkpt lat="49.41909" lon="1.45309">
        <ele>167.8</ele>
        <time>2015-06-13T08:27:59Z</time>
      </trkpt>
      <trkpt lat="49.41817" lon="1.45342">
        <ele>167.4</ele>
        <time>2015-06-13T08:28:21Z</time>
      </trkpt>
      <trkpt lat="49.41668" lon="1.45454">
        <ele>164</ele>
        <time>2015-06-13T08:28:50Z</time>
      </trkpt>
      <trkpt lat="49.41656" lon="1.45452">
        <ele>164</ele>
        <time>2015-06-13T08:28:53Z</time>
      </trkpt>
      <trkpt lat="49.41637" lon="1.45433">
        <ele>164.4</ele>
        <time>2015-06-13T08:28:58Z</time>
      </trkpt>
      <trkpt lat="49.41595" lon="1.45372">
        <ele>166.8</ele>
        <time>2015-06-13T08:29:16Z</time>
      </trkpt>
      <trkpt lat="49.41588" lon="1.45365">
        <ele>167.2</ele>
        <time>2015-06-13T08:29:20Z</time>
      </trkpt>
      <trkpt lat="49.41576" lon="1.45338">
        <ele>167.4</ele>
        <time>2015-06-13T08:29:26Z</time>
      </trkpt>
      <trkpt lat="49.41535" lon="1.45283">
        <ele>169.6</ele>
        <time>2015-06-13T08:29:41Z</time>
      </trkpt>
      <trkpt lat="49.41518" lon="1.45256">
        <ele>170.6</ele>
        <time>2015-06-13T08:29:49Z</time>
      </trkpt>
      <trkpt lat="49.41497" lon="1.45233">
        <ele>171.2</ele>
        <time>2015-06-13T08:29:55Z</time>
      </trkpt>
      <trkpt lat="49.41482" lon="1.4521">
        <ele>172</ele>
        <time>2015-06-13T08:30:07Z</time>
      </trkpt>
      <trkpt lat="49.4108" lon="1.44664">
        <ele>177.2</ele>
        <time>2015-06-13T08:32:17Z</time>
      </trkpt>
      <trkpt lat="49.41064" lon="1.44636">
        <ele>177</ele>
        <time>2015-06-13T08:32:22Z</time>
      </trkpt>
      <trkpt lat="49.40853" lon="1.44355">
        <ele>177.4</ele>
        <time>2015-06-13T08:33:23Z</time>
      </trkpt>
      <trkpt lat="49.40696" lon="1.43986">
        <ele>173.6</ele>
        <time>2015-06-13T08:34:19Z</time>
      </trkpt>
      <trkpt lat="49.4069" lon="1.43966">
        <ele>173.2</ele>
        <time>2015-06-13T08:34:22Z</time>
      </trkpt>
      <trkpt lat="49.40661" lon="1.43905">
        <ele>172.6</ele>
        <time>2015-06-13T08:34:33Z</time>
      </trkpt>
      <trkpt lat="49.4065" lon="1.43889">
        <ele>172.2</ele>
        <time>2015-06-13T08:34:37Z</time>
      </trkpt>
      <trkpt lat="49.40643" lon="1.43865">
        <ele>171.6</ele>
        <time>2015-06-13T08:34:41Z</time>
      </trkpt>
      <trkpt lat="49.40622" lon="1.43824">
        <ele>170.8</ele>
        <time>2015-06-13T08:34:47Z</time>
      </trkpt>
      <trkpt lat="49.40604" lon="1.43802">
        <ele>170.4</ele>
        <time>2015-06-13T08:34:51Z</time>
      </trkpt>
      <trkpt lat="49.40558" lon="1.43757">
        <ele>169.2</ele>
        <time>2015-06-13T08:35:03Z</time>
      </trkpt>
      <trkpt lat="49.40553" lon="1.43739">
        <ele>169</ele>
        <time>2015-06-13T08:35:08Z</time>
      </trkpt>
      <trkpt lat="49.40542" lon="1.43728">
        <ele>168</ele>
        <time>2015-06-13T08:35:12Z</time>
      </trkpt>
      <trkpt lat="49.40486" lon="1.43657">
        <ele>165.8</ele>
        <time>2015-06-13T08:35:29Z</time>
      </trkpt>
      <trkpt lat="49.40438" lon="1.43621">
        <ele>164.2</ele>
        <time>2015-06-13T08:35:38Z</time>
      </trkpt>
      <trkpt lat="49.40415" lon="1.43606">
        <ele>163.6</ele>
        <time>2015-06-13T08:35:42Z</time>
      </trkpt>
      <trkpt lat="49.40357" lon="1.4355">
        <ele>160.8</ele>
        <time>2015-06-13T08:35:52Z</time>
      </trkpt>
      <trkpt lat="49.40342" lon="1.43528">
        <ele>160.6</ele>
        <time>2015-06-13T08:35:55Z</time>
      </trkpt>
      <trkpt lat="49.40319" lon="1.435">
        <ele>159.6</ele>
        <time>2015-06-13T08:35:59Z</time>
      </trkpt>
      <trkpt lat="49.40259" lon="1.43447">
        <ele>156.2</ele>
        <time>2015-06-13T08:36:08Z</time>
      </trkpt>
      <trkpt lat="49.40201" lon="1.43381">
        <ele>154</ele>
        <time>2015-06-13T08:36:26Z</time>
      </trkpt>
      <trkpt lat="49.40204" lon="1.43388">
        <ele>154.6</ele>
        <time>2015-06-13T08:36:38Z</time>
      </trkpt>
      <trkpt lat="49.40217" lon="1.43399">
        <ele>154.6</ele>
        <time>2015-06-13T08:36:43Z</time>
      </trkpt>
      <trkpt lat="49.40218" lon="1.43414">
        <ele>154.8</ele>
        <time>2015-06-13T08:36:47Z</time>
      </trkpt>
      <trkpt lat="49.4021" lon="1.43431">
        <ele>155</ele>
        <time>2015-06-13T08:36:51Z</time>
      </trkpt>
      <trkpt lat="49.40193" lon="1.43451">
        <ele>154.8</ele>
        <time>2015-06-13T08:36:57Z</time>
      </trkpt>
      <trkpt lat="49.40178" lon="1.43474">
        <ele>154.2</ele>
        <time>2015-06-13T08:37:01Z</time>
      </trkpt>
      <trkpt lat="49.40156" lon="1.43497">
        <ele>153.4</ele>
        <time>2015-06-13T08:37:05Z</time>
      </trkpt>
      <trkpt lat="49.40128" lon="1.43542">
        <ele>150.4</ele>
        <time>2015-06-13T08:37:12Z</time>
      </trkpt>
      <trkpt lat="49.40123" lon="1.43555">
        <ele>149.8</ele>
        <time>2015-06-13T08:37:14Z</time>
      </trkpt>
      <trkpt lat="49.40106" lon="1.43587">
        <ele>150.4</ele>
        <time>2015-06-13T08:37:20Z</time>
      </trkpt>
      <trkpt lat="49.40025" lon="1.43635">
        <ele>152.6</ele>
        <time>2015-06-13T08:37:42Z</time>
      </trkpt>
      <trkpt lat="49.39906" lon="1.43691">
        <ele>152.6</ele>
        <time>2015-06-13T08:38:12Z</time>
      </trkpt>
      <trkpt lat="49.39889" lon="1.43704">
        <ele>152.4</ele>
        <time>2015-06-13T08:38:16Z</time>
      </trkpt>
      <trkpt lat="49.39793" lon="1.43763">
        <ele>152.4</ele>
        <time>2015-06-13T08:38:43Z</time>
      </trkpt>
      <trkpt lat="49.39783" lon="1.43765">
        <ele>152.4</ele>
        <time>2015-06-13T08:38:48Z</time>
      </trkpt>
      <trkpt lat="49.3978" lon="1.43769">
        <ele>152.4</ele>
        <time>2015-06-13T08:38:52Z</time>
      </trkpt>
      <trkpt lat="49.39778" lon="1.43769">
        <ele>152.6</ele>
        <time>2015-06-13T08:38:58Z</time>
      </trkpt>
      <trkpt lat="49.39786" lon="1.43764">
        <ele>152.2</ele>
        <time>2015-06-13T08:39:02Z</time>
      </trkpt>
      <trkpt lat="49.398" lon="1.43766">
        <ele>151.8</ele>
        <time>2015-06-13T08:39:07Z</time>
      </trkpt>
      <trkpt lat="49.39805" lon="1.43776">
        <ele>152.2</ele>
        <time>2015-06-13T08:39:10Z</time>
      </trkpt>
      <trkpt lat="49.39822" lon="1.43949">
        <ele>158.6</ele>
        <time>2015-06-13T08:39:45Z</time>
      </trkpt>
      <trkpt lat="49.39822" lon="1.44019">
        <ele>161.6</ele>
        <time>2015-06-13T08:39:58Z</time>
      </trkpt>
      <trkpt lat="49.39824" lon="1.44023">
        <ele>161.8</ele>
        <time>2015-06-13T08:39:59Z</time>
      </trkpt>
      <trkpt lat="49.39834" lon="1.44033">
        <ele>162.4</ele>
        <time>2015-06-13T08:40:03Z</time>
      </trkpt>
      <trkpt lat="49.39849" lon="1.44044">
        <ele>163.2</ele>
        <time>2015-06-13T08:40:08Z</time>
      </trkpt>
      <trkpt lat="49.39861" lon="1.44065">
        <ele>163.8</ele>
        <time>2015-06-13T08:40:13Z</time>
      </trkpt>
      <trkpt lat="49.39863" lon="1.44068">
        <ele>164</ele>
        <time>2015-06-13T08:40:14Z</time>
      </trkpt>
      <trkpt lat="49.3989" lon="1.44097">
        <ele>164.8</ele>
        <time>2015-06-13T08:40:24Z</time>
      </trkpt>
      <trkpt lat="49.39901" lon="1.441">
        <ele>164.8</ele>
        <time>2015-06-13T08:40:28Z</time>
      </trkpt>
      <trkpt lat="49.39914" lon="1.4413">
        <ele>165.4</ele>
        <time>2015-06-13T08:40:35Z</time>
      </trkpt>
      <trkpt lat="49.39925" lon="1.44133">
        <ele>165.4</ele>
        <time>2015-06-13T08:40:40Z</time>
      </trkpt>
      <trkpt lat="49.39942" lon="1.44149">
        <ele>165.8</ele>
        <time>2015-06-13T08:40:50Z</time>
      </trkpt>
      <trkpt lat="49.39925" lon="1.44169">
        <ele>165.8</ele>
        <time>2015-06-13T08:40:56Z</time>
      </trkpt>
      <trkpt lat="49.39894" lon="1.44227">
        <ele>166.2</ele>
        <time>2015-06-13T08:41:07Z</time>
      </trkpt>
      <trkpt lat="49.39874" lon="1.44241">
        <ele>165.8</ele>
        <time>2015-06-13T08:41:12Z</time>
      </trkpt>
      <trkpt lat="49.3985" lon="1.44244">
        <ele>165.8</ele>
        <time>2015-06-13T08:41:17Z</time>
      </trkpt>
      <trkpt lat="49.39806" lon="1.44243">
        <ele>165</ele>
        <time>2015-06-13T08:41:25Z</time>
      </trkpt>
      <trkpt lat="49.39765" lon="1.44249">
        <ele>164.4</ele>
        <time>2015-06-13T08:41:32Z</time>
      </trkpt>
      <trkpt lat="49.39742" lon="1.4427">
        <ele>163.4</ele>
        <time>2015-06-13T08:41:36Z</time>
      </trkpt>
      <trkpt lat="49.39735" lon="1.44284">
        <ele>163</ele>
        <time>2015-06-13T08:41:38Z</time>
      </trkpt>
      <trkpt lat="49.39705" lon="1.44373">
        <ele>162</ele>
        <time>2015-06-13T08:41:49Z</time>
      </trkpt>
      <trkpt lat="49.39655" lon="1.4447">
        <ele>160.6</ele>
        <time>2015-06-13T08:42:02Z</time>
      </trkpt>
      <trkpt lat="49.39644" lon="1.4449">
        <ele>161.8</ele>
        <time>2015-06-13T08:42:11Z</time>
      </trkpt>
      <trkpt lat="49.39641" lon="1.44491">
        <ele>161.8</ele>
        <time>2015-06-13T08:42:22Z</time>
      </trkpt>
      <trkpt lat="49.39632" lon="1.44501">
        <ele>161.8</ele>
        <time>2015-06-13T08:42:26Z</time>
      </trkpt>
      <trkpt lat="49.39559" lon="1.44568">
        <ele>163.4</ele>
        <time>2015-06-13T08:42:52Z</time>
      </trkpt>
      <trkpt lat="49.39532" lon="1.44584">
        <ele>163</ele>
        <time>2015-06-13T08:42:59Z</time>
      </trkpt>
      <trkpt lat="49.39503" lon="1.44606">
        <ele>162</ele>
        <time>2015-06-13T08:43:05Z</time>
      </trkpt>
      <trkpt lat="49.39475" lon="1.4462">
        <ele>161</ele>
        <time>2015-06-13T08:43:10Z</time>
      </trkpt>
      <trkpt lat="49.39421" lon="1.44626">
        <ele>159.6</ele>
        <time>2015-06-13T08:43:17Z</time>
      </trkpt>
      <trkpt lat="49.39392" lon="1.44622">
        <ele>158.6</ele>
        <time>2015-06-13T08:43:21Z</time>
      </trkpt>
      <trkpt lat="49.3937" lon="1.44614">
        <ele>157.4</ele>
        <time>2015-06-13T08:43:24Z</time>
      </trkpt>
      <trkpt lat="49.39331" lon="1.44592">
        <ele>154.4</ele>
        <time>2015-06-13T08:43:29Z</time>
      </trkpt>
      <trkpt lat="49.39266" lon="1.44533">
        <ele>151.6</ele>
        <time>2015-06-13T08:43:38Z</time>
      </trkpt>
      <trkpt lat="49.39228" lon="1.4451">
        <ele>148.6</ele>
        <time>2015-06-13T08:43:47Z</time>
      </trkpt>
      <trkpt lat="49.39226" lon="1.4451">
        <ele>148.6</ele>
        <time>2015-06-13T08:43:52Z</time>
      </trkpt>
      <trkpt lat="49.39225" lon="1.44509">
        <ele>149.2</ele>
        <time>2015-06-13T08:44:13Z</time>
      </trkpt>
      <trkpt lat="49.39226" lon="1.44509">
        <ele>149.2</ele>
        <time>2015-06-13T08:45:13Z</time>
      </trkpt>
      <trkpt lat="49.39217" lon="1.44499">
        <ele>148.4</ele>
        <time>2015-06-13T08:45:19Z</time>
      </trkpt>
      <trkpt lat="49.3919" lon="1.44475">
        <ele>147.4</ele>
        <time>2015-06-13T08:45:26Z</time>
      </trkpt>
      <trkpt lat="49.39163" lon="1.44444">
        <ele>146.4</ele>
        <time>2015-06-13T08:45:34Z</time>
      </trkpt>
      <trkpt lat="49.39152" lon="1.44436">
        <ele>146</ele>
        <time>2015-06-13T08:45:39Z</time>
      </trkpt>
      <trkpt lat="49.39068" lon="1.44343">
        <ele>143.4</ele>
        <time>2015-06-13T08:46:12Z</time>
      </trkpt>
      <trkpt lat="49.39066" lon="1.44342">
        <ele>143.4</ele>
        <time>2015-06-13T08:47:31Z</time>
      </trkpt>
      <trkpt lat="49.39065" lon="1.44344">
        <ele>143.2</ele>
        <time>2015-06-13T08:47:44Z</time>
      </trkpt>
      <trkpt lat="49.39065" lon="1.44344">
        <ele>143</ele>
        <time>2015-06-13T08:52:27Z</time>
      </trkpt>
      <trkpt lat="49.39065" lon="1.44347">
        <ele>142.8</ele>
        <time>2015-06-13T08:53:11Z</time>
      </trkpt>
      <trkpt lat="49.39092" lon="1.44484">
        <ele>130.4</ele>
        <time>2015-06-13T08:53:30Z</time>
      </trkpt>
      <trkpt lat="49.39161" lon="1.44627">
        <ele>114.2</ele>
        <time>2015-06-13T08:53:46Z</time>
      </trkpt>
      <trkpt lat="49.39165" lon="1.44637">
        <ele>113.2</ele>
        <time>2015-06-13T08:53:47Z</time>
      </trkpt>
      <trkpt lat="49.39213" lon="1.44845">
        <ele>93.2</ele>
        <time>2015-06-13T08:54:05Z</time>
      </trkpt>
      <trkpt lat="49.3922" lon="1.44912">
        <ele>88.6</ele>
        <time>2015-06-13T08:54:11Z</time>
      </trkpt>
      <trkpt lat="49.39219" lon="1.44922">
        <ele>87.4</ele>
        <time>2015-06-13T08:54:13Z</time>
      </trkpt>
      <trkpt lat="49.39219" lon="1.44922">
        <ele>86.2</ele>
        <time>2015-06-13T08:54:17Z</time>
      </trkpt>
      <trkpt lat="49.39218" lon="1.44918">
        <ele>84.8</ele>
        <time>2015-06-13T08:54:26Z</time>
      </trkpt>
      <trkpt lat="49.39219" lon="1.44915">
        <ele>84.8</ele>
        <time>2015-06-13T08:55:40Z</time>
      </trkpt>
      <trkpt lat="49.39181" lon="1.44877">
        <ele>81.2</ele>
        <time>2015-06-13T08:55:57Z</time>
      </trkpt>
      <trkpt lat="49.39169" lon="1.44872">
        <ele>79.4</ele>
        <time>2015-06-13T08:55:59Z</time>
      </trkpt>
      <trkpt lat="49.39155" lon="1.44871">
        <ele>77</ele>
        <time>2015-06-13T08:56:03Z</time>
      </trkpt>
      <trkpt lat="49.39153" lon="1.44873">
        <ele>76.6</ele>
        <time>2015-06-13T08:56:04Z</time>
      </trkpt>
      <trkpt lat="49.39148" lon="1.44871">
        <ele>76</ele>
        <time>2015-06-13T08:56:07Z</time>
      </trkpt>
      <trkpt lat="49.39149" lon="1.44872">
        <ele>75.8</ele>
        <time>2015-06-13T08:56:14Z</time>
      </trkpt>
      <trkpt lat="49.39149" lon="1.44872">
        <ele>75</ele>
        <time>2015-06-13T08:56:38Z</time>
      </trkpt>
      <trkpt lat="49.39022" lon="1.45068">
        <ele>73</ele>
        <time>2015-06-13T08:57:34Z</time>
      </trkpt>
      <trkpt lat="49.39018" lon="1.45074">
        <ele>73.4</ele>
        <time>2015-06-13T08:57:36Z</time>
      </trkpt>
      <trkpt lat="49.39013" lon="1.45073">
        <ele>73.6</ele>
        <time>2015-06-13T08:57:38Z</time>
      </trkpt>
      <trkpt lat="49.39002" lon="1.4506">
        <ele>74.8</ele>
        <time>2015-06-13T08:57:43Z</time>
      </trkpt>
      <trkpt lat="49.38991" lon="1.4505">
        <ele>76.8</ele>
        <time>2015-06-13T08:57:50Z</time>
      </trkpt>
      <trkpt lat="49.38994" lon="1.45074">
        <ele>76.6</ele>
        <time>2015-06-13T08:57:59Z</time>
      </trkpt>
      <trkpt lat="49.38992" lon="1.45104">
        <ele>76.4</ele>
        <time>2015-06-13T08:58:05Z</time>
      </trkpt>
      <trkpt lat="49.38988" lon="1.45124">
        <ele>75.8</ele>
        <time>2015-06-13T08:58:09Z</time>
      </trkpt>
      <trkpt lat="49.38982" lon="1.4513">
        <ele>76.8</ele>
        <time>2015-06-13T08:58:12Z</time>
      </trkpt>
      <trkpt lat="49.38966" lon="1.45148">
        <ele>80.4</ele>
        <time>2015-06-13T08:58:21Z</time>
      </trkpt>
      <trkpt lat="49.38932" lon="1.45208">
        <ele>87</ele>
        <time>2015-06-13T08:58:47Z</time>
      </trkpt>
      <trkpt lat="49.38922" lon="1.45231">
        <ele>89.4</ele>
        <time>2015-06-13T08:58:56Z</time>
      </trkpt>
      <trkpt lat="49.389" lon="1.45304">
        <ele>93.8</ele>
        <time>2015-06-13T08:59:19Z</time>
      </trkpt>
      <trkpt lat="49.38875" lon="1.45348">
        <ele>96.8</ele>
        <time>2015-06-13T08:59:38Z</time>
      </trkpt>
      <trkpt lat="49.38862" lon="1.45384">
        <ele>99</ele>
        <time>2015-06-13T08:59:50Z</time>
      </trkpt>
      <trkpt lat="49.3885" lon="1.45448">
        <ele>102.8</ele>
        <time>2015-06-13T09:00:10Z</time>
      </trkpt>
      <trkpt lat="49.38843" lon="1.45469">
        <ele>104.6</ele>
        <time>2015-06-13T09:00:18Z</time>
      </trkpt>
      <trkpt lat="49.38836" lon="1.4548">
        <ele>105.6</ele>
        <time>2015-06-13T09:00:23Z</time>
      </trkpt>
      <trkpt lat="49.38824" lon="1.45482">
        <ele>106.8</ele>
        <time>2015-06-13T09:00:29Z</time>
      </trkpt>
      <trkpt lat="49.38823" lon="1.45481">
        <ele>107</ele>
        <time>2015-06-13T09:00:30Z</time>
      </trkpt>
      <trkpt lat="49.38813" lon="1.45466">
        <ele>108.4</ele>
        <time>2015-06-13T09:00:37Z</time>
      </trkpt>
      <trkpt lat="49.38825" lon="1.45405">
        <ele>111</ele>
        <time>2015-06-13T09:00:52Z</time>
      </trkpt>
      <trkpt lat="49.38823" lon="1.45385">
        <ele>111.2</ele>
        <time>2015-06-13T09:00:55Z</time>
      </trkpt>
      <trkpt lat="49.38783" lon="1.45266">
        <ele>113</ele>
        <time>2015-06-13T09:01:16Z</time>
      </trkpt>
      <trkpt lat="49.38776" lon="1.45252">
        <ele>114.2</ele>
        <time>2015-06-13T09:01:21Z</time>
      </trkpt>
      <trkpt lat="49.38774" lon="1.45251">
        <ele>114.4</ele>
        <time>2015-06-13T09:01:22Z</time>
      </trkpt>
      <trkpt lat="49.38762" lon="1.45249">
        <ele>115</ele>
        <time>2015-06-13T09:01:27Z</time>
      </trkpt>
      <trkpt lat="49.38751" lon="1.45255">
        <ele>116.8</ele>
        <time>2015-06-13T09:01:31Z</time>
      </trkpt>
      <trkpt lat="49.38749" lon="1.45257">
        <ele>117</ele>
        <time>2015-06-13T09:01:32Z</time>
      </trkpt>
      <trkpt lat="49.38743" lon="1.45278">
        <ele>118.6</ele>
        <time>2015-06-13T09:01:38Z</time>
      </trkpt>
      <trkpt lat="49.38751" lon="1.4537">
        <ele>123.2</ele>
        <time>2015-06-13T09:01:59Z</time>
      </trkpt>
      <trkpt lat="49.38751" lon="1.45372">
        <ele>123.4</ele>
        <time>2015-06-13T09:02:00Z</time>
      </trkpt>
      <trkpt lat="49.38752" lon="1.4539">
        <ele>124.6</ele>
        <time>2015-06-13T09:02:09Z</time>
      </trkpt>
      <trkpt lat="49.38747" lon="1.4541">
        <ele>125.6</ele>
        <time>2015-06-13T09:02:23Z</time>
      </trkpt>
      <trkpt lat="49.38747" lon="1.45406">
        <ele>125.6</ele>
        <time>2015-06-13T09:02:27Z</time>
      </trkpt>
      <trkpt lat="49.38753" lon="1.45394">
        <ele>124.6</ele>
        <time>2015-06-13T09:02:35Z</time>
      </trkpt>
      <trkpt lat="49.3875" lon="1.45392">
        <ele>123.8</ele>
        <time>2015-06-13T09:02:40Z</time>
      </trkpt>
      <trkpt lat="49.3875" lon="1.45402">
        <ele>124.2</ele>
        <time>2015-06-13T09:02:46Z</time>
      </trkpt>
      <trkpt lat="49.38745" lon="1.45425">
        <ele>125.4</ele>
        <time>2015-06-13T09:02:58Z</time>
      </trkpt>
      <trkpt lat="49.38728" lon="1.45498">
        <ele>130.6</ele>
        <time>2015-06-13T09:03:21Z</time>
      </trkpt>
      <trkpt lat="49.38717" lon="1.45525">
        <ele>132.6</ele>
        <time>2015-06-13T09:03:28Z</time>
      </trkpt>
      <trkpt lat="49.38715" lon="1.45528">
        <ele>132.6</ele>
        <time>2015-06-13T09:03:29Z</time>
      </trkpt>
      <trkpt lat="49.38702" lon="1.45556">
        <ele>134.8</ele>
        <time>2015-06-13T09:03:39Z</time>
      </trkpt>
      <trkpt lat="49.38695" lon="1.45579">
        <ele>135.8</ele>
        <time>2015-06-13T09:03:44Z</time>
      </trkpt>
      <trkpt lat="49.38683" lon="1.45606">
        <ele>138.2</ele>
        <time>2015-06-13T09:03:52Z</time>
      </trkpt>
      <trkpt lat="49.38616" lon="1.45728">
        <ele>147.6</ele>
        <time>2015-06-13T09:04:28Z</time>
      </trkpt>
      <trkpt lat="49.38605" lon="1.45798">
        <ele>150.4</ele>
        <time>2015-06-13T09:04:44Z</time>
      </trkpt>
      <trkpt lat="49.38611" lon="1.45861">
        <ele>153.2</ele>
        <time>2015-06-13T09:04:57Z</time>
      </trkpt>
      <trkpt lat="49.38621" lon="1.45899">
        <ele>155.2</ele>
        <time>2015-06-13T09:05:06Z</time>
      </trkpt>
      <trkpt lat="49.38674" lon="1.46084">
        <ele>164.2</ele>
        <time>2015-06-13T09:05:54Z</time>
      </trkpt>
      <trkpt lat="49.38677" lon="1.46097">
        <ele>164.4</ele>
        <time>2015-06-13T09:05:59Z</time>
      </trkpt>
      <trkpt lat="49.38679" lon="1.46101">
        <ele>164.8</ele>
        <time>2015-06-13T09:06:05Z</time>
      </trkpt>
      <trkpt lat="49.38676" lon="1.461">
        <ele>164.8</ele>
        <time>2015-06-13T09:06:10Z</time>
      </trkpt>
      <trkpt lat="49.38675" lon="1.46091">
        <ele>164.4</ele>
        <time>2015-06-13T09:06:16Z</time>
      </trkpt>
      <trkpt lat="49.38679" lon="1.46096">
        <ele>164.2</ele>
        <time>2015-06-13T09:06:20Z</time>
      </trkpt>
      <trkpt lat="49.38678" lon="1.46106">
        <ele>164.6</ele>
        <time>2015-06-13T09:06:26Z</time>
      </trkpt>
      <trkpt lat="49.38684" lon="1.46158">
        <ele>165.6</ele>
        <time>2015-06-13T09:06:54Z</time>
      </trkpt>
      <trkpt lat="49.38684" lon="1.4617">
        <ele>166</ele>
        <time>2015-06-13T09:07:00Z</time>
      </trkpt>
      <trkpt lat="49.38684" lon="1.46172">
        <ele>166.2</ele>
        <time>2015-06-13T09:07:05Z</time>
      </trkpt>
      <trkpt lat="49.38685" lon="1.46169">
        <ele>166.4</ele>
        <time>2015-06-13T09:07:09Z</time>
      </trkpt>
      <trkpt lat="49.38684" lon="1.4614">
        <ele>165.4</ele>
        <time>2015-06-13T09:07:17Z</time>
      </trkpt>
      <trkpt lat="49.38681" lon="1.46111">
        <ele>164.4</ele>
        <time>2015-06-13T09:07:23Z</time>
      </trkpt>
      <trkpt lat="49.38675" lon="1.46103">
        <ele>164</ele>
        <time>2015-06-13T09:07:27Z</time>
      </trkpt>
      <trkpt lat="49.38676" lon="1.46093">
        <ele>164.2</ele>
        <time>2015-06-13T09:07:32Z</time>
      </trkpt>
      <trkpt lat="49.38679" lon="1.46097">
        <ele>164</ele>
        <time>2015-06-13T09:07:36Z</time>
      </trkpt>
      <trkpt lat="49.38677" lon="1.46106">
        <ele>164.4</ele>
        <time>2015-06-13T09:07:41Z</time>
      </trkpt>
      <trkpt lat="49.38682" lon="1.46105">
        <ele>164.6</ele>
        <time>2015-06-13T09:07:45Z</time>
      </trkpt>
      <trkpt lat="49.38684" lon="1.46107">
        <ele>164.6</ele>
        <time>2015-06-13T09:07:50Z</time>
      </trkpt>
      <trkpt lat="49.38682" lon="1.46121">
        <ele>164.8</ele>
        <time>2015-06-13T09:07:56Z</time>
      </trkpt>
      <trkpt lat="49.38683" lon="1.46127">
        <ele>165</ele>
        <time>2015-06-13T09:07:58Z</time>
      </trkpt>
      <trkpt lat="49.38688" lon="1.46187">
        <ele>166.2</ele>
        <time>2015-06-13T09:08:16Z</time>
      </trkpt>
      <trkpt lat="49.38682" lon="1.46215">
        <ele>166.8</ele>
        <time>2015-06-13T09:08:23Z</time>
      </trkpt>
      <trkpt lat="49.38531" lon="1.46641">
        <ele>174.6</ele>
        <time>2015-06-13T09:10:02Z</time>
      </trkpt>
      <trkpt lat="49.38502" lon="1.46875">
        <ele>173.4</ele>
        <time>2015-06-13T09:10:43Z</time>
      </trkpt>
      <trkpt lat="49.38502" lon="1.46876">
        <ele>173.6</ele>
        <time>2015-06-13T09:10:49Z</time>
      </trkpt>
      <trkpt lat="49.38501" lon="1.46876">
        <ele>173.8</ele>
        <time>2015-06-13T09:10:55Z</time>
      </trkpt>
      <trkpt lat="49.38497" lon="1.46881">
        <ele>173.6</ele>
        <time>2015-06-13T09:10:59Z</time>
      </trkpt>
      <trkpt lat="49.38501" lon="1.46887">
        <ele>173.6</ele>
        <time>2015-06-13T09:11:04Z</time>
      </trkpt>
      <trkpt lat="49.38502" lon="1.46893">
        <ele>173.8</ele>
        <time>2015-06-13T09:11:09Z</time>
      </trkpt>
      <trkpt lat="49.38501" lon="1.46897">
        <ele>174</ele>
        <time>2015-06-13T09:11:18Z</time>
      </trkpt>
      <trkpt lat="49.38496" lon="1.46947">
        <ele>173.4</ele>
        <time>2015-06-13T09:11:29Z</time>
      </trkpt>
      <trkpt lat="49.38496" lon="1.46959">
        <ele>173.2</ele>
        <time>2015-06-13T09:11:35Z</time>
      </trkpt>
      <trkpt lat="49.38492" lon="1.46973">
        <ele>173.2</ele>
        <time>2015-06-13T09:11:41Z</time>
      </trkpt>
      <trkpt lat="49.38468" lon="1.47009">
        <ele>172.8</ele>
        <time>2015-06-13T09:11:50Z</time>
      </trkpt>
      <trkpt lat="49.38387" lon="1.47104">
        <ele>168.2</ele>
        <time>2015-06-13T09:12:09Z</time>
      </trkpt>
      <trkpt lat="49.38384" lon="1.47112">
        <ele>168</ele>
        <time>2015-06-13T09:12:14Z</time>
      </trkpt>
      <trkpt lat="49.38388" lon="1.47127">
        <ele>168.2</ele>
        <time>2015-06-13T09:12:20Z</time>
      </trkpt>
      <trkpt lat="49.38389" lon="1.47146">
        <ele>168</ele>
        <time>2015-06-13T09:12:25Z</time>
      </trkpt>
      <trkpt lat="49.3838" lon="1.47249">
        <ele>167.4</ele>
        <time>2015-06-13T09:12:43Z</time>
      </trkpt>
      <trkpt lat="49.38386" lon="1.47282">
        <ele>167.6</ele>
        <time>2015-06-13T09:12:49Z</time>
      </trkpt>
      <trkpt lat="49.38384" lon="1.47309">
        <ele>167.6</ele>
        <time>2015-06-13T09:12:54Z</time>
      </trkpt>
      <trkpt lat="49.38401" lon="1.47524">
        <ele>166.8</ele>
        <time>2015-06-13T09:13:23Z</time>
      </trkpt>
      <trkpt lat="49.38397" lon="1.47557">
        <ele>166.2</ele>
        <time>2015-06-13T09:13:27Z</time>
      </trkpt>
      <trkpt lat="49.38397" lon="1.47579">
        <ele>165.4</ele>
        <time>2015-06-13T09:13:31Z</time>
      </trkpt>
      <trkpt lat="49.38406" lon="1.47595">
        <ele>165.8</ele>
        <time>2015-06-13T09:13:37Z</time>
      </trkpt>
      <trkpt lat="49.38406" lon="1.47596">
        <ele>166</ele>
        <time>2015-06-13T09:13:42Z</time>
      </trkpt>
      <trkpt lat="49.38411" lon="1.47604">
        <ele>166</ele>
        <time>2015-06-13T09:14:18Z</time>
      </trkpt>
      <trkpt lat="49.38415" lon="1.47622">
        <ele>166</ele>
        <time>2015-06-13T09:14:22Z</time>
      </trkpt>
      <trkpt lat="49.38426" lon="1.47766">
        <ele>168.2</ele>
        <time>2015-06-13T09:14:46Z</time>
      </trkpt>
      <trkpt lat="49.38422" lon="1.478">
        <ele>168.2</ele>
        <time>2015-06-13T09:14:52Z</time>
      </trkpt>
      <trkpt lat="49.38408" lon="1.4781">
        <ele>168.2</ele>
        <time>2015-06-13T09:14:56Z</time>
      </trkpt>
      <trkpt lat="49.38387" lon="1.47813">
        <ele>168.6</ele>
        <time>2015-06-13T09:15:02Z</time>
      </trkpt>
      <trkpt lat="49.38345" lon="1.47807">
        <ele>169.4</ele>
        <time>2015-06-13T09:15:12Z</time>
      </trkpt>
      <trkpt lat="49.38158" lon="1.47802">
        <ele>174.8</ele>
        <time>2015-06-13T09:15:58Z</time>
      </trkpt>
      <trkpt lat="49.38134" lon="1.47793">
        <ele>175.4</ele>
        <time>2015-06-13T09:16:04Z</time>
      </trkpt>
      <trkpt lat="49.38117" lon="1.47792">
        <ele>176</ele>
        <time>2015-06-13T09:16:09Z</time>
      </trkpt>
      <trkpt lat="49.38057" lon="1.47795">
        <ele>177.6</ele>
        <time>2015-06-13T09:16:25Z</time>
      </trkpt>
      <trkpt lat="49.38033" lon="1.47793">
        <ele>177.8</ele>
        <time>2015-06-13T09:16:31Z</time>
      </trkpt>
      <trkpt lat="49.37974" lon="1.47798">
        <ele>177</ele>
        <time>2015-06-13T09:16:45Z</time>
      </trkpt>
      <trkpt lat="49.37971" lon="1.47803">
        <ele>176.8</ele>
        <time>2015-06-13T09:16:47Z</time>
      </trkpt>
      <trkpt lat="49.37963" lon="1.47825">
        <ele>177</ele>
        <time>2015-06-13T09:16:54Z</time>
      </trkpt>
      <trkpt lat="49.37961" lon="1.4785">
        <ele>176.8</ele>
        <time>2015-06-13T09:16:59Z</time>
      </trkpt>
      <trkpt lat="49.37979" lon="1.48044">
        <ele>176.6</ele>
        <time>2015-06-13T09:17:38Z</time>
      </trkpt>
      <trkpt lat="49.37986" lon="1.48063">
        <ele>176.8</ele>
        <time>2015-06-13T09:17:41Z</time>
      </trkpt>
      <trkpt lat="49.37994" lon="1.4808">
        <ele>176.8</ele>
        <time>2015-06-13T09:17:46Z</time>
      </trkpt>
      <trkpt lat="49.38006" lon="1.48099">
        <ele>176.8</ele>
        <time>2015-06-13T09:17:51Z</time>
      </trkpt>
      <trkpt lat="49.38015" lon="1.48131">
        <ele>176.4</ele>
        <time>2015-06-13T09:17:56Z</time>
      </trkpt>
      <trkpt lat="49.38105" lon="1.48678">
        <ele>173.6</ele>
        <time>2015-06-13T09:19:13Z</time>
      </trkpt>
      <trkpt lat="49.38117" lon="1.48708">
        <ele>173.4</ele>
        <time>2015-06-13T09:19:20Z</time>
      </trkpt>
      <trkpt lat="49.38117" lon="1.4874">
        <ele>173.6</ele>
        <time>2015-06-13T09:19:29Z</time>
      </trkpt>
      <trkpt lat="49.38125" lon="1.48769">
        <ele>173.8</ele>
        <time>2015-06-13T09:19:34Z</time>
      </trkpt>
      <trkpt lat="49.38126" lon="1.48793">
        <ele>173.8</ele>
        <time>2015-06-13T09:19:38Z</time>
      </trkpt>
      <trkpt lat="49.3813" lon="1.48831">
        <ele>173.2</ele>
        <time>2015-06-13T09:19:44Z</time>
      </trkpt>
      <trkpt lat="49.38137" lon="1.4885">
        <ele>173</ele>
        <time>2015-06-13T09:19:47Z</time>
      </trkpt>
      <trkpt lat="49.3814" lon="1.48868">
        <ele>172.8</ele>
        <time>2015-06-13T09:19:50Z</time>
      </trkpt>
      <trkpt lat="49.3813" lon="1.48891">
        <ele>173</ele>
        <time>2015-06-13T09:19:57Z</time>
      </trkpt>
      <trkpt lat="49.38114" lon="1.48909">
        <ele>173.2</ele>
        <time>2015-06-13T09:20:03Z</time>
      </trkpt>
      <trkpt lat="49.38109" lon="1.48921">
        <ele>173.2</ele>
        <time>2015-06-13T09:20:08Z</time>
      </trkpt>
      <trkpt lat="49.38057" lon="1.49021">
        <ele>173.8</ele>
        <time>2015-06-13T09:20:34Z</time>
      </trkpt>
      <trkpt lat="49.38041" lon="1.49063">
        <ele>173</ele>
        <time>2015-06-13T09:20:41Z</time>
      </trkpt>
      <trkpt lat="49.37942" lon="1.49462">
        <ele>163.6</ele>
        <time>2015-06-13T09:21:24Z</time>
      </trkpt>
      <trkpt lat="49.37932" lon="1.49484">
        <ele>163</ele>
        <time>2015-06-13T09:21:27Z</time>
      </trkpt>
      <trkpt lat="49.37917" lon="1.49489">
        <ele>162.4</ele>
        <time>2015-06-13T09:21:31Z</time>
      </trkpt>
      <trkpt lat="49.37861" lon="1.49468">
        <ele>160.8</ele>
        <time>2015-06-13T09:21:38Z</time>
      </trkpt>
      <trkpt lat="49.37831" lon="1.49467">
        <ele>160</ele>
        <time>2015-06-13T09:21:42Z</time>
      </trkpt>
      <trkpt lat="49.37776" lon="1.49482">
        <ele>155.8</ele>
        <time>2015-06-13T09:21:49Z</time>
      </trkpt>
      <trkpt lat="49.37692" lon="1.49513">
        <ele>149.2</ele>
        <time>2015-06-13T09:21:58Z</time>
      </trkpt>
      <trkpt lat="49.37672" lon="1.49518">
        <ele>147</ele>
        <time>2015-06-13T09:22:00Z</time>
      </trkpt>
      <trkpt lat="49.37633" lon="1.4951">
        <ele>142.4</ele>
        <time>2015-06-13T09:22:04Z</time>
      </trkpt>
      <trkpt lat="49.37615" lon="1.49513">
        <ele>140</ele>
        <time>2015-06-13T09:22:06Z</time>
      </trkpt>
      <trkpt lat="49.37567" lon="1.4953">
        <ele>134</ele>
        <time>2015-06-13T09:22:12Z</time>
      </trkpt>
      <trkpt lat="49.37528" lon="1.49553">
        <ele>128.8</ele>
        <time>2015-06-13T09:22:18Z</time>
      </trkpt>
      <trkpt lat="49.37467" lon="1.49603">
        <ele>122</ele>
        <time>2015-06-13T09:22:28Z</time>
      </trkpt>
      <trkpt lat="49.37413" lon="1.49662">
        <ele>114.6</ele>
        <time>2015-06-13T09:22:38Z</time>
      </trkpt>
      <trkpt lat="49.37369" lon="1.49736">
        <ele>106.6</ele>
        <time>2015-06-13T09:22:47Z</time>
      </trkpt>
      <trkpt lat="49.37351" lon="1.49757">
        <ele>103.8</ele>
        <time>2015-06-13T09:22:50Z</time>
      </trkpt>
      <trkpt lat="49.37323" lon="1.4977">
        <ele>100</ele>
        <time>2015-06-13T09:22:54Z</time>
      </trkpt>
      <trkpt lat="49.37308" lon="1.49774">
        <ele>98.2</ele>
        <time>2015-06-13T09:22:56Z</time>
      </trkpt>
      <trkpt lat="49.3728" lon="1.49796">
        <ele>95</ele>
        <time>2015-06-13T09:23:00Z</time>
      </trkpt>
      <trkpt lat="49.3726" lon="1.49823">
        <ele>93.2</ele>
        <time>2015-06-13T09:23:04Z</time>
      </trkpt>
      <trkpt lat="49.37243" lon="1.49827">
        <ele>92.2</ele>
        <time>2015-06-13T09:23:08Z</time>
      </trkpt>
      <trkpt lat="49.37243" lon="1.49824">
        <ele>92.8</ele>
        <time>2015-06-13T09:23:11Z</time>
      </trkpt>
      <trkpt lat="49.37251" lon="1.49785">
        <ele>92.8</ele>
        <time>2015-06-13T09:23:28Z</time>
      </trkpt>
      <trkpt lat="49.37251" lon="1.49782">
        <ele>92.4</ele>
        <time>2015-06-13T09:23:34Z</time>
      </trkpt>
      <trkpt lat="49.37258" lon="1.49757">
        <ele>92.4</ele>
        <time>2015-06-13T09:23:39Z</time>
      </trkpt>
      <trkpt lat="49.37273" lon="1.49716">
        <ele>92.6</ele>
        <time>2015-06-13T09:23:49Z</time>
      </trkpt>
      <trkpt lat="49.3727" lon="1.49719">
        <ele>93</ele>
        <time>2015-06-13T09:23:53Z</time>
      </trkpt>
      <trkpt lat="49.3726" lon="1.49727">
        <ele>92.6</ele>
        <time>2015-06-13T09:23:58Z</time>
      </trkpt>
      <trkpt lat="49.37247" lon="1.49759">
        <ele>92.6</ele>
        <time>2015-06-13T09:24:14Z</time>
      </trkpt>
      <trkpt lat="49.37248" lon="1.49758">
        <ele>92.8</ele>
        <time>2015-06-13T09:24:18Z</time>
      </trkpt>
      <trkpt lat="49.37248" lon="1.49744">
        <ele>92.8</ele>
        <time>2015-06-13T09:24:24Z</time>
      </trkpt>
      <trkpt lat="49.37247" lon="1.49739">
        <ele>93</ele>
        <time>2015-06-13T09:24:29Z</time>
      </trkpt>
      <trkpt lat="49.37247" lon="1.49737">
        <ele>92.6</ele>
        <time>2015-06-13T09:24:48Z</time>
      </trkpt>
      <trkpt lat="49.37247" lon="1.49736">
        <ele>91.8</ele>
        <time>2015-06-13T09:26:22Z</time>
      </trkpt>
      <trkpt lat="49.37246" lon="1.49736">
        <ele>93.4</ele>
        <time>2015-06-13T09:26:45Z</time>
      </trkpt>
      <trkpt lat="49.37246" lon="1.49736">
        <ele>92.4</ele>
        <time>2015-06-13T09:27:22Z</time>
      </trkpt>
      <trkpt lat="49.37246" lon="1.49737">
        <ele>93.4</ele>
        <time>2015-06-13T09:28:43Z</time>
      </trkpt>
      <trkpt lat="49.37247" lon="1.49737">
        <ele>92.8</ele>
        <time>2015-06-13T09:29:52Z</time>
      </trkpt>
      <trkpt lat="49.37247" lon="1.49739">
        <ele>93.2</ele>
        <time>2015-06-13T09:32:06Z</time>
      </trkpt>
      <trkpt lat="49.37248" lon="1.4974">
        <ele>93.2</ele>
        <time>2015-06-13T09:33:28Z</time>
      </trkpt>
      <trkpt lat="49.37249" lon="1.49737">
        <ele>93</ele>
        <time>2015-06-13T09:34:42Z</time>
      </trkpt>
      <trkpt lat="49.37252" lon="1.49735">
        <ele>92.6</ele>
        <time>2015-06-13T09:34:52Z</time>
      </trkpt>
      <trkpt lat="49.37252" lon="1.49734">
        <ele>92.2</ele>
        <time>2015-06-13T09:35:05Z</time>
      </trkpt>
      <trkpt lat="49.37267" lon="1.49699">
        <ele>92.8</ele>
        <time>2015-06-13T09:35:19Z</time>
      </trkpt>
      <trkpt lat="49.37283" lon="1.49673">
        <ele>91.8</ele>
        <time>2015-06-13T09:35:29Z</time>
      </trkpt>
      <trkpt lat="49.37293" lon="1.49673">
        <ele>90.6</ele>
        <time>2015-06-13T09:35:33Z</time>
      </trkpt>
      <trkpt lat="49.37302" lon="1.49681">
        <ele>91.6</ele>
        <time>2015-06-13T09:35:39Z</time>
      </trkpt>
      <trkpt lat="49.37305" lon="1.49688">
        <ele>93.4</ele>
        <time>2015-06-13T09:35:43Z</time>
      </trkpt>
      <trkpt lat="49.37304" lon="1.49691">
        <ele>93.6</ele>
        <time>2015-06-13T09:35:44Z</time>
      </trkpt>
      <trkpt lat="49.37304" lon="1.49693">
        <ele>94</ele>
        <time>2015-06-13T09:35:45Z</time>
      </trkpt>
      <trkpt lat="49.37298" lon="1.4974">
        <ele>94.8</ele>
        <time>2015-06-13T09:35:58Z</time>
      </trkpt>
      <trkpt lat="49.37288" lon="1.49754">
        <ele>94.4</ele>
        <time>2015-06-13T09:36:02Z</time>
      </trkpt>
      <trkpt lat="49.37275" lon="1.49785">
        <ele>93.6</ele>
        <time>2015-06-13T09:36:07Z</time>
      </trkpt>
      <trkpt lat="49.37268" lon="1.49812">
        <ele>93.4</ele>
        <time>2015-06-13T09:36:11Z</time>
      </trkpt>
      <trkpt lat="49.37249" lon="1.49826">
        <ele>92.4</ele>
        <time>2015-06-13T09:36:16Z</time>
      </trkpt>
      <trkpt lat="49.37242" lon="1.49815">
        <ele>92.6</ele>
        <time>2015-06-13T09:36:20Z</time>
      </trkpt>
      <trkpt lat="49.37248" lon="1.49719">
        <ele>94.4</ele>
        <time>2015-06-13T09:36:39Z</time>
      </trkpt>
      <trkpt lat="49.37242" lon="1.49602">
        <ele>94</ele>
        <time>2015-06-13T09:36:57Z</time>
      </trkpt>
      <trkpt lat="49.37205" lon="1.49395">
        <ele>90.4</ele>
        <time>2015-06-13T09:37:20Z</time>
      </trkpt>
      <trkpt lat="49.37205" lon="1.4934">
        <ele>90.2</ele>
        <time>2015-06-13T09:37:26Z</time>
      </trkpt>
      <trkpt lat="49.37223" lon="1.49242">
        <ele>90.2</ele>
        <time>2015-06-13T09:37:38Z</time>
      </trkpt>
      <trkpt lat="49.37222" lon="1.49218">
        <ele>90.2</ele>
        <time>2015-06-13T09:37:42Z</time>
      </trkpt>
      <trkpt lat="49.37208" lon="1.49209">
        <ele>90.4</ele>
        <time>2015-06-13T09:37:46Z</time>
      </trkpt>
      <trkpt lat="49.37194" lon="1.49197">
        <ele>91.4</ele>
        <time>2015-06-13T09:37:52Z</time>
      </trkpt>
      <trkpt lat="49.37192" lon="1.49195">
        <ele>91.6</ele>
        <time>2015-06-13T09:37:53Z</time>
      </trkpt>
      <trkpt lat="49.37182" lon="1.49181">
        <ele>93</ele>
        <time>2015-06-13T09:37:58Z</time>
      </trkpt>
      <trkpt lat="49.3717" lon="1.49158">
        <ele>93</ele>
        <time>2015-06-13T09:38:04Z</time>
      </trkpt>
      <trkpt lat="49.3713" lon="1.49052">
        <ele>92.6</ele>
        <time>2015-06-13T09:38:22Z</time>
      </trkpt>
      <trkpt lat="49.37115" lon="1.48929">
        <ele>94.2</ele>
        <time>2015-06-13T09:38:40Z</time>
      </trkpt>
      <trkpt lat="49.37108" lon="1.48902">
        <ele>95.2</ele>
        <time>2015-06-13T09:38:45Z</time>
      </trkpt>
      <trkpt lat="49.37097" lon="1.48879">
        <ele>96</ele>
        <time>2015-06-13T09:38:49Z</time>
      </trkpt>
      <trkpt lat="49.3706" lon="1.48822">
        <ele>98</ele>
        <time>2015-06-13T09:39:00Z</time>
      </trkpt>
      <trkpt lat="49.37038" lon="1.48803">
        <ele>99</ele>
        <time>2015-06-13T09:39:06Z</time>
      </trkpt>
      <trkpt lat="49.36998" lon="1.48746">
        <ele>101.8</ele>
        <time>2015-06-13T09:39:21Z</time>
      </trkpt>
      <trkpt lat="49.36957" lon="1.48668">
        <ele>105.8</ele>
        <time>2015-06-13T09:39:40Z</time>
      </trkpt>
      <trkpt lat="49.3694" lon="1.48618">
        <ele>107.4</ele>
        <time>2015-06-13T09:39:50Z</time>
      </trkpt>
      <trkpt lat="49.36913" lon="1.48511">
        <ele>106</ele>
        <time>2015-06-13T09:40:05Z</time>
      </trkpt>
      <trkpt lat="49.36888" lon="1.48449">
        <ele>103.6</ele>
        <time>2015-06-13T09:40:14Z</time>
      </trkpt>
      <trkpt lat="49.36823" lon="1.48215">
        <ele>97.8</ele>
        <time>2015-06-13T09:40:38Z</time>
      </trkpt>
      <trkpt lat="49.36805" lon="1.48173">
        <ele>100.2</ele>
        <time>2015-06-13T09:40:45Z</time>
      </trkpt>
      <trkpt lat="49.36804" lon="1.48166">
        <ele>101.2</ele>
        <time>2015-06-13T09:40:51Z</time>
      </trkpt>
      <trkpt lat="49.36801" lon="1.48156">
        <ele>100.4</ele>
        <time>2015-06-13T09:41:40Z</time>
      </trkpt>
      <trkpt lat="49.36798" lon="1.48015">
        <ele>94.8</ele>
        <time>2015-06-13T09:41:57Z</time>
      </trkpt>
      <trkpt lat="49.368" lon="1.48003">
        <ele>92.8</ele>
        <time>2015-06-13T09:41:59Z</time>
      </trkpt>
      <trkpt lat="49.368" lon="1.47993">
        <ele>91.4</ele>
        <time>2015-06-13T09:42:02Z</time>
      </trkpt>
      <trkpt lat="49.36798" lon="1.4798">
        <ele>91</ele>
        <time>2015-06-13T09:42:05Z</time>
      </trkpt>
      <trkpt lat="49.3678" lon="1.47922">
        <ele>91.2</ele>
        <time>2015-06-13T09:42:18Z</time>
      </trkpt>
      <trkpt lat="49.36731" lon="1.47833">
        <ele>91</ele>
        <time>2015-06-13T09:42:36Z</time>
      </trkpt>
      <trkpt lat="49.36536" lon="1.47554">
        <ele>83.4</ele>
        <time>2015-06-13T09:43:28Z</time>
      </trkpt>
      <trkpt lat="49.36531" lon="1.47549">
        <ele>83.4</ele>
        <time>2015-06-13T09:43:29Z</time>
      </trkpt>
      <trkpt lat="49.36514" lon="1.47538">
        <ele>83.4</ele>
        <time>2015-06-13T09:43:32Z</time>
      </trkpt>
      <trkpt lat="49.36505" lon="1.47535">
        <ele>84.6</ele>
        <time>2015-06-13T09:43:34Z</time>
      </trkpt>
      <trkpt lat="49.36452" lon="1.4757">
        <ele>85.6</ele>
        <time>2015-06-13T09:43:48Z</time>
      </trkpt>
      <trkpt lat="49.36447" lon="1.47573">
        <ele>85.4</ele>
        <time>2015-06-13T09:43:49Z</time>
      </trkpt>
      <trkpt lat="49.36377" lon="1.47632">
        <ele>81.8</ele>
        <time>2015-06-13T09:44:00Z</time>
      </trkpt>
      <trkpt lat="49.36349" lon="1.47648">
        <ele>81.4</ele>
        <time>2015-06-13T09:44:05Z</time>
      </trkpt>
      <trkpt lat="49.36303" lon="1.47662">
        <ele>80.6</ele>
        <time>2015-06-13T09:44:16Z</time>
      </trkpt>
      <trkpt lat="49.36252" lon="1.4765">
        <ele>80.2</ele>
        <time>2015-06-13T09:44:27Z</time>
      </trkpt>
      <trkpt lat="49.36224" lon="1.4763">
        <ele>80.6</ele>
        <time>2015-06-13T09:44:33Z</time>
      </trkpt>
      <trkpt lat="49.36204" lon="1.47606">
        <ele>81</ele>
        <time>2015-06-13T09:44:39Z</time>
      </trkpt>
      <trkpt lat="49.36187" lon="1.47577">
        <ele>80.2</ele>
        <time>2015-06-13T09:44:45Z</time>
      </trkpt>
      <trkpt lat="49.36165" lon="1.47548">
        <ele>80.2</ele>
        <time>2015-06-13T09:44:51Z</time>
      </trkpt>
      <trkpt lat="49.36015" lon="1.47394">
        <ele>81.6</ele>
        <time>2015-06-13T09:45:25Z</time>
      </trkpt>
      <trkpt lat="49.35997" lon="1.47365">
        <ele>80.8</ele>
        <time>2015-06-13T09:45:31Z</time>
      </trkpt>
      <trkpt lat="49.35994" lon="1.47348">
        <ele>79.8</ele>
        <time>2015-06-13T09:45:33Z</time>
      </trkpt>
      <trkpt lat="49.35987" lon="1.47332">
        <ele>78.8</ele>
        <time>2015-06-13T09:45:35Z</time>
      </trkpt>
      <trkpt lat="49.35974" lon="1.47319">
        <ele>77.6</ele>
        <time>2015-06-13T09:45:38Z</time>
      </trkpt>
      <trkpt lat="49.35961" lon="1.4731">
        <ele>76.4</ele>
        <time>2015-06-13T09:45:41Z</time>
      </trkpt>
      <trkpt lat="49.35933" lon="1.47315">
        <ele>76</ele>
        <time>2015-06-13T09:45:48Z</time>
      </trkpt>
      <trkpt lat="49.35878" lon="1.47341">
        <ele>76.4</ele>
        <time>2015-06-13T09:46:03Z</time>
      </trkpt>
      <trkpt lat="49.35863" lon="1.47344">
        <ele>76.4</ele>
        <time>2015-06-13T09:46:09Z</time>
      </trkpt>
      <trkpt lat="49.35818" lon="1.47337">
        <ele>77.6</ele>
        <time>2015-06-13T09:46:29Z</time>
      </trkpt>
      <trkpt lat="49.3578" lon="1.47325">
        <ele>78.4</ele>
        <time>2015-06-13T09:46:47Z</time>
      </trkpt>
      <trkpt lat="49.35748" lon="1.47301">
        <ele>78</ele>
        <time>2015-06-13T09:47:00Z</time>
      </trkpt>
      <trkpt lat="49.35693" lon="1.47235">
        <ele>75.4</ele>
        <time>2015-06-13T09:47:16Z</time>
      </trkpt>
      <trkpt lat="49.35655" lon="1.47209">
        <ele>75.2</ele>
        <time>2015-06-13T09:47:23Z</time>
      </trkpt>
      <trkpt lat="49.35601" lon="1.47207">
        <ele>75</ele>
        <time>2015-06-13T09:47:32Z</time>
      </trkpt>
      <trkpt lat="49.3556" lon="1.47201">
        <ele>74.4</ele>
        <time>2015-06-13T09:47:39Z</time>
      </trkpt>
      <trkpt lat="49.35519" lon="1.47186">
        <ele>73.6</ele>
        <time>2015-06-13T09:47:46Z</time>
      </trkpt>
      <trkpt lat="49.3544" lon="1.47141">
        <ele>72.4</ele>
        <time>2015-06-13T09:47:59Z</time>
      </trkpt>
      <trkpt lat="49.35398" lon="1.47127">
        <ele>72.2</ele>
        <time>2015-06-13T09:48:06Z</time>
      </trkpt>
      <trkpt lat="49.35354" lon="1.47118">
        <ele>72.2</ele>
        <time>2015-06-13T09:48:13Z</time>
      </trkpt>
      <trkpt lat="49.35336" lon="1.47095">
        <ele>71.8</ele>
        <time>2015-06-13T09:48:17Z</time>
      </trkpt>
      <trkpt lat="49.35305" lon="1.47007">
        <ele>71.2</ele>
        <time>2015-06-13T09:48:29Z</time>
      </trkpt>
      <trkpt lat="49.35288" lon="1.46996">
        <ele>71.4</ele>
        <time>2015-06-13T09:48:32Z</time>
      </trkpt>
      <trkpt lat="49.35263" lon="1.47">
        <ele>71.6</ele>
        <time>2015-06-13T09:48:36Z</time>
      </trkpt>
      <trkpt lat="49.35224" lon="1.47016">
        <ele>71.4</ele>
        <time>2015-06-13T09:48:43Z</time>
      </trkpt>
      <trkpt lat="49.352" lon="1.47035">
        <ele>71.2</ele>
        <time>2015-06-13T09:48:48Z</time>
      </trkpt>
      <trkpt lat="49.35148" lon="1.47111">
        <ele>69.8</ele>
        <time>2015-06-13T09:49:03Z</time>
      </trkpt>
      <trkpt lat="49.35131" lon="1.47129">
        <ele>69.8</ele>
        <time>2015-06-13T09:49:07Z</time>
      </trkpt>
      <trkpt lat="49.35093" lon="1.47143">
        <ele>69.6</ele>
        <time>2015-06-13T09:49:17Z</time>
      </trkpt>
      <trkpt lat="49.35024" lon="1.46939">
        <ele>68.4</ele>
        <time>2015-06-13T09:49:45Z</time>
      </trkpt>
      <trkpt lat="49.34966" lon="1.46818">
        <ele>69.4</ele>
        <time>2015-06-13T09:50:03Z</time>
      </trkpt>
      <trkpt lat="49.34881" lon="1.46697">
        <ele>69.6</ele>
        <time>2015-06-13T09:50:25Z</time>
      </trkpt>
      <trkpt lat="49.34873" lon="1.46658">
        <ele>69.4</ele>
        <time>2015-06-13T09:50:30Z</time>
      </trkpt>
      <trkpt lat="49.34873" lon="1.46585">
        <ele>69.2</ele>
        <time>2015-06-13T09:50:38Z</time>
      </trkpt>
      <trkpt lat="49.34835" lon="1.46275">
        <ele>67.4</ele>
        <time>2015-06-13T09:51:13Z</time>
      </trkpt>
      <trkpt lat="49.34835" lon="1.46229">
        <ele>66.6</ele>
        <time>2015-06-13T09:51:18Z</time>
      </trkpt>
      <trkpt lat="49.34846" lon="1.46168">
        <ele>66.8</ele>
        <time>2015-06-13T09:51:25Z</time>
      </trkpt>
      <trkpt lat="49.3497" lon="1.45861">
        <ele>68.2</ele>
        <time>2015-06-13T09:52:08Z</time>
      </trkpt>
      <trkpt lat="49.34985" lon="1.45837">
        <ele>67.8</ele>
        <time>2015-06-13T09:52:12Z</time>
      </trkpt>
      <trkpt lat="49.35044" lon="1.45784">
        <ele>66.2</ele>
        <time>2015-06-13T09:52:24Z</time>
      </trkpt>
      <trkpt lat="49.35059" lon="1.45762">
        <ele>65.6</ele>
        <time>2015-06-13T09:52:28Z</time>
      </trkpt>
      <trkpt lat="49.35075" lon="1.45729">
        <ele>65.2</ele>
        <time>2015-06-13T09:52:33Z</time>
      </trkpt>
      <trkpt lat="49.35091" lon="1.45723">
        <ele>65.4</ele>
        <time>2015-06-13T09:52:36Z</time>
      </trkpt>
      <trkpt lat="49.35109" lon="1.45725">
        <ele>65.2</ele>
        <time>2015-06-13T09:52:39Z</time>
      </trkpt>
      <trkpt lat="49.35162" lon="1.45739">
        <ele>65.2</ele>
        <time>2015-06-13T09:52:48Z</time>
      </trkpt>
      <trkpt lat="49.35197" lon="1.45742">
        <ele>66</ele>
        <time>2015-06-13T09:52:55Z</time>
      </trkpt>
      <trkpt lat="49.35211" lon="1.45731">
        <ele>66.6</ele>
        <time>2015-06-13T09:52:59Z</time>
      </trkpt>
      <trkpt lat="49.35208" lon="1.45605">
        <ele>65.2</ele>
        <time>2015-06-13T09:53:12Z</time>
      </trkpt>
      <trkpt lat="49.35134" lon="1.44809">
        <ele>64.8</ele>
        <time>2015-06-13T09:54:54Z</time>
      </trkpt>
      <trkpt lat="49.35138" lon="1.44798">
        <ele>65</ele>
        <time>2015-06-13T09:54:58Z</time>
      </trkpt>
      <trkpt lat="49.35142" lon="1.44803">
        <ele>65.2</ele>
        <time>2015-06-13T09:55:02Z</time>
      </trkpt>
      <trkpt lat="49.35139" lon="1.4481">
        <ele>65.4</ele>
        <time>2015-06-13T09:55:06Z</time>
      </trkpt>
      <trkpt lat="49.35131" lon="1.44807">
        <ele>65</ele>
        <time>2015-06-13T09:55:12Z</time>
      </trkpt>
      <trkpt lat="49.35018" lon="1.44606">
        <ele>61</ele>
        <time>2015-06-13T09:55:48Z</time>
      </trkpt>
      <trkpt lat="49.35011" lon="1.44592">
        <ele>60</ele>
        <time>2015-06-13T09:55:50Z</time>
      </trkpt>
      <trkpt lat="49.3501" lon="1.44563">
        <ele>59.6</ele>
        <time>2015-06-13T09:55:54Z</time>
      </trkpt>
      <trkpt lat="49.35016" lon="1.44541">
        <ele>59.6</ele>
        <time>2015-06-13T09:55:57Z</time>
      </trkpt>
      <trkpt lat="49.35061" lon="1.44454">
        <ele>58.6</ele>
        <time>2015-06-13T09:56:12Z</time>
      </trkpt>
      <trkpt lat="49.35072" lon="1.44453">
        <ele>58.8</ele>
        <time>2015-06-13T09:56:15Z</time>
      </trkpt>
      <trkpt lat="49.35085" lon="1.44466">
        <ele>59</ele>
        <time>2015-06-13T09:56:20Z</time>
      </trkpt>
      <trkpt lat="49.35103" lon="1.44472">
        <ele>61</ele>
        <time>2015-06-13T09:56:27Z</time>
      </trkpt>
      <trkpt lat="49.3515" lon="1.44475">
        <ele>69.2</ele>
        <time>2015-06-13T09:56:48Z</time>
      </trkpt>
      <trkpt lat="49.35162" lon="1.44477">
        <ele>72.6</ele>
        <time>2015-06-13T09:56:54Z</time>
      </trkpt>
      <trkpt lat="49.35184" lon="1.44479">
        <ele>76.2</ele>
        <time>2015-06-13T09:57:03Z</time>
      </trkpt>
      <trkpt lat="49.35198" lon="1.44483">
        <ele>78.8</ele>
        <time>2015-06-13T09:57:08Z</time>
      </trkpt>
      <trkpt lat="49.35206" lon="1.44483">
        <ele>80.2</ele>
        <time>2015-06-13T09:57:11Z</time>
      </trkpt>
      <trkpt lat="49.35222" lon="1.44484">
        <ele>82.2</ele>
        <time>2015-06-13T09:57:17Z</time>
      </trkpt>
      <trkpt lat="49.35244" lon="1.44492">
        <ele>84.4</ele>
        <time>2015-06-13T09:57:27Z</time>
      </trkpt>
      <trkpt lat="49.3526" lon="1.44501">
        <ele>86.4</ele>
        <time>2015-06-13T09:57:36Z</time>
      </trkpt>
      <trkpt lat="49.35269" lon="1.44501">
        <ele>87.4</ele>
        <time>2015-06-13T09:57:42Z</time>
      </trkpt>
      <trkpt lat="49.35275" lon="1.44489">
        <ele>88.2</ele>
        <time>2015-06-13T09:57:49Z</time>
      </trkpt>
      <trkpt lat="49.35283" lon="1.4448">
        <ele>88.8</ele>
        <time>2015-06-13T09:57:55Z</time>
      </trkpt>
      <trkpt lat="49.35288" lon="1.44484">
        <ele>89.2</ele>
        <time>2015-06-13T09:57:59Z</time>
      </trkpt>
      <trkpt lat="49.3529" lon="1.44494">
        <ele>89.6</ele>
        <time>2015-06-13T09:58:03Z</time>
      </trkpt>
      <trkpt lat="49.35294" lon="1.44498">
        <ele>90.6</ele>
        <time>2015-06-13T09:58:07Z</time>
      </trkpt>
      <trkpt lat="49.35303" lon="1.44497">
        <ele>91.8</ele>
        <time>2015-06-13T09:58:13Z</time>
      </trkpt>
      <trkpt lat="49.3531" lon="1.44488">
        <ele>92.4</ele>
        <time>2015-06-13T09:58:20Z</time>
      </trkpt>
      <trkpt lat="49.35311" lon="1.44494">
        <ele>92.8</ele>
        <time>2015-06-13T09:58:24Z</time>
      </trkpt>
      <trkpt lat="49.353" lon="1.44496">
        <ele>91.8</ele>
        <time>2015-06-13T09:58:31Z</time>
      </trkpt>
      <trkpt lat="49.35299" lon="1.44496">
        <ele>91.6</ele>
        <time>2015-06-13T09:58:32Z</time>
      </trkpt>
      <trkpt lat="49.35286" lon="1.44489">
        <ele>90</ele>
        <time>2015-06-13T09:58:42Z</time>
      </trkpt>
      <trkpt lat="49.35282" lon="1.44489">
        <ele>89</ele>
        <time>2015-06-13T09:58:44Z</time>
      </trkpt>
      <trkpt lat="49.35275" lon="1.44492">
        <ele>88.2</ele>
        <time>2015-06-13T09:58:49Z</time>
      </trkpt>
      <trkpt lat="49.35273" lon="1.44487">
        <ele>87.8</ele>
        <time>2015-06-13T09:58:52Z</time>
      </trkpt>
      <trkpt lat="49.35279" lon="1.44485">
        <ele>88.2</ele>
        <time>2015-06-13T09:58:57Z</time>
      </trkpt>
      <trkpt lat="49.35279" lon="1.44491">
        <ele>88.2</ele>
        <time>2015-06-13T09:59:01Z</time>
      </trkpt>
      <trkpt lat="49.35274" lon="1.4449">
        <ele>88.4</ele>
        <time>2015-06-13T09:59:06Z</time>
      </trkpt>
      <trkpt lat="49.35274" lon="1.44484">
        <ele>87.8</ele>
        <time>2015-06-13T09:59:10Z</time>
      </trkpt>
      <trkpt lat="49.35281" lon="1.44483">
        <ele>88.2</ele>
        <time>2015-06-13T09:59:16Z</time>
      </trkpt>
      <trkpt lat="49.35283" lon="1.4449">
        <ele>88.4</ele>
        <time>2015-06-13T09:59:20Z</time>
      </trkpt>
      <trkpt lat="49.35282" lon="1.44491">
        <ele>88.4</ele>
        <time>2015-06-13T09:59:21Z</time>
      </trkpt>
      <trkpt lat="49.35284" lon="1.44497">
        <ele>89</ele>
        <time>2015-06-13T09:59:26Z</time>
      </trkpt>
      <trkpt lat="49.35293" lon="1.44493">
        <ele>90</ele>
        <time>2015-06-13T09:59:33Z</time>
      </trkpt>
      <trkpt lat="49.35303" lon="1.44494">
        <ele>91.2</ele>
        <time>2015-06-13T09:59:39Z</time>
      </trkpt>
      <trkpt lat="49.35315" lon="1.44495">
        <ele>93.2</ele>
        <time>2015-06-13T09:59:46Z</time>
      </trkpt>
      <trkpt lat="49.35326" lon="1.44496">
        <ele>94.6</ele>
        <time>2015-06-13T09:59:52Z</time>
      </trkpt>
      <trkpt lat="49.35327" lon="1.44497">
        <ele>94.8</ele>
        <time>2015-06-13T09:59:53Z</time>
      </trkpt>
      <trkpt lat="49.35346" lon="1.44503">
        <ele>96.4</ele>
        <time>2015-06-13T10:00:06Z</time>
      </trkpt>
      <trkpt lat="49.35377" lon="1.44521">
        <ele>100.2</ele>
        <time>2015-06-13T10:00:29Z</time>
      </trkpt>
      <trkpt lat="49.35428" lon="1.44534">
        <ele>103.2</ele>
        <time>2015-06-13T10:00:57Z</time>
      </trkpt>
      <trkpt lat="49.3545" lon="1.44535">
        <ele>104</ele>
        <time>2015-06-13T10:01:06Z</time>
      </trkpt>
      <trkpt lat="49.35476" lon="1.44541">
        <ele>105</ele>
        <time>2015-06-13T10:01:19Z</time>
      </trkpt>
      <trkpt lat="49.35511" lon="1.44553">
        <ele>106</ele>
        <time>2015-06-13T10:01:32Z</time>
      </trkpt>
      <trkpt lat="49.35544" lon="1.44558">
        <ele>107.2</ele>
        <time>2015-06-13T10:01:46Z</time>
      </trkpt>
      <trkpt lat="49.35562" lon="1.44563">
        <ele>108</ele>
        <time>2015-06-13T10:01:53Z</time>
      </trkpt>
      <trkpt lat="49.35601" lon="1.44577">
        <ele>109</ele>
        <time>2015-06-13T10:02:08Z</time>
      </trkpt>
      <trkpt lat="49.35678" lon="1.44592">
        <ele>111.8</ele>
        <time>2015-06-13T10:02:33Z</time>
      </trkpt>
      <trkpt lat="49.35695" lon="1.44592">
        <ele>112.4</ele>
        <time>2015-06-13T10:02:39Z</time>
      </trkpt>
      <trkpt lat="49.3571" lon="1.44598">
        <ele>113</ele>
        <time>2015-06-13T10:02:44Z</time>
      </trkpt>
      <trkpt lat="49.35727" lon="1.4461">
        <ele>113.4</ele>
        <time>2015-06-13T10:02:51Z</time>
      </trkpt>
      <trkpt lat="49.3574" lon="1.44612">
        <ele>114</ele>
        <time>2015-06-13T10:02:57Z</time>
      </trkpt>
      <trkpt lat="49.35765" lon="1.44611">
        <ele>114.6</ele>
        <time>2015-06-13T10:03:04Z</time>
      </trkpt>
      <trkpt lat="49.35788" lon="1.44613">
        <ele>114.6</ele>
        <time>2015-06-13T10:03:10Z</time>
      </trkpt>
      <trkpt lat="49.358" lon="1.4462">
        <ele>115.2</ele>
        <time>2015-06-13T10:03:15Z</time>
      </trkpt>
      <trkpt lat="49.35857" lon="1.44641">
        <ele>115.4</ele>
        <time>2015-06-13T10:03:32Z</time>
      </trkpt>
      <trkpt lat="49.35876" lon="1.44642">
        <ele>116</ele>
        <time>2015-06-13T10:03:38Z</time>
      </trkpt>
      <trkpt lat="49.35887" lon="1.44649">
        <ele>116.4</ele>
        <time>2015-06-13T10:03:43Z</time>
      </trkpt>
      <trkpt lat="49.35907" lon="1.4465">
        <ele>117</ele>
        <time>2015-06-13T10:03:49Z</time>
      </trkpt>
      <trkpt lat="49.35934" lon="1.44655">
        <ele>117.8</ele>
        <time>2015-06-13T10:03:56Z</time>
      </trkpt>
      <trkpt lat="49.35984" lon="1.44669">
        <ele>118.4</ele>
        <time>2015-06-13T10:04:11Z</time>
      </trkpt>
      <trkpt lat="49.36008" lon="1.4467">
        <ele>119</ele>
        <time>2015-06-13T10:04:18Z</time>
      </trkpt>
      <trkpt lat="49.36015" lon="1.44671">
        <ele>119</ele>
        <time>2015-06-13T10:04:21Z</time>
      </trkpt>
      <trkpt lat="49.36023" lon="1.44667">
        <ele>119.4</ele>
        <time>2015-06-13T10:04:25Z</time>
      </trkpt>
      <trkpt lat="49.36041" lon="1.4467">
        <ele>119.8</ele>
        <time>2015-06-13T10:04:31Z</time>
      </trkpt>
      <trkpt lat="49.36084" lon="1.44688">
        <ele>121</ele>
        <time>2015-06-13T10:04:44Z</time>
      </trkpt>
      <trkpt lat="49.36089" lon="1.4469">
        <ele>121.2</ele>
        <time>2015-06-13T10:04:46Z</time>
      </trkpt>
      <trkpt lat="49.36098" lon="1.44688">
        <ele>122</ele>
        <time>2015-06-13T10:04:49Z</time>
      </trkpt>
      <trkpt lat="49.3611" lon="1.44698">
        <ele>122.4</ele>
        <time>2015-06-13T10:04:52Z</time>
      </trkpt>
      <trkpt lat="49.36117" lon="1.4471">
        <ele>122.8</ele>
        <time>2015-06-13T10:04:56Z</time>
      </trkpt>
      <trkpt lat="49.36151" lon="1.45103">
        <ele>115.4</ele>
        <time>2015-06-13T10:05:50Z</time>
      </trkpt>
      <trkpt lat="49.3616" lon="1.45122">
        <ele>114.2</ele>
        <time>2015-06-13T10:05:54Z</time>
      </trkpt>
      <trkpt lat="49.36163" lon="1.45125">
        <ele>114</ele>
        <time>2015-06-13T10:05:55Z</time>
      </trkpt>
      <trkpt lat="49.36502" lon="1.45596">
        <ele>125.6</ele>
        <time>2015-06-13T10:07:57Z</time>
      </trkpt>
      <trkpt lat="49.36527" lon="1.45613">
        <ele>126.6</ele>
        <time>2015-06-13T10:08:05Z</time>
      </trkpt>
      <trkpt lat="49.36546" lon="1.45622">
        <ele>127.6</ele>
        <time>2015-06-13T10:08:12Z</time>
      </trkpt>
      <trkpt lat="49.36585" lon="1.45647">
        <ele>130</ele>
        <time>2015-06-13T10:08:27Z</time>
      </trkpt>
      <trkpt lat="49.36587" lon="1.45648">
        <ele>130</ele>
        <time>2015-06-13T10:08:28Z</time>
      </trkpt>
      <trkpt lat="49.36627" lon="1.45671">
        <ele>132.4</ele>
        <time>2015-06-13T10:08:41Z</time>
      </trkpt>
      <trkpt lat="49.36648" lon="1.45686">
        <ele>133.6</ele>
        <time>2015-06-13T10:08:49Z</time>
      </trkpt>
      <trkpt lat="49.36683" lon="1.45717">
        <ele>136.6</ele>
        <time>2015-06-13T10:09:09Z</time>
      </trkpt>
      <trkpt lat="49.36738" lon="1.45758">
        <ele>141</ele>
        <time>2015-06-13T10:09:47Z</time>
      </trkpt>
      <trkpt lat="49.36806" lon="1.45831">
        <ele>145</ele>
        <time>2015-06-13T10:10:58Z</time>
      </trkpt>
      <trkpt lat="49.36807" lon="1.45834">
        <ele>145.2</ele>
        <time>2015-06-13T10:10:59Z</time>
      </trkpt>
      <trkpt lat="49.36831" lon="1.45872">
        <ele>146.4</ele>
        <time>2015-06-13T10:11:11Z</time>
      </trkpt>
      <trkpt lat="49.36838" lon="1.45892">
        <ele>147.2</ele>
        <time>2015-06-13T10:11:18Z</time>
      </trkpt>
      <trkpt lat="49.36845" lon="1.45901">
        <ele>147.8</ele>
        <time>2015-06-13T10:11:31Z</time>
      </trkpt>
      <trkpt lat="49.36854" lon="1.4591">
        <ele>148.2</ele>
        <time>2015-06-13T10:11:45Z</time>
      </trkpt>
      <trkpt lat="49.36867" lon="1.45939">
        <ele>149</ele>
        <time>2015-06-13T10:11:53Z</time>
      </trkpt>
      <trkpt lat="49.36888" lon="1.46006">
        <ele>150.2</ele>
        <time>2015-06-13T10:12:13Z</time>
      </trkpt>
      <trkpt lat="49.36889" lon="1.46004">
        <ele>150.4</ele>
        <time>2015-06-13T10:12:17Z</time>
      </trkpt>
      <trkpt lat="49.36886" lon="1.45988">
        <ele>150.6</ele>
        <time>2015-06-13T10:12:22Z</time>
      </trkpt>
      <trkpt lat="49.36847" lon="1.45888">
        <ele>148.2</ele>
        <time>2015-06-13T10:12:37Z</time>
      </trkpt>
      <trkpt lat="49.36843" lon="1.45872">
        <ele>147.8</ele>
        <time>2015-06-13T10:12:39Z</time>
      </trkpt>
      <trkpt lat="49.36852" lon="1.45851">
        <ele>147.6</ele>
        <time>2015-06-13T10:12:43Z</time>
      </trkpt>
      <trkpt lat="49.3687" lon="1.45834">
        <ele>148.4</ele>
        <time>2015-06-13T10:12:49Z</time>
      </trkpt>
      <trkpt lat="49.36907" lon="1.45777">
        <ele>148.8</ele>
        <time>2015-06-13T10:12:59Z</time>
      </trkpt>
      <trkpt lat="49.36948" lon="1.45728">
        <ele>149.6</ele>
        <time>2015-06-13T10:13:08Z</time>
      </trkpt>
      <trkpt lat="49.3697" lon="1.45694">
        <ele>149.4</ele>
        <time>2015-06-13T10:13:13Z</time>
      </trkpt>
      <trkpt lat="49.36989" lon="1.4567">
        <ele>148.8</ele>
        <time>2015-06-13T10:13:17Z</time>
      </trkpt>
      <trkpt lat="49.37014" lon="1.45652">
        <ele>149</ele>
        <time>2015-06-13T10:13:23Z</time>
      </trkpt>
      <trkpt lat="49.37028" lon="1.45646">
        <ele>149</ele>
        <time>2015-06-13T10:13:28Z</time>
      </trkpt>
      <trkpt lat="49.37081" lon="1.45656">
        <ele>150.2</ele>
        <time>2015-06-13T10:13:46Z</time>
      </trkpt>
      <trkpt lat="49.37102" lon="1.45665">
        <ele>150.4</ele>
        <time>2015-06-13T10:13:52Z</time>
      </trkpt>
      <trkpt lat="49.37139" lon="1.45691">
        <ele>151.4</ele>
        <time>2015-06-13T10:14:04Z</time>
      </trkpt>
      <trkpt lat="49.37159" lon="1.45702">
        <ele>152</ele>
        <time>2015-06-13T10:14:10Z</time>
      </trkpt>
      <trkpt lat="49.37177" lon="1.45697">
        <ele>151.2</ele>
        <time>2015-06-13T10:14:14Z</time>
      </trkpt>
      <trkpt lat="49.37188" lon="1.45715">
        <ele>150.8</ele>
        <time>2015-06-13T10:14:18Z</time>
      </trkpt>
      <trkpt lat="49.37201" lon="1.45819">
        <ele>153.6</ele>
        <time>2015-06-13T10:14:36Z</time>
      </trkpt>
      <trkpt lat="49.37198" lon="1.45881">
        <ele>150.8</ele>
        <time>2015-06-13T10:14:44Z</time>
      </trkpt>
      <trkpt lat="49.37201" lon="1.45919">
        <ele>147.6</ele>
        <time>2015-06-13T10:14:51Z</time>
      </trkpt>
      <trkpt lat="49.37199" lon="1.45959">
        <ele>144.2</ele>
        <time>2015-06-13T10:14:57Z</time>
      </trkpt>
      <trkpt lat="49.37205" lon="1.45992">
        <ele>143.8</ele>
        <time>2015-06-13T10:15:03Z</time>
      </trkpt>
      <trkpt lat="49.37206" lon="1.46026">
        <ele>144.6</ele>
        <time>2015-06-13T10:15:12Z</time>
      </trkpt>
      <trkpt lat="49.37207" lon="1.46035">
        <ele>144.6</ele>
        <time>2015-06-13T10:15:19Z</time>
      </trkpt>
      <trkpt lat="49.37206" lon="1.46056">
        <ele>146.2</ele>
        <time>2015-06-13T10:15:35Z</time>
      </trkpt>
      <trkpt lat="49.37209" lon="1.46066">
        <ele>146.8</ele>
        <time>2015-06-13T10:15:44Z</time>
      </trkpt>
      <trkpt lat="49.37215" lon="1.4608">
        <ele>147.4</ele>
        <time>2015-06-13T10:15:52Z</time>
      </trkpt>
      <trkpt lat="49.37219" lon="1.46084">
        <ele>147</ele>
        <time>2015-06-13T10:15:57Z</time>
      </trkpt>
      <trkpt lat="49.37228" lon="1.4609">
        <ele>147.2</ele>
        <time>2015-06-13T10:16:14Z</time>
      </trkpt>
      <trkpt lat="49.3724" lon="1.46088">
        <ele>146.4</ele>
        <time>2015-06-13T10:16:18Z</time>
      </trkpt>
      <trkpt lat="49.37261" lon="1.46081">
        <ele>145</ele>
        <time>2015-06-13T10:16:22Z</time>
      </trkpt>
      <trkpt lat="49.37266" lon="1.4608">
        <ele>144.8</ele>
        <time>2015-06-13T10:16:23Z</time>
      </trkpt>
      <trkpt lat="49.373" lon="1.46086">
        <ele>143</ele>
        <time>2015-06-13T10:16:30Z</time>
      </trkpt>
      <trkpt lat="49.37332" lon="1.46088">
        <ele>140.4</ele>
        <time>2015-06-13T10:16:37Z</time>
      </trkpt>
      <trkpt lat="49.37365" lon="1.4608">
        <ele>133</ele>
        <time>2015-06-13T10:16:44Z</time>
      </trkpt>
      <trkpt lat="49.3737" lon="1.46064">
        <ele>132</ele>
        <time>2015-06-13T10:16:47Z</time>
      </trkpt>
      <trkpt lat="49.37372" lon="1.46053">
        <ele>130.8</ele>
        <time>2015-06-13T10:16:49Z</time>
      </trkpt>
      <trkpt lat="49.37436" lon="1.4592">
        <ele>120.6</ele>
        <time>2015-06-13T10:16:59Z</time>
      </trkpt>
      <trkpt lat="49.37448" lon="1.4589">
        <ele>118.8</ele>
        <time>2015-06-13T10:17:01Z</time>
      </trkpt>
      <trkpt lat="49.37504" lon="1.45661">
        <ele>110.8</ele>
        <time>2015-06-13T10:17:17Z</time>
      </trkpt>
      <trkpt lat="49.37531" lon="1.45592">
        <ele>107.6</ele>
        <time>2015-06-13T10:17:22Z</time>
      </trkpt>
      <trkpt lat="49.37552" lon="1.45558">
        <ele>104.8</ele>
        <time>2015-06-13T10:17:25Z</time>
      </trkpt>
      <trkpt lat="49.37586" lon="1.45523">
        <ele>101.2</ele>
        <time>2015-06-13T10:17:30Z</time>
      </trkpt>
      <trkpt lat="49.37597" lon="1.45513">
        <ele>100.2</ele>
        <time>2015-06-13T10:17:32Z</time>
      </trkpt>
      <trkpt lat="49.37613" lon="1.45502">
        <ele>98.4</ele>
        <time>2015-06-13T10:17:36Z</time>
      </trkpt>
      <trkpt lat="49.37626" lon="1.45496">
        <ele>96.2</ele>
        <time>2015-06-13T10:17:43Z</time>
      </trkpt>
      <trkpt lat="49.37628" lon="1.45496">
        <ele>96</ele>
        <time>2015-06-13T10:17:44Z</time>
      </trkpt>
      <trkpt lat="49.3763" lon="1.45495">
        <ele>95.8</ele>
        <time>2015-06-13T10:17:45Z</time>
      </trkpt>
      <trkpt lat="49.37634" lon="1.45485">
        <ele>95.8</ele>
        <time>2015-06-13T10:17:50Z</time>
      </trkpt>
      <trkpt lat="49.37631" lon="1.45478">
        <ele>95</ele>
        <time>2015-06-13T10:17:54Z</time>
      </trkpt>
      <trkpt lat="49.37632" lon="1.45484">
        <ele>95.2</ele>
        <time>2015-06-13T10:18:01Z</time>
      </trkpt>
      <trkpt lat="49.37638" lon="1.45514">
        <ele>96.2</ele>
        <time>2015-06-13T10:18:15Z</time>
      </trkpt>
      <trkpt lat="49.37637" lon="1.45515">
        <ele>95.8</ele>
        <time>2015-06-13T10:19:06Z</time>
      </trkpt>
      <trkpt lat="49.37638" lon="1.45518">
        <ele>95.8</ele>
        <time>2015-06-13T10:19:30Z</time>
      </trkpt>
      <trkpt lat="49.37637" lon="1.4551">
        <ele>96</ele>
        <time>2015-06-13T10:19:33Z</time>
      </trkpt>
      <trkpt lat="49.37635" lon="1.45466">
        <ele>93.8</ele>
        <time>2015-06-13T10:19:47Z</time>
      </trkpt>
      <trkpt lat="49.37625" lon="1.4541">
        <ele>93</ele>
        <time>2015-06-13T10:19:55Z</time>
      </trkpt>
      <trkpt lat="49.37595" lon="1.45296">
        <ele>90.4</ele>
        <time>2015-06-13T10:20:07Z</time>
      </trkpt>
      <trkpt lat="49.37575" lon="1.45249">
        <ele>88.8</ele>
        <time>2015-06-13T10:20:12Z</time>
      </trkpt>
      <trkpt lat="49.37538" lon="1.45196">
        <ele>86.2</ele>
        <time>2015-06-13T10:20:18Z</time>
      </trkpt>
      <trkpt lat="49.37524" lon="1.45164">
        <ele>85</ele>
        <time>2015-06-13T10:20:21Z</time>
      </trkpt>
      <trkpt lat="49.37521" lon="1.45127">
        <ele>84</ele>
        <time>2015-06-13T10:20:24Z</time>
      </trkpt>
      <trkpt lat="49.37574" lon="1.44713">
        <ele>76.6</ele>
        <time>2015-06-13T10:21:09Z</time>
      </trkpt>
      <trkpt lat="49.3758" lon="1.4468">
        <ele>76.2</ele>
        <time>2015-06-13T10:21:19Z</time>
      </trkpt>
      <trkpt lat="49.3758" lon="1.44679">
        <ele>76</ele>
        <time>2015-06-13T10:21:26Z</time>
      </trkpt>
      <trkpt lat="49.37581" lon="1.44665">
        <ele>77</ele>
        <time>2015-06-13T10:21:31Z</time>
      </trkpt>
      <trkpt lat="49.37592" lon="1.44666">
        <ele>77.2</ele>
        <time>2015-06-13T10:21:37Z</time>
      </trkpt>
      <trkpt lat="49.37613" lon="1.44681">
        <ele>78</ele>
        <time>2015-06-13T10:21:49Z</time>
      </trkpt>
      <trkpt lat="49.37632" lon="1.44708">
        <ele>82.6</ele>
        <time>2015-06-13T10:22:06Z</time>
      </trkpt>
      <trkpt lat="49.37637" lon="1.44711">
        <ele>83.8</ele>
        <time>2015-06-13T10:22:09Z</time>
      </trkpt>
      <trkpt lat="49.37643" lon="1.44719">
        <ele>85.6</ele>
        <time>2015-06-13T10:22:14Z</time>
      </trkpt>
      <trkpt lat="49.37664" lon="1.44759">
        <ele>90.6</ele>
        <time>2015-06-13T10:22:33Z</time>
      </trkpt>
      <trkpt lat="49.37674" lon="1.44788">
        <ele>91.8</ele>
        <time>2015-06-13T10:22:45Z</time>
      </trkpt>
      <trkpt lat="49.37678" lon="1.44805">
        <ele>93</ele>
        <time>2015-06-13T10:22:52Z</time>
      </trkpt>
      <trkpt lat="49.37677" lon="1.44831">
        <ele>94</ele>
        <time>2015-06-13T10:23:01Z</time>
      </trkpt>
      <trkpt lat="49.3767" lon="1.44888">
        <ele>94</ele>
        <time>2015-06-13T10:23:21Z</time>
      </trkpt>
      <trkpt lat="49.37656" lon="1.44931">
        <ele>94.8</ele>
        <time>2015-06-13T10:23:37Z</time>
      </trkpt>
      <trkpt lat="49.37645" lon="1.44941">
        <ele>94.4</ele>
        <time>2015-06-13T10:23:46Z</time>
      </trkpt>
      <trkpt lat="49.37636" lon="1.44956">
        <ele>93.6</ele>
        <time>2015-06-13T10:23:58Z</time>
      </trkpt>
      <trkpt lat="49.3763" lon="1.44971">
        <ele>92.6</ele>
        <time>2015-06-13T10:24:02Z</time>
      </trkpt>
      <trkpt lat="49.37628" lon="1.45043">
        <ele>98.2</ele>
        <time>2015-06-13T10:24:28Z</time>
      </trkpt>
      <trkpt lat="49.37629" lon="1.45066">
        <ele>100.2</ele>
        <time>2015-06-13T10:24:38Z</time>
      </trkpt>
      <trkpt lat="49.37648" lon="1.4514">
        <ele>106.8</ele>
        <time>2015-06-13T10:25:09Z</time>
      </trkpt>
      <trkpt lat="49.37658" lon="1.45167">
        <ele>108.2</ele>
        <time>2015-06-13T10:25:20Z</time>
      </trkpt>
      <trkpt lat="49.37664" lon="1.4519">
        <ele>107.2</ele>
        <time>2015-06-13T10:25:34Z</time>
      </trkpt>
      <trkpt lat="49.37663" lon="1.45191">
        <ele>113.6</ele>
        <time>2015-06-13T10:25:40Z</time>
      </trkpt>
      <trkpt lat="49.37663" lon="1.45191">
        <ele>108.2</ele>
        <time>2015-06-13T10:27:03Z</time>
      </trkpt>
      <trkpt lat="49.37634" lon="1.45095">
        <ele>104.2</ele>
        <time>2015-06-13T10:27:32Z</time>
      </trkpt>
      <trkpt lat="49.37627" lon="1.45049">
        <ele>100.8</ele>
        <time>2015-06-13T10:27:39Z</time>
      </trkpt>
      <trkpt lat="49.37627" lon="1.45039">
        <ele>99.2</ele>
        <time>2015-06-13T10:27:42Z</time>
      </trkpt>
      <trkpt lat="49.37628" lon="1.45039">
        <ele>99.2</ele>
        <time>2015-06-13T10:27:48Z</time>
      </trkpt>
      <trkpt lat="49.37627" lon="1.45042">
        <ele>97.8</ele>
        <time>2015-06-13T10:28:37Z</time>
      </trkpt>
      <trkpt lat="49.37627" lon="1.45053">
        <ele>98.4</ele>
        <time>2015-06-13T10:28:43Z</time>
      </trkpt>
      <trkpt lat="49.37639" lon="1.45117">
        <ele>104.8</ele>
        <time>2015-06-13T10:29:10Z</time>
      </trkpt>
      <trkpt lat="49.37652" lon="1.4515">
        <ele>106.8</ele>
        <time>2015-06-13T10:29:26Z</time>
      </trkpt>
      <trkpt lat="49.37661" lon="1.45179">
        <ele>109</ele>
        <time>2015-06-13T10:29:41Z</time>
      </trkpt>
      <trkpt lat="49.37661" lon="1.45181">
        <ele>109</ele>
        <time>2015-06-13T10:29:42Z</time>
      </trkpt>
      <trkpt lat="49.3766" lon="1.45193">
        <ele>110</ele>
        <time>2015-06-13T10:29:51Z</time>
      </trkpt>
      <trkpt lat="49.37665" lon="1.45202">
        <ele>111</ele>
        <time>2015-06-13T10:30:01Z</time>
      </trkpt>
      <trkpt lat="49.37671" lon="1.45207">
        <ele>113.2</ele>
        <time>2015-06-13T10:30:13Z</time>
      </trkpt>
      <trkpt lat="49.37672" lon="1.45207">
        <ele>113.2</ele>
        <time>2015-06-13T10:30:14Z</time>
      </trkpt>
      <trkpt lat="49.3768" lon="1.45211">
        <ele>115.2</ele>
        <time>2015-06-13T10:30:28Z</time>
      </trkpt>
      <trkpt lat="49.37685" lon="1.45205">
        <ele>116.2</ele>
        <time>2015-06-13T10:30:39Z</time>
      </trkpt>
      <trkpt lat="49.37723" lon="1.45074">
        <ele>117</ele>
        <time>2015-06-13T10:31:35Z</time>
      </trkpt>
      <trkpt lat="49.37739" lon="1.45033">
        <ele>115.8</ele>
        <time>2015-06-13T10:31:42Z</time>
      </trkpt>
      <trkpt lat="49.3775" lon="1.45029">
        <ele>116.4</ele>
        <time>2015-06-13T10:31:46Z</time>
      </trkpt>
      <trkpt lat="49.3776" lon="1.45038">
        <ele>117.4</ele>
        <time>2015-06-13T10:31:50Z</time>
      </trkpt>
      <trkpt lat="49.37762" lon="1.45041">
        <ele>117.6</ele>
        <time>2015-06-13T10:31:51Z</time>
      </trkpt>
      <trkpt lat="49.37867" lon="1.4513">
        <ele>127.6</ele>
        <time>2015-06-13T10:32:34Z</time>
      </trkpt>
      <trkpt lat="49.37869" lon="1.45131">
        <ele>127.8</ele>
        <time>2015-06-13T10:32:35Z</time>
      </trkpt>
      <trkpt lat="49.37928" lon="1.45179">
        <ele>132</ele>
        <time>2015-06-13T10:33:04Z</time>
      </trkpt>
      <trkpt lat="49.37943" lon="1.45189">
        <ele>133</ele>
        <time>2015-06-13T10:33:12Z</time>
      </trkpt>
      <trkpt lat="49.37957" lon="1.45204">
        <ele>135</ele>
        <time>2015-06-13T10:33:20Z</time>
      </trkpt>
      <trkpt lat="49.37985" lon="1.45225">
        <ele>137.4</ele>
        <time>2015-06-13T10:33:33Z</time>
      </trkpt>
      <trkpt lat="49.38" lon="1.45233">
        <ele>138.6</ele>
        <time>2015-06-13T10:33:40Z</time>
      </trkpt>
      <trkpt lat="49.38039" lon="1.45268">
        <ele>142.4</ele>
        <time>2015-06-13T10:34:00Z</time>
      </trkpt>
      <trkpt lat="49.38054" lon="1.45275">
        <ele>143.8</ele>
        <time>2015-06-13T10:34:08Z</time>
      </trkpt>
      <trkpt lat="49.38132" lon="1.45335">
        <ele>150.4</ele>
        <time>2015-06-13T10:34:50Z</time>
      </trkpt>
      <trkpt lat="49.38134" lon="1.45337">
        <ele>150.6</ele>
        <time>2015-06-13T10:34:51Z</time>
      </trkpt>
      <trkpt lat="49.38145" lon="1.45344">
        <ele>151.6</ele>
        <time>2015-06-13T10:34:58Z</time>
      </trkpt>
      <trkpt lat="49.38162" lon="1.45358">
        <ele>152.6</ele>
        <time>2015-06-13T10:35:07Z</time>
      </trkpt>
      <trkpt lat="49.38178" lon="1.45366">
        <ele>153.8</ele>
        <time>2015-06-13T10:35:16Z</time>
      </trkpt>
      <trkpt lat="49.38208" lon="1.45396">
        <ele>155.6</ele>
        <time>2015-06-13T10:35:34Z</time>
      </trkpt>
      <trkpt lat="49.38285" lon="1.45452">
        <ele>158.6</ele>
        <time>2015-06-13T10:36:12Z</time>
      </trkpt>
      <trkpt lat="49.38292" lon="1.45456">
        <ele>158.8</ele>
        <time>2015-06-13T10:36:16Z</time>
      </trkpt>
      <trkpt lat="49.38292" lon="1.45458">
        <ele>158.8</ele>
        <time>2015-06-13T10:36:21Z</time>
      </trkpt>
      <trkpt lat="49.38247" lon="1.45418">
        <ele>157.2</ele>
        <time>2015-06-13T10:36:37Z</time>
      </trkpt>
      <trkpt lat="49.38246" lon="1.45418">
        <ele>157</ele>
        <time>2015-06-13T10:36:38Z</time>
      </trkpt>
      <trkpt lat="49.38245" lon="1.45418">
        <ele>156.2</ele>
        <time>2015-06-13T10:36:50Z</time>
      </trkpt>
      <trkpt lat="49.38252" lon="1.45427">
        <ele>156.6</ele>
        <time>2015-06-13T10:36:55Z</time>
      </trkpt>
      <trkpt lat="49.38271" lon="1.45444">
        <ele>157.2</ele>
        <time>2015-06-13T10:37:02Z</time>
      </trkpt>
      <trkpt lat="49.38307" lon="1.45472">
        <ele>159</ele>
        <time>2015-06-13T10:37:13Z</time>
      </trkpt>
      <trkpt lat="49.38311" lon="1.45474">
        <ele>159.2</ele>
        <time>2015-06-13T10:37:14Z</time>
      </trkpt>
      <trkpt lat="49.38396" lon="1.4555">
        <ele>162.6</ele>
        <time>2015-06-13T10:37:44Z</time>
      </trkpt>
      <trkpt lat="49.38424" lon="1.45565">
        <ele>163</ele>
        <time>2015-06-13T10:37:54Z</time>
      </trkpt>
      <trkpt lat="49.3843" lon="1.45571">
        <ele>163</ele>
        <time>2015-06-13T10:38:00Z</time>
      </trkpt>
      <trkpt lat="49.38436" lon="1.45578">
        <ele>162.8</ele>
        <time>2015-06-13T10:39:14Z</time>
      </trkpt>
      <trkpt lat="49.38467" lon="1.45596">
        <ele>162.6</ele>
        <time>2015-06-13T10:39:26Z</time>
      </trkpt>
      <trkpt lat="49.38501" lon="1.45634">
        <ele>162.4</ele>
        <time>2015-06-13T10:39:44Z</time>
      </trkpt>
      <trkpt lat="49.3852" lon="1.45642">
        <ele>162</ele>
        <time>2015-06-13T10:39:48Z</time>
      </trkpt>
      <trkpt lat="49.38629" lon="1.45728">
        <ele>143.8</ele>
        <time>2015-06-13T10:40:13Z</time>
      </trkpt>
      <trkpt lat="49.38643" lon="1.45747">
        <ele>139.8</ele>
        <time>2015-06-13T10:40:17Z</time>
      </trkpt>
      <trkpt lat="49.38666" lon="1.45801">
        <ele>136.8</ele>
        <time>2015-06-13T10:40:24Z</time>
      </trkpt>
      <trkpt lat="49.38669" lon="1.45806">
        <ele>138.4</ele>
        <time>2015-06-13T10:40:26Z</time>
      </trkpt>
      <trkpt lat="49.38682" lon="1.45839">
        <ele>148.6</ele>
        <time>2015-06-13T10:40:41Z</time>
      </trkpt>
      <trkpt lat="49.3869" lon="1.45855">
        <ele>150.4</ele>
        <time>2015-06-13T10:40:49Z</time>
      </trkpt>
      <trkpt lat="49.38692" lon="1.45856">
        <ele>150.6</ele>
        <time>2015-06-13T10:40:50Z</time>
      </trkpt>
      <trkpt lat="49.38921" lon="1.46405">
        <ele>164.4</ele>
        <time>2015-06-13T10:44:56Z</time>
      </trkpt>
      <trkpt lat="49.38871" lon="1.46609">
        <ele>166.2</ele>
        <time>2015-06-13T10:45:39Z</time>
      </trkpt>
      <trkpt lat="49.38862" lon="1.46633">
        <ele>167.2</ele>
        <time>2015-06-13T10:45:45Z</time>
      </trkpt>
      <trkpt lat="49.38852" lon="1.46673">
        <ele>167.8</ele>
        <time>2015-06-13T10:45:57Z</time>
      </trkpt>
      <trkpt lat="49.38843" lon="1.46762">
        <ele>167.8</ele>
        <time>2015-06-13T10:46:23Z</time>
      </trkpt>
      <trkpt lat="49.38845" lon="1.4692">
        <ele>167.4</ele>
        <time>2015-06-13T10:47:04Z</time>
      </trkpt>
      <trkpt lat="49.38846" lon="1.46937">
        <ele>166.8</ele>
        <time>2015-06-13T10:47:09Z</time>
      </trkpt>
      <trkpt lat="49.38844" lon="1.46951">
        <ele>166.6</ele>
        <time>2015-06-13T10:47:15Z</time>
      </trkpt>
      <trkpt lat="49.38844" lon="1.46952">
        <ele>166.4</ele>
        <time>2015-06-13T10:47:22Z</time>
      </trkpt>
      <trkpt lat="49.38844" lon="1.46952">
        <ele>165.8</ele>
        <time>2015-06-13T10:47:55Z</time>
      </trkpt>
      <trkpt lat="49.38844" lon="1.46952">
        <ele>165.8</ele>
        <time>2015-06-13T10:47:56Z</time>
      </trkpt>
      <trkpt lat="49.38847" lon="1.46961">
        <ele>166.2</ele>
        <time>2015-06-13T10:48:00Z</time>
      </trkpt>
      <trkpt lat="49.39018" lon="1.47001">
        <ele>159.4</ele>
        <time>2015-06-13T10:48:31Z</time>
      </trkpt>
      <trkpt lat="49.39082" lon="1.47024">
        <ele>155.4</ele>
        <time>2015-06-13T10:48:40Z</time>
      </trkpt>
      <trkpt lat="49.39095" lon="1.47035">
        <ele>154.2</ele>
        <time>2015-06-13T10:48:43Z</time>
      </trkpt>
      <trkpt lat="49.39102" lon="1.47062">
        <ele>153.6</ele>
        <time>2015-06-13T10:48:46Z</time>
      </trkpt>
      <trkpt lat="49.39138" lon="1.47135">
        <ele>156.6</ele>
        <time>2015-06-13T10:48:56Z</time>
      </trkpt>
      <trkpt lat="49.39189" lon="1.47325">
        <ele>158.6</ele>
        <time>2015-06-13T10:49:21Z</time>
      </trkpt>
      <trkpt lat="49.39205" lon="1.47346">
        <ele>158.6</ele>
        <time>2015-06-13T10:49:25Z</time>
      </trkpt>
      <trkpt lat="49.39418" lon="1.47506">
        <ele>154</ele>
        <time>2015-06-13T10:50:04Z</time>
      </trkpt>
      <trkpt lat="49.39467" lon="1.47561">
        <ele>152</ele>
        <time>2015-06-13T10:50:13Z</time>
      </trkpt>
      <trkpt lat="49.39573" lon="1.47694">
        <ele>143.2</ele>
        <time>2015-06-13T10:50:31Z</time>
      </trkpt>
      <trkpt lat="49.3959" lon="1.47711">
        <ele>142.6</ele>
        <time>2015-06-13T10:50:34Z</time>
      </trkpt>
      <trkpt lat="49.39593" lon="1.47715">
        <ele>142</ele>
        <time>2015-06-13T10:50:36Z</time>
      </trkpt>
      <trkpt lat="49.39593" lon="1.47717">
        <ele>141.8</ele>
        <time>2015-06-13T10:50:37Z</time>
      </trkpt>
      <trkpt lat="49.39593" lon="1.47717">
        <ele>141.6</ele>
        <time>2015-06-13T10:50:41Z</time>
      </trkpt>
      <trkpt lat="49.39583" lon="1.47722">
        <ele>141.8</ele>
        <time>2015-06-13T10:50:50Z</time>
      </trkpt>
      <trkpt lat="49.39578" lon="1.47725">
        <ele>141.6</ele>
        <time>2015-06-13T10:51:03Z</time>
      </trkpt>
      <trkpt lat="49.39575" lon="1.47734">
        <ele>142</ele>
        <time>2015-06-13T10:51:07Z</time>
      </trkpt>
      <trkpt lat="49.39559" lon="1.47899">
        <ele>147.2</ele>
        <time>2015-06-13T10:51:38Z</time>
      </trkpt>
      <trkpt lat="49.3956" lon="1.47945">
        <ele>147.4</ele>
        <time>2015-06-13T10:51:45Z</time>
      </trkpt>
      <trkpt lat="49.39555" lon="1.47981">
        <ele>147.4</ele>
        <time>2015-06-13T10:51:51Z</time>
      </trkpt>
      <trkpt lat="49.39539" lon="1.48024">
        <ele>146.4</ele>
        <time>2015-06-13T10:51:58Z</time>
      </trkpt>
      <trkpt lat="49.39524" lon="1.48041">
        <ele>145.8</ele>
        <time>2015-06-13T10:52:02Z</time>
      </trkpt>
      <trkpt lat="49.39504" lon="1.48048">
        <ele>146</ele>
        <time>2015-06-13T10:52:07Z</time>
      </trkpt>
      <trkpt lat="49.39484" lon="1.48087">
        <ele>143.6</ele>
        <time>2015-06-13T10:52:15Z</time>
      </trkpt>
      <trkpt lat="49.39479" lon="1.481">
        <ele>142</ele>
        <time>2015-06-13T10:52:18Z</time>
      </trkpt>
      <trkpt lat="49.3947" lon="1.48109">
        <ele>139.8</ele>
        <time>2015-06-13T10:52:21Z</time>
      </trkpt>
      <trkpt lat="49.3947" lon="1.48126">
        <ele>137.2</ele>
        <time>2015-06-13T10:52:24Z</time>
      </trkpt>
      <trkpt lat="49.39475" lon="1.48145">
        <ele>134</ele>
        <time>2015-06-13T10:52:27Z</time>
      </trkpt>
      <trkpt lat="49.39477" lon="1.4816">
        <ele>131.8</ele>
        <time>2015-06-13T10:52:30Z</time>
      </trkpt>
      <trkpt lat="49.39471" lon="1.48162">
        <ele>130.6</ele>
        <time>2015-06-13T10:52:32Z</time>
      </trkpt>
      <trkpt lat="49.39452" lon="1.48161">
        <ele>131</ele>
        <time>2015-06-13T10:52:37Z</time>
      </trkpt>
      <trkpt lat="49.39428" lon="1.48165">
        <ele>132.4</ele>
        <time>2015-06-13T10:52:44Z</time>
      </trkpt>
      <trkpt lat="49.39303" lon="1.48211">
        <ele>142</ele>
        <time>2015-06-13T10:53:24Z</time>
      </trkpt>
      <trkpt lat="49.39301" lon="1.48212">
        <ele>142.2</ele>
        <time>2015-06-13T10:53:25Z</time>
      </trkpt>
      <trkpt lat="49.39283" lon="1.48217">
        <ele>143.2</ele>
        <time>2015-06-13T10:53:32Z</time>
      </trkpt>
      <trkpt lat="49.39281" lon="1.48229">
        <ele>143.2</ele>
        <time>2015-06-13T10:53:36Z</time>
      </trkpt>
      <trkpt lat="49.39296" lon="1.48254">
        <ele>145.4</ele>
        <time>2015-06-13T10:53:45Z</time>
      </trkpt>
      <trkpt lat="49.39305" lon="1.48277">
        <ele>148.4</ele>
        <time>2015-06-13T10:53:54Z</time>
      </trkpt>
      <trkpt lat="49.39338" lon="1.4834">
        <ele>149.8</ele>
        <time>2015-06-13T10:54:11Z</time>
      </trkpt>
      <trkpt lat="49.39349" lon="1.4834">
        <ele>150.8</ele>
        <time>2015-06-13T10:54:18Z</time>
      </trkpt>
      <trkpt lat="49.39346" lon="1.48332">
        <ele>149.8</ele>
        <time>2015-06-13T10:54:22Z</time>
      </trkpt>
      <trkpt lat="49.3934" lon="1.48333">
        <ele>149.8</ele>
        <time>2015-06-13T10:54:27Z</time>
      </trkpt>
      <trkpt lat="49.39338" lon="1.48342">
        <ele>150</ele>
        <time>2015-06-13T10:54:32Z</time>
      </trkpt>
      <trkpt lat="49.39348" lon="1.48353">
        <ele>150.4</ele>
        <time>2015-06-13T10:54:39Z</time>
      </trkpt>
      <trkpt lat="49.39353" lon="1.4835">
        <ele>151</ele>
        <time>2015-06-13T10:54:41Z</time>
      </trkpt>
      <trkpt lat="49.39356" lon="1.48329">
        <ele>151</ele>
        <time>2015-06-13T10:54:46Z</time>
      </trkpt>
      <trkpt lat="49.39343" lon="1.48331">
        <ele>150.2</ele>
        <time>2015-06-13T10:54:52Z</time>
      </trkpt>
      <trkpt lat="49.39331" lon="1.48319">
        <ele>150.4</ele>
        <time>2015-06-13T10:54:57Z</time>
      </trkpt>
      <trkpt lat="49.39326" lon="1.48317">
        <ele>150.2</ele>
        <time>2015-06-13T10:55:01Z</time>
      </trkpt>
      <trkpt lat="49.39327" lon="1.48313">
        <ele>150</ele>
        <time>2015-06-13T10:55:11Z</time>
      </trkpt>
      <trkpt lat="49.3933" lon="1.4832">
        <ele>150</ele>
        <time>2015-06-13T10:55:26Z</time>
      </trkpt>
      <trkpt lat="49.39351" lon="1.4835">
        <ele>150.6</ele>
        <time>2015-06-13T10:55:42Z</time>
      </trkpt>
      <trkpt lat="49.39354" lon="1.48368">
        <ele>150.6</ele>
        <time>2015-06-13T10:55:47Z</time>
      </trkpt>
      <trkpt lat="49.39377" lon="1.48455">
        <ele>151.6</ele>
        <time>2015-06-13T10:56:03Z</time>
      </trkpt>
      <trkpt lat="49.39379" lon="1.48474">
        <ele>152</ele>
        <time>2015-06-13T10:56:06Z</time>
      </trkpt>
      <trkpt lat="49.39383" lon="1.48492">
        <ele>152</ele>
        <time>2015-06-13T10:56:09Z</time>
      </trkpt>
      <trkpt lat="49.394" lon="1.48633">
        <ele>152.6</ele>
        <time>2015-06-13T10:56:33Z</time>
      </trkpt>
      <trkpt lat="49.39406" lon="1.48768">
        <ele>150.8</ele>
        <time>2015-06-13T10:56:56Z</time>
      </trkpt>
      <trkpt lat="49.39409" lon="1.4879">
        <ele>150.6</ele>
        <time>2015-06-13T10:56:59Z</time>
      </trkpt>
      <trkpt lat="49.39411" lon="1.48867">
        <ele>147.4</ele>
        <time>2015-06-13T10:57:11Z</time>
      </trkpt>
      <trkpt lat="49.39415" lon="1.48891">
        <ele>144.6</ele>
        <time>2015-06-13T10:57:16Z</time>
      </trkpt>
      <trkpt lat="49.39415" lon="1.48898">
        <ele>143.6</ele>
        <time>2015-06-13T10:57:20Z</time>
      </trkpt>
      <trkpt lat="49.39417" lon="1.48901">
        <ele>143.4</ele>
        <time>2015-06-13T10:57:28Z</time>
      </trkpt>
      <trkpt lat="49.39421" lon="1.48906">
        <ele>141.4</ele>
        <time>2015-06-13T10:57:37Z</time>
      </trkpt>
      <trkpt lat="49.39416" lon="1.48911">
        <ele>139.4</ele>
        <time>2015-06-13T10:57:42Z</time>
      </trkpt>
      <trkpt lat="49.39416" lon="1.48911">
        <ele>138.2</ele>
        <time>2015-06-13T10:57:48Z</time>
      </trkpt>
      <trkpt lat="49.39413" lon="1.48917">
        <ele>138.8</ele>
        <time>2015-06-13T10:58:03Z</time>
      </trkpt>
      <trkpt lat="49.39411" lon="1.48919">
        <ele>140.6</ele>
        <time>2015-06-13T10:58:13Z</time>
      </trkpt>
      <trkpt lat="49.39407" lon="1.48924">
        <ele>142.6</ele>
        <time>2015-06-13T10:58:31Z</time>
      </trkpt>
      <trkpt lat="49.39406" lon="1.48934">
        <ele>144</ele>
        <time>2015-06-13T10:58:40Z</time>
      </trkpt>
      <trkpt lat="49.39408" lon="1.4894">
        <ele>145.2</ele>
        <time>2015-06-13T10:58:47Z</time>
      </trkpt>
      <trkpt lat="49.39411" lon="1.48947">
        <ele>146</ele>
        <time>2015-06-13T10:58:54Z</time>
      </trkpt>
      <trkpt lat="49.39412" lon="1.48961">
        <ele>146.6</ele>
        <time>2015-06-13T10:59:01Z</time>
      </trkpt>
      <trkpt lat="49.39414" lon="1.48972">
        <ele>147.8</ele>
        <time>2015-06-13T10:59:09Z</time>
      </trkpt>
      <trkpt lat="49.39414" lon="1.48982">
        <ele>147.8</ele>
        <time>2015-06-13T10:59:23Z</time>
      </trkpt>
      <trkpt lat="49.39418" lon="1.48997">
        <ele>147.8</ele>
        <time>2015-06-13T10:59:27Z</time>
      </trkpt>
      <trkpt lat="49.39448" lon="1.49056">
        <ele>149.2</ele>
        <time>2015-06-13T10:59:46Z</time>
      </trkpt>
      <trkpt lat="49.39473" lon="1.49076">
        <ele>150.4</ele>
        <time>2015-06-13T11:00:03Z</time>
      </trkpt>
      <trkpt lat="49.39476" lon="1.49075">
        <ele>150.2</ele>
        <time>2015-06-13T11:01:02Z</time>
      </trkpt>
      <trkpt lat="49.39686" lon="1.48938">
        <ele>146.6</ele>
        <time>2015-06-13T11:01:54Z</time>
      </trkpt>
      <trkpt lat="49.39697" lon="1.48929">
        <ele>146.6</ele>
        <time>2015-06-13T11:01:59Z</time>
      </trkpt>
      <trkpt lat="49.39705" lon="1.48925">
        <ele>146.4</ele>
        <time>2015-06-13T11:02:06Z</time>
      </trkpt>
      <trkpt lat="49.39716" lon="1.48916">
        <ele>146.2</ele>
        <time>2015-06-13T11:02:10Z</time>
      </trkpt>
      <trkpt lat="49.39742" lon="1.4889">
        <ele>145.4</ele>
        <time>2015-06-13T11:02:17Z</time>
      </trkpt>
      <trkpt lat="49.39823" lon="1.48767">
        <ele>142.2</ele>
        <time>2015-06-13T11:02:40Z</time>
      </trkpt>
      <trkpt lat="49.39831" lon="1.4875">
        <ele>142</ele>
        <time>2015-06-13T11:02:44Z</time>
      </trkpt>
      <trkpt lat="49.39834" lon="1.48709">
        <ele>140</ele>
        <time>2015-06-13T11:02:51Z</time>
      </trkpt>
      <trkpt lat="49.3984" lon="1.48684">
        <ele>138</ele>
        <time>2015-06-13T11:02:54Z</time>
      </trkpt>
      <trkpt lat="49.39935" lon="1.48439">
        <ele>121.6</ele>
        <time>2015-06-13T11:03:17Z</time>
      </trkpt>
      <trkpt lat="49.39957" lon="1.48399">
        <ele>119.8</ele>
        <time>2015-06-13T11:03:21Z</time>
      </trkpt>
      <trkpt lat="49.39984" lon="1.48361">
        <ele>117.8</ele>
        <time>2015-06-13T11:03:26Z</time>
      </trkpt>
      <trkpt lat="49.39995" lon="1.4834">
        <ele>115.8</ele>
        <time>2015-06-13T11:03:30Z</time>
      </trkpt>
      <trkpt lat="49.40023" lon="1.48257">
        <ele>109.4</ele>
        <time>2015-06-13T11:03:40Z</time>
      </trkpt>
      <trkpt lat="49.40031" lon="1.48184">
        <ele>105</ele>
        <time>2015-06-13T11:03:46Z</time>
      </trkpt>
      <trkpt lat="49.40031" lon="1.48142">
        <ele>103</ele>
        <time>2015-06-13T11:03:49Z</time>
      </trkpt>
      <trkpt lat="49.40023" lon="1.48098">
        <ele>101.4</ele>
        <time>2015-06-13T11:03:52Z</time>
      </trkpt>
      <trkpt lat="49.40019" lon="1.48085">
        <ele>101</ele>
        <time>2015-06-13T11:03:53Z</time>
      </trkpt>
      <trkpt lat="49.39976" lon="1.48002">
        <ele>98.2</ele>
        <time>2015-06-13T11:04:01Z</time>
      </trkpt>
      <trkpt lat="49.39969" lon="1.47979">
        <ele>97.6</ele>
        <time>2015-06-13T11:04:03Z</time>
      </trkpt>
      <trkpt lat="49.39965" lon="1.47945">
        <ele>96.6</ele>
        <time>2015-06-13T11:04:06Z</time>
      </trkpt>
      <trkpt lat="49.39968" lon="1.47877">
        <ele>97.2</ele>
        <time>2015-06-13T11:04:13Z</time>
      </trkpt>
      <trkpt lat="49.39963" lon="1.47841">
        <ele>97.6</ele>
        <time>2015-06-13T11:04:19Z</time>
      </trkpt>
      <trkpt lat="49.39958" lon="1.47836">
        <ele>97.6</ele>
        <time>2015-06-13T11:04:21Z</time>
      </trkpt>
      <trkpt lat="49.39952" lon="1.47839">
        <ele>97.2</ele>
        <time>2015-06-13T11:04:23Z</time>
      </trkpt>
      <trkpt lat="49.3992" lon="1.47872">
        <ele>101.6</ele>
        <time>2015-06-13T11:04:36Z</time>
      </trkpt>
      <trkpt lat="49.39904" lon="1.47885">
        <ele>103.4</ele>
        <time>2015-06-13T11:04:44Z</time>
      </trkpt>
      <trkpt lat="49.39903" lon="1.47887">
        <ele>103.6</ele>
        <time>2015-06-13T11:04:45Z</time>
      </trkpt>
      <trkpt lat="49.39905" lon="1.47901">
        <ele>104.4</ele>
        <time>2015-06-13T11:04:50Z</time>
      </trkpt>
      <trkpt lat="49.39917" lon="1.47906">
        <ele>104.4</ele>
        <time>2015-06-13T11:04:56Z</time>
      </trkpt>
      <trkpt lat="49.39933" lon="1.47898">
        <ele>104</ele>
        <time>2015-06-13T11:05:03Z</time>
      </trkpt>
      <trkpt lat="49.39934" lon="1.47896">
        <ele>103.8</ele>
        <time>2015-06-13T11:05:07Z</time>
      </trkpt>
      <trkpt lat="49.39934" lon="1.47901">
        <ele>100</ele>
        <time>2015-06-13T12:01:57Z</time>
      </trkpt>
      <trkpt lat="49.39933" lon="1.47901">
        <ele>100.2</ele>
        <time>2015-06-13T12:02:06Z</time>
      </trkpt>
      <trkpt lat="49.39932" lon="1.47904">
        <ele>100</ele>
        <time>2015-06-13T12:02:11Z</time>
      </trkpt>
      <trkpt lat="49.39934" lon="1.47905">
        <ele>100</ele>
        <time>2015-06-13T12:02:25Z</time>
      </trkpt>
      <trkpt lat="49.39934" lon="1.47905">
        <ele>100.2</ele>
        <time>2015-06-13T12:02:26Z</time>
      </trkpt>
      <trkpt lat="49.39934" lon="1.47912">
        <ele>99.6</ele>
        <time>2015-06-13T12:02:30Z</time>
      </trkpt>
      <trkpt lat="49.39928" lon="1.47916">
        <ele>99.2</ele>
        <time>2015-06-13T12:02:36Z</time>
      </trkpt>
      <trkpt lat="49.39919" lon="1.47917">
        <ele>99.2</ele>
        <time>2015-06-13T12:02:41Z</time>
      </trkpt>
      <trkpt lat="49.39908" lon="1.47911">
        <ele>100.4</ele>
        <time>2015-06-13T12:02:47Z</time>
      </trkpt>
      <trkpt lat="49.39897" lon="1.47892">
        <ele>100.8</ele>
        <time>2015-06-13T12:02:55Z</time>
      </trkpt>
      <trkpt lat="49.39891" lon="1.47869">
        <ele>101.4</ele>
        <time>2015-06-13T12:03:02Z</time>
      </trkpt>
      <trkpt lat="49.39885" lon="1.47834">
        <ele>102.2</ele>
        <time>2015-06-13T12:03:11Z</time>
      </trkpt>
      <trkpt lat="49.39867" lon="1.47808">
        <ele>103.6</ele>
        <time>2015-06-13T12:03:20Z</time>
      </trkpt>
      <trkpt lat="49.39858" lon="1.47796">
        <ele>104.4</ele>
        <time>2015-06-13T12:03:25Z</time>
      </trkpt>
      <trkpt lat="49.39823" lon="1.47738">
        <ele>102.2</ele>
        <time>2015-06-13T12:03:41Z</time>
      </trkpt>
      <trkpt lat="49.39813" lon="1.47728">
        <ele>101.8</ele>
        <time>2015-06-13T12:03:47Z</time>
      </trkpt>
      <trkpt lat="49.398" lon="1.47698">
        <ele>101.6</ele>
        <time>2015-06-13T12:03:57Z</time>
      </trkpt>
      <trkpt lat="49.39795" lon="1.47665">
        <ele>101.2</ele>
        <time>2015-06-13T12:04:03Z</time>
      </trkpt>
      <trkpt lat="49.398" lon="1.47582">
        <ele>98.6</ele>
        <time>2015-06-13T12:04:14Z</time>
      </trkpt>
      <trkpt lat="49.39798" lon="1.47569">
        <ele>98.4</ele>
        <time>2015-06-13T12:04:18Z</time>
      </trkpt>
      <trkpt lat="49.39787" lon="1.47558">
        <ele>97.8</ele>
        <time>2015-06-13T12:04:23Z</time>
      </trkpt>
      <trkpt lat="49.39787" lon="1.47542">
        <ele>98.2</ele>
        <time>2015-06-13T12:04:26Z</time>
      </trkpt>
      <trkpt lat="49.39793" lon="1.47526">
        <ele>97.4</ele>
        <time>2015-06-13T12:04:29Z</time>
      </trkpt>
      <trkpt lat="49.39799" lon="1.47501">
        <ele>96</ele>
        <time>2015-06-13T12:04:33Z</time>
      </trkpt>
      <trkpt lat="49.39791" lon="1.47443">
        <ele>95</ele>
        <time>2015-06-13T12:04:42Z</time>
      </trkpt>
      <trkpt lat="49.398" lon="1.47406">
        <ele>93.6</ele>
        <time>2015-06-13T12:04:49Z</time>
      </trkpt>
      <trkpt lat="49.39803" lon="1.47404">
        <ele>93.6</ele>
        <time>2015-06-13T12:04:50Z</time>
      </trkpt>
      <trkpt lat="49.39836" lon="1.47369">
        <ele>89.6</ele>
        <time>2015-06-13T12:05:02Z</time>
      </trkpt>
      <trkpt lat="49.39851" lon="1.47367">
        <ele>87.8</ele>
        <time>2015-06-13T12:05:06Z</time>
      </trkpt>
      <trkpt lat="49.39863" lon="1.47362">
        <ele>87</ele>
        <time>2015-06-13T12:05:08Z</time>
      </trkpt>
      <trkpt lat="49.39876" lon="1.47351">
        <ele>87.2</ele>
        <time>2015-06-13T12:05:11Z</time>
      </trkpt>
      <trkpt lat="49.3989" lon="1.47322">
        <ele>86.4</ele>
        <time>2015-06-13T12:05:15Z</time>
      </trkpt>
      <trkpt lat="49.39898" lon="1.47218">
        <ele>85</ele>
        <time>2015-06-13T12:05:29Z</time>
      </trkpt>
      <trkpt lat="49.39898" lon="1.47171">
        <ele>84</ele>
        <time>2015-06-13T12:05:34Z</time>
      </trkpt>
      <trkpt lat="49.39831" lon="1.46947">
        <ele>76.2</ele>
        <time>2015-06-13T12:05:55Z</time>
      </trkpt>
      <trkpt lat="49.39817" lon="1.46815">
        <ele>75</ele>
        <time>2015-06-13T12:06:07Z</time>
      </trkpt>
      <trkpt lat="49.39823" lon="1.46739">
        <ele>74.8</ele>
        <time>2015-06-13T12:06:16Z</time>
      </trkpt>
      <trkpt lat="49.39818" lon="1.4672">
        <ele>75</ele>
        <time>2015-06-13T12:06:19Z</time>
      </trkpt>
      <trkpt lat="49.3982" lon="1.46702">
        <ele>75.4</ele>
        <time>2015-06-13T12:06:22Z</time>
      </trkpt>
      <trkpt lat="49.39826" lon="1.46687">
        <ele>75.6</ele>
        <time>2015-06-13T12:06:25Z</time>
      </trkpt>
      <trkpt lat="49.39825" lon="1.46645">
        <ele>74.2</ele>
        <time>2015-06-13T12:06:32Z</time>
      </trkpt>
      <trkpt lat="49.39822" lon="1.46637">
        <ele>74</ele>
        <time>2015-06-13T12:06:33Z</time>
      </trkpt>
      <trkpt lat="49.39764" lon="1.46512">
        <ele>73.2</ele>
        <time>2015-06-13T12:06:50Z</time>
      </trkpt>
      <trkpt lat="49.39736" lon="1.46427">
        <ele>73.8</ele>
        <time>2015-06-13T12:07:04Z</time>
      </trkpt>
      <trkpt lat="49.39716" lon="1.46387">
        <ele>74</ele>
        <time>2015-06-13T12:07:12Z</time>
      </trkpt>
      <trkpt lat="49.39683" lon="1.4634">
        <ele>76.4</ele>
        <time>2015-06-13T12:07:25Z</time>
      </trkpt>
      <trkpt lat="49.39656" lon="1.4631">
        <ele>76.8</ele>
        <time>2015-06-13T12:07:34Z</time>
      </trkpt>
      <trkpt lat="49.39626" lon="1.46289">
        <ele>77.6</ele>
        <time>2015-06-13T12:07:43Z</time>
      </trkpt>
      <trkpt lat="49.39593" lon="1.46258">
        <ele>78.8</ele>
        <time>2015-06-13T12:07:55Z</time>
      </trkpt>
      <trkpt lat="49.39534" lon="1.46136">
        <ele>79.8</ele>
        <time>2015-06-13T12:08:24Z</time>
      </trkpt>
      <trkpt lat="49.39527" lon="1.46104">
        <ele>79.6</ele>
        <time>2015-06-13T12:08:29Z</time>
      </trkpt>
      <trkpt lat="49.39504" lon="1.45883">
        <ele>74.8</ele>
        <time>2015-06-13T12:08:57Z</time>
      </trkpt>
      <trkpt lat="49.39481" lon="1.45792">
        <ele>77</ele>
        <time>2015-06-13T12:09:13Z</time>
      </trkpt>
      <trkpt lat="49.39465" lon="1.45611">
        <ele>77.8</ele>
        <time>2015-06-13T12:09:43Z</time>
      </trkpt>
      <trkpt lat="49.39385" lon="1.45343">
        <ele>77</ele>
        <time>2015-06-13T12:10:25Z</time>
      </trkpt>
      <trkpt lat="49.39292" lon="1.45132">
        <ele>78.8</ele>
        <time>2015-06-13T12:11:04Z</time>
      </trkpt>
      <trkpt lat="49.39283" lon="1.451">
        <ele>79.8</ele>
        <time>2015-06-13T12:11:11Z</time>
      </trkpt>
      <trkpt lat="49.39256" lon="1.45042">
        <ele>80.8</ele>
        <time>2015-06-13T12:11:23Z</time>
      </trkpt>
      <trkpt lat="49.39229" lon="1.44947">
        <ele>82</ele>
        <time>2015-06-13T12:11:42Z</time>
      </trkpt>
      <trkpt lat="49.39196" lon="1.44795">
        <ele>90.8</ele>
        <time>2015-06-13T12:12:30Z</time>
      </trkpt>
      <trkpt lat="49.39193" lon="1.44775">
        <ele>93</ele>
        <time>2015-06-13T12:12:38Z</time>
      </trkpt>
      <trkpt lat="49.39189" lon="1.44764">
        <ele>94</ele>
        <time>2015-06-13T12:12:42Z</time>
      </trkpt>
      <trkpt lat="49.39187" lon="1.4474">
        <ele>95.8</ele>
        <time>2015-06-13T12:12:51Z</time>
      </trkpt>
      <trkpt lat="49.39182" lon="1.44728">
        <ele>97.4</ele>
        <time>2015-06-13T12:12:58Z</time>
      </trkpt>
      <trkpt lat="49.3917" lon="1.44654">
        <ele>105</ele>
        <time>2015-06-13T12:13:31Z</time>
      </trkpt>
      <trkpt lat="49.39166" lon="1.44645">
        <ele>106.2</ele>
        <time>2015-06-13T12:13:38Z</time>
      </trkpt>
      <trkpt lat="49.39158" lon="1.44622">
        <ele>108.6</ele>
        <time>2015-06-13T12:13:54Z</time>
      </trkpt>
      <trkpt lat="49.39157" lon="1.4462">
        <ele>109.4</ele>
        <time>2015-06-13T12:14:05Z</time>
      </trkpt>
      <trkpt lat="49.39141" lon="1.44588">
        <ele>112.6</ele>
        <time>2015-06-13T12:15:58Z</time>
      </trkpt>
      <trkpt lat="49.3914" lon="1.44587">
        <ele>112.8</ele>
        <time>2015-06-13T12:15:59Z</time>
      </trkpt>
      <trkpt lat="49.39134" lon="1.44571">
        <ele>114.8</ele>
        <time>2015-06-13T12:16:07Z</time>
      </trkpt>
      <trkpt lat="49.3912" lon="1.44547">
        <ele>118</ele>
        <time>2015-06-13T12:16:21Z</time>
      </trkpt>
      <trkpt lat="49.3912" lon="1.44548">
        <ele>118.2</ele>
        <time>2015-06-13T12:16:22Z</time>
      </trkpt>
      <trkpt lat="49.39093" lon="1.44492">
        <ele>123.4</ele>
        <time>2015-06-13T12:16:50Z</time>
      </trkpt>
      <trkpt lat="49.39073" lon="1.44385">
        <ele>132.4</ele>
        <time>2015-06-13T12:17:37Z</time>
      </trkpt>
      <trkpt lat="49.39073" lon="1.44386">
        <ele>132.6</ele>
        <time>2015-06-13T12:17:38Z</time>
      </trkpt>
      <trkpt lat="49.39069" lon="1.44376">
        <ele>133.8</ele>
        <time>2015-06-13T12:17:43Z</time>
      </trkpt>
      <trkpt lat="49.39065" lon="1.44355">
        <ele>135.2</ele>
        <time>2015-06-13T12:17:53Z</time>
      </trkpt>
      <trkpt lat="49.39066" lon="1.44344">
        <ele>135.8</ele>
        <time>2015-06-13T12:17:58Z</time>
      </trkpt>
      <trkpt lat="49.39068" lon="1.44342">
        <ele>136.2</ele>
        <time>2015-06-13T12:18:05Z</time>
      </trkpt>
      <trkpt lat="49.39066" lon="1.44346">
        <ele>136.2</ele>
        <time>2015-06-13T12:18:14Z</time>
      </trkpt>
      <trkpt lat="49.39074" lon="1.44431">
        <ele>128.4</ele>
        <time>2015-06-13T12:18:35Z</time>
      </trkpt>
      <trkpt lat="49.39085" lon="1.44481">
        <ele>125</ele>
        <time>2015-06-13T12:18:42Z</time>
      </trkpt>
      <trkpt lat="49.3914" lon="1.44586">
        <ele>113.6</ele>
        <time>2015-06-13T12:19:02Z</time>
      </trkpt>
      <trkpt lat="49.39149" lon="1.4461">
        <ele>109</ele>
        <time>2015-06-13T12:22:24Z</time>
      </trkpt>
      <trkpt lat="49.3915" lon="1.44609">
        <ele>108</ele>
        <time>2015-06-13T12:24:15Z</time>
      </trkpt>
      <trkpt lat="49.3915" lon="1.4461">
        <ele>108.4</ele>
        <time>2015-06-13T12:25:57Z</time>
      </trkpt>
      <trkpt lat="49.3915" lon="1.44609">
        <ele>109</ele>
        <time>2015-06-13T12:27:39Z</time>
      </trkpt>
      <trkpt lat="49.39151" lon="1.4461">
        <ele>109.6</ele>
        <time>2015-06-13T12:28:53Z</time>
      </trkpt>
      <trkpt lat="49.3915" lon="1.44608">
        <ele>110.2</ele>
        <time>2015-06-13T12:29:50Z</time>
      </trkpt>
      <trkpt lat="49.39108" lon="1.4452">
        <ele>120.2</ele>
        <time>2015-06-13T12:30:33Z</time>
      </trkpt>
      <trkpt lat="49.39107" lon="1.44514">
        <ele>121.2</ele>
        <time>2015-06-13T12:30:36Z</time>
      </trkpt>
      <trkpt lat="49.391" lon="1.44504">
        <ele>122.2</ele>
        <time>2015-06-13T12:30:41Z</time>
      </trkpt>
      <trkpt lat="49.39093" lon="1.44487">
        <ele>124.4</ele>
        <time>2015-06-13T12:30:53Z</time>
      </trkpt>
      <trkpt lat="49.39087" lon="1.44454">
        <ele>127.2</ele>
        <time>2015-06-13T12:31:11Z</time>
      </trkpt>
      <trkpt lat="49.39079" lon="1.44427">
        <ele>129.8</ele>
        <time>2015-06-13T12:31:28Z</time>
      </trkpt>
      <trkpt lat="49.39067" lon="1.44366">
        <ele>135</ele>
        <time>2015-06-13T12:32:03Z</time>
      </trkpt>
      <trkpt lat="49.39066" lon="1.44348">
        <ele>136.4</ele>
        <time>2015-06-13T12:32:12Z</time>
      </trkpt>
      <trkpt lat="49.39068" lon="1.44345">
        <ele>136.6</ele>
        <time>2015-06-13T12:32:14Z</time>
      </trkpt>
      <trkpt lat="49.3907" lon="1.44346">
        <ele>136.8</ele>
        <time>2015-06-13T12:32:16Z</time>
      </trkpt>
      <trkpt lat="49.39078" lon="1.44356">
        <ele>136.8</ele>
        <time>2015-06-13T12:32:22Z</time>
      </trkpt>
      <trkpt lat="49.39107" lon="1.44386">
        <ele>137.6</ele>
        <time>2015-06-13T12:32:35Z</time>
      </trkpt>
      <trkpt lat="49.39118" lon="1.44402">
        <ele>137.8</ele>
        <time>2015-06-13T12:32:41Z</time>
      </trkpt>
      <trkpt lat="49.39204" lon="1.44489">
        <ele>141.8</ele>
        <time>2015-06-13T12:33:15Z</time>
      </trkpt>
      <trkpt lat="49.39217" lon="1.44497">
        <ele>142.8</ele>
        <time>2015-06-13T12:33:21Z</time>
      </trkpt>
      <trkpt lat="49.39232" lon="1.44514">
        <ele>143.4</ele>
        <time>2015-06-13T12:33:28Z</time>
      </trkpt>
      <trkpt lat="49.39275" lon="1.4454">
        <ele>146.2</ele>
        <time>2015-06-13T12:33:45Z</time>
      </trkpt>
      <trkpt lat="49.39316" lon="1.44585">
        <ele>148.2</ele>
        <time>2015-06-13T12:34:02Z</time>
      </trkpt>
      <trkpt lat="49.39339" lon="1.44599">
        <ele>149.4</ele>
        <time>2015-06-13T12:34:10Z</time>
      </trkpt>
      <trkpt lat="49.3936" lon="1.44608">
        <ele>151</ele>
        <time>2015-06-13T12:34:18Z</time>
      </trkpt>
      <trkpt lat="49.3938" lon="1.4462">
        <ele>152.6</ele>
        <time>2015-06-13T12:34:27Z</time>
      </trkpt>
      <trkpt lat="49.39409" lon="1.44628">
        <ele>154.6</ele>
        <time>2015-06-13T12:34:37Z</time>
      </trkpt>
      <trkpt lat="49.39432" lon="1.44622">
        <ele>155.2</ele>
        <time>2015-06-13T12:34:46Z</time>
      </trkpt>
      <trkpt lat="49.39454" lon="1.44621">
        <ele>156</ele>
        <time>2015-06-13T12:34:53Z</time>
      </trkpt>
      <trkpt lat="49.39472" lon="1.44618">
        <ele>156.8</ele>
        <time>2015-06-13T12:35:00Z</time>
      </trkpt>
      <trkpt lat="49.3953" lon="1.4459">
        <ele>158.4</ele>
        <time>2015-06-13T12:35:19Z</time>
      </trkpt>
      <trkpt lat="49.3955" lon="1.44576">
        <ele>161.2</ele>
        <time>2015-06-13T12:35:26Z</time>
      </trkpt>
      <trkpt lat="49.39576" lon="1.44549">
        <ele>159</ele>
        <time>2015-06-13T12:35:36Z</time>
      </trkpt>
      <trkpt lat="49.39574" lon="1.44528">
        <ele>158.4</ele>
        <time>2015-06-13T12:35:40Z</time>
      </trkpt>
      <trkpt lat="49.3957" lon="1.44512">
        <ele>158</ele>
        <time>2015-06-13T12:35:45Z</time>
      </trkpt>
      <trkpt lat="49.3957" lon="1.4451">
        <ele>156.2</ele>
        <time>2015-06-13T12:35:49Z</time>
      </trkpt>
      <trkpt lat="49.3957" lon="1.44509">
        <ele>157.8</ele>
        <time>2015-06-13T12:37:03Z</time>
      </trkpt>
      <trkpt lat="49.39572" lon="1.445">
        <ele>157.6</ele>
        <time>2015-06-13T12:37:10Z</time>
      </trkpt>
      <trkpt lat="49.39571" lon="1.44476">
        <ele>157.2</ele>
        <time>2015-06-13T12:37:14Z</time>
      </trkpt>
      <trkpt lat="49.3956" lon="1.44416">
        <ele>155.4</ele>
        <time>2015-06-13T12:37:22Z</time>
      </trkpt>
      <trkpt lat="49.39541" lon="1.44345">
        <ele>152.8</ele>
        <time>2015-06-13T12:37:33Z</time>
      </trkpt>
      <trkpt lat="49.39526" lon="1.4432">
        <ele>152</ele>
        <time>2015-06-13T12:37:38Z</time>
      </trkpt>
      <trkpt lat="49.39516" lon="1.44301">
        <ele>152.6</ele>
        <time>2015-06-13T12:37:43Z</time>
      </trkpt>
      <trkpt lat="49.39539" lon="1.4427">
        <ele>151</ele>
        <time>2015-06-13T12:37:52Z</time>
      </trkpt>
      <trkpt lat="49.39548" lon="1.44225">
        <ele>149.4</ele>
        <time>2015-06-13T12:37:59Z</time>
      </trkpt>
      <trkpt lat="49.39558" lon="1.44132">
        <ele>149.6</ele>
        <time>2015-06-13T12:38:11Z</time>
      </trkpt>
      <trkpt lat="49.39567" lon="1.43568">
        <ele>139.8</ele>
        <time>2015-06-13T12:39:11Z</time>
      </trkpt>
      <trkpt lat="49.39562" lon="1.43531">
        <ele>138.4</ele>
        <time>2015-06-13T12:39:14Z</time>
      </trkpt>
      <trkpt lat="49.39538" lon="1.43459">
        <ele>134.8</ele>
        <time>2015-06-13T12:39:20Z</time>
      </trkpt>
      <trkpt lat="49.39472" lon="1.43165">
        <ele>128.8</ele>
        <time>2015-06-13T12:39:49Z</time>
      </trkpt>
      <trkpt lat="49.39459" lon="1.43157">
        <ele>128.8</ele>
        <time>2015-06-13T12:39:53Z</time>
      </trkpt>
      <trkpt lat="49.39433" lon="1.43131">
        <ele>127.8</ele>
        <time>2015-06-13T12:40:01Z</time>
      </trkpt>
      <trkpt lat="49.39415" lon="1.43109">
        <ele>127.8</ele>
        <time>2015-06-13T12:40:07Z</time>
      </trkpt>
      <trkpt lat="49.39403" lon="1.43109">
        <ele>127.6</ele>
        <time>2015-06-13T12:40:09Z</time>
      </trkpt>
      <trkpt lat="49.39386" lon="1.43114">
        <ele>127</ele>
        <time>2015-06-13T12:40:12Z</time>
      </trkpt>
      <trkpt lat="49.39356" lon="1.43127">
        <ele>126.8</ele>
        <time>2015-06-13T12:40:18Z</time>
      </trkpt>
      <trkpt lat="49.39306" lon="1.43133">
        <ele>125.4</ele>
        <time>2015-06-13T12:40:26Z</time>
      </trkpt>
      <trkpt lat="49.39287" lon="1.43121">
        <ele>125</ele>
        <time>2015-06-13T12:40:29Z</time>
      </trkpt>
      <trkpt lat="49.39272" lon="1.431">
        <ele>124.4</ele>
        <time>2015-06-13T12:40:32Z</time>
      </trkpt>
      <trkpt lat="49.39171" lon="1.42898">
        <ele>119</ele>
        <time>2015-06-13T12:40:55Z</time>
      </trkpt>
      <trkpt lat="49.39126" lon="1.4284">
        <ele>119</ele>
        <time>2015-06-13T12:41:03Z</time>
      </trkpt>
      <trkpt lat="49.39109" lon="1.42806">
        <ele>118.8</ele>
        <time>2015-06-13T12:41:07Z</time>
      </trkpt>
      <trkpt lat="49.39087" lon="1.4281">
        <ele>118</ele>
        <time>2015-06-13T12:41:11Z</time>
      </trkpt>
      <trkpt lat="49.3905" lon="1.42844">
        <ele>118</ele>
        <time>2015-06-13T12:41:18Z</time>
      </trkpt>
      <trkpt lat="49.39003" lon="1.42896">
        <ele>117.8</ele>
        <time>2015-06-13T12:41:27Z</time>
      </trkpt>
      <trkpt lat="49.38931" lon="1.42996">
        <ele>114</ele>
        <time>2015-06-13T12:41:40Z</time>
      </trkpt>
      <trkpt lat="49.38871" lon="1.43055">
        <ele>111.6</ele>
        <time>2015-06-13T12:41:49Z</time>
      </trkpt>
      <trkpt lat="49.3885" lon="1.43085">
        <ele>112.6</ele>
        <time>2015-06-13T12:41:54Z</time>
      </trkpt>
      <trkpt lat="49.38838" lon="1.43088">
        <ele>112.6</ele>
        <time>2015-06-13T12:41:57Z</time>
      </trkpt>
      <trkpt lat="49.38767" lon="1.42976">
        <ele>111</ele>
        <time>2015-06-13T12:42:15Z</time>
      </trkpt>
      <trkpt lat="49.38765" lon="1.4297">
        <ele>110.8</ele>
        <time>2015-06-13T12:42:16Z</time>
      </trkpt>
      <trkpt lat="49.38764" lon="1.42952">
        <ele>110.2</ele>
        <time>2015-06-13T12:42:19Z</time>
      </trkpt>
      <trkpt lat="49.38775" lon="1.42924">
        <ele>109.6</ele>
        <time>2015-06-13T12:42:24Z</time>
      </trkpt>
      <trkpt lat="49.38777" lon="1.42904">
        <ele>108.2</ele>
        <time>2015-06-13T12:42:29Z</time>
      </trkpt>
      <trkpt lat="49.3877" lon="1.42765">
        <ele>106.2</ele>
        <time>2015-06-13T12:43:00Z</time>
      </trkpt>
      <trkpt lat="49.38783" lon="1.42669">
        <ele>104.4</ele>
        <time>2015-06-13T12:43:24Z</time>
      </trkpt>
      <trkpt lat="49.38915" lon="1.42121">
        <ele>95</ele>
        <time>2015-06-13T12:44:23Z</time>
      </trkpt>
      <trkpt lat="49.38956" lon="1.41676">
        <ele>88.4</ele>
        <time>2015-06-13T12:45:02Z</time>
      </trkpt>
      <trkpt lat="49.39135" lon="1.41299">
        <ele>80.6</ele>
        <time>2015-06-13T12:45:38Z</time>
      </trkpt>
      <trkpt lat="49.39141" lon="1.41277">
        <ele>80</ele>
        <time>2015-06-13T12:45:40Z</time>
      </trkpt>
      <trkpt lat="49.39145" lon="1.41233">
        <ele>79.2</ele>
        <time>2015-06-13T12:45:44Z</time>
      </trkpt>
      <trkpt lat="49.39121" lon="1.41064">
        <ele>77.8</ele>
        <time>2015-06-13T12:45:58Z</time>
      </trkpt>
      <trkpt lat="49.39122" lon="1.41015">
        <ele>77.2</ele>
        <time>2015-06-13T12:46:02Z</time>
      </trkpt>
      <trkpt lat="49.39181" lon="1.40746">
        <ele>71.2</ele>
        <time>2015-06-13T12:46:26Z</time>
      </trkpt>
      <trkpt lat="49.39184" lon="1.40404">
        <ele>64.2</ele>
        <time>2015-06-13T12:46:57Z</time>
      </trkpt>
      <trkpt lat="49.39183" lon="1.40387">
        <ele>64.2</ele>
        <time>2015-06-13T12:47:01Z</time>
      </trkpt>
      <trkpt lat="49.39186" lon="1.40356">
        <ele>63.6</ele>
        <time>2015-06-13T12:47:06Z</time>
      </trkpt>
      <trkpt lat="49.39195" lon="1.40342">
        <ele>63.4</ele>
        <time>2015-06-13T12:47:09Z</time>
      </trkpt>
      <trkpt lat="49.3921" lon="1.40343">
        <ele>63</ele>
        <time>2015-06-13T12:47:13Z</time>
      </trkpt>
      <trkpt lat="49.39288" lon="1.4036">
        <ele>65.4</ele>
        <time>2015-06-13T12:47:34Z</time>
      </trkpt>
      <trkpt lat="49.39351" lon="1.40366">
        <ele>67.2</ele>
        <time>2015-06-13T12:47:48Z</time>
      </trkpt>
      <trkpt lat="49.39401" lon="1.40366">
        <ele>68.2</ele>
        <time>2015-06-13T12:47:58Z</time>
      </trkpt>
      <trkpt lat="49.39438" lon="1.40369">
        <ele>69</ele>
        <time>2015-06-13T12:48:06Z</time>
      </trkpt>
      <trkpt lat="49.39461" lon="1.40376">
        <ele>69.2</ele>
        <time>2015-06-13T12:48:11Z</time>
      </trkpt>
      <trkpt lat="49.39483" lon="1.4039">
        <ele>69.4</ele>
        <time>2015-06-13T12:48:16Z</time>
      </trkpt>
      <trkpt lat="49.39503" lon="1.40415">
        <ele>65.2</ele>
        <time>2015-06-13T12:48:21Z</time>
      </trkpt>
      <trkpt lat="49.39512" lon="1.40433">
        <ele>68.6</ele>
        <time>2015-06-13T12:48:24Z</time>
      </trkpt>
      <trkpt lat="49.39598" lon="1.40709">
        <ele>72.6</ele>
        <time>2015-06-13T12:49:03Z</time>
      </trkpt>
      <trkpt lat="49.39674" lon="1.408">
        <ele>77.6</ele>
        <time>2015-06-13T12:49:30Z</time>
      </trkpt>
      <trkpt lat="49.39698" lon="1.40855">
        <ele>81.6</ele>
        <time>2015-06-13T12:49:43Z</time>
      </trkpt>
      <trkpt lat="49.39704" lon="1.4088">
        <ele>82.8</ele>
        <time>2015-06-13T12:49:48Z</time>
      </trkpt>
      <trkpt lat="49.39706" lon="1.40907">
        <ele>83.8</ele>
        <time>2015-06-13T12:49:54Z</time>
      </trkpt>
      <trkpt lat="49.39697" lon="1.40977">
        <ele>86.2</ele>
        <time>2015-06-13T12:50:12Z</time>
      </trkpt>
      <trkpt lat="49.3967" lon="1.41072">
        <ele>89.8</ele>
        <time>2015-06-13T12:50:48Z</time>
      </trkpt>
      <trkpt lat="49.39659" lon="1.41088">
        <ele>90.6</ele>
        <time>2015-06-13T12:50:55Z</time>
      </trkpt>
      <trkpt lat="49.39644" lon="1.41134">
        <ele>94.6</ele>
        <time>2015-06-13T12:51:14Z</time>
      </trkpt>
      <trkpt lat="49.39644" lon="1.41142">
        <ele>94.8</ele>
        <time>2015-06-13T12:51:16Z</time>
      </trkpt>
      <trkpt lat="49.39645" lon="1.41166">
        <ele>94.8</ele>
        <time>2015-06-13T12:51:22Z</time>
      </trkpt>
      <trkpt lat="49.39652" lon="1.41184">
        <ele>95.4</ele>
        <time>2015-06-13T12:51:29Z</time>
      </trkpt>
      <trkpt lat="49.39683" lon="1.41212">
        <ele>97.8</ele>
        <time>2015-06-13T12:51:44Z</time>
      </trkpt>
      <trkpt lat="49.39699" lon="1.41223">
        <ele>99.2</ele>
        <time>2015-06-13T12:51:51Z</time>
      </trkpt>
      <trkpt lat="49.39713" lon="1.41232">
        <ele>99.6</ele>
        <time>2015-06-13T12:51:57Z</time>
      </trkpt>
      <trkpt lat="49.3972" lon="1.41238">
        <ele>100</ele>
        <time>2015-06-13T12:52:02Z</time>
      </trkpt>
      <trkpt lat="49.39726" lon="1.41239">
        <ele>100</ele>
        <time>2015-06-13T12:52:09Z</time>
      </trkpt>
      <trkpt lat="49.39727" lon="1.41241">
        <ele>100.2</ele>
        <time>2015-06-13T12:52:17Z</time>
      </trkpt>
      <trkpt lat="49.39732" lon="1.41245">
        <ele>100.2</ele>
        <time>2015-06-13T12:52:23Z</time>
      </trkpt>
      <trkpt lat="49.39736" lon="1.41245">
        <ele>100.8</ele>
        <time>2015-06-13T12:52:31Z</time>
      </trkpt>
      <trkpt lat="49.39739" lon="1.4125">
        <ele>101.2</ele>
        <time>2015-06-13T12:52:46Z</time>
      </trkpt>
      <trkpt lat="49.39753" lon="1.41254">
        <ele>102.2</ele>
        <time>2015-06-13T12:52:55Z</time>
      </trkpt>
      <trkpt lat="49.39755" lon="1.41255">
        <ele>102.2</ele>
        <time>2015-06-13T12:52:56Z</time>
      </trkpt>
      <trkpt lat="49.3979" lon="1.41286">
        <ele>104.4</ele>
        <time>2015-06-13T12:53:17Z</time>
      </trkpt>
      <trkpt lat="49.39809" lon="1.413">
        <ele>105.8</ele>
        <time>2015-06-13T12:53:30Z</time>
      </trkpt>
      <trkpt lat="49.39816" lon="1.41294">
        <ele>106.6</ele>
        <time>2015-06-13T12:53:35Z</time>
      </trkpt>
      <trkpt lat="49.39816" lon="1.41292">
        <ele>106.8</ele>
        <time>2015-06-13T12:53:36Z</time>
      </trkpt>
      <trkpt lat="49.39822" lon="1.41285">
        <ele>108.8</ele>
        <time>2015-06-13T12:53:42Z</time>
      </trkpt>
      <trkpt lat="49.39828" lon="1.41283">
        <ele>108.4</ele>
        <time>2015-06-13T12:53:46Z</time>
      </trkpt>
      <trkpt lat="49.39831" lon="1.4128">
        <ele>112.6</ele>
        <time>2015-06-13T12:53:48Z</time>
      </trkpt>
      <trkpt lat="49.39834" lon="1.41279">
        <ele>111.6</ele>
        <time>2015-06-13T12:53:50Z</time>
      </trkpt>
      <trkpt lat="49.3986" lon="1.41257">
        <ele>115.2</ele>
        <time>2015-06-13T12:54:08Z</time>
      </trkpt>
      <trkpt lat="49.39861" lon="1.41255">
        <ele>115.4</ele>
        <time>2015-06-13T12:54:09Z</time>
      </trkpt>
      <trkpt lat="49.39877" lon="1.41246">
        <ele>117.2</ele>
        <time>2015-06-13T12:54:20Z</time>
      </trkpt>
      <trkpt lat="49.39965" lon="1.41242">
        <ele>119.8</ele>
        <time>2015-06-13T12:55:08Z</time>
      </trkpt>
      <trkpt lat="49.39988" lon="1.41235">
        <ele>120.4</ele>
        <time>2015-06-13T12:55:16Z</time>
      </trkpt>
      <trkpt lat="49.40106" lon="1.41209">
        <ele>122.4</ele>
        <time>2015-06-13T12:55:59Z</time>
      </trkpt>
      <trkpt lat="49.40149" lon="1.41206">
        <ele>123.4</ele>
        <time>2015-06-13T12:56:13Z</time>
      </trkpt>
      <trkpt lat="49.40161" lon="1.41203">
        <ele>123.4</ele>
        <time>2015-06-13T12:56:16Z</time>
      </trkpt>
      <trkpt lat="49.4019" lon="1.41201">
        <ele>124</ele>
        <time>2015-06-13T12:56:25Z</time>
      </trkpt>
      <trkpt lat="49.40211" lon="1.41194">
        <ele>123.6</ele>
        <time>2015-06-13T12:56:31Z</time>
      </trkpt>
      <trkpt lat="49.40364" lon="1.41158">
        <ele>122.6</ele>
        <time>2015-06-13T12:57:20Z</time>
      </trkpt>
      <trkpt lat="49.40387" lon="1.41161">
        <ele>122.6</ele>
        <time>2015-06-13T12:57:26Z</time>
      </trkpt>
      <trkpt lat="49.40393" lon="1.41171">
        <ele>122.6</ele>
        <time>2015-06-13T12:57:29Z</time>
      </trkpt>
      <trkpt lat="49.40398" lon="1.41195">
        <ele>123</ele>
        <time>2015-06-13T12:57:36Z</time>
      </trkpt>
      <trkpt lat="49.404" lon="1.41223">
        <ele>123.4</ele>
        <time>2015-06-13T12:57:45Z</time>
      </trkpt>
      <trkpt lat="49.40406" lon="1.41226">
        <ele>123.8</ele>
        <time>2015-06-13T12:57:47Z</time>
      </trkpt>
      <trkpt lat="49.40477" lon="1.41223">
        <ele>123.8</ele>
        <time>2015-06-13T12:58:08Z</time>
      </trkpt>
      <trkpt lat="49.40503" lon="1.41219">
        <ele>124</ele>
        <time>2015-06-13T12:58:14Z</time>
      </trkpt>
      <trkpt lat="49.40529" lon="1.41205">
        <ele>123.8</ele>
        <time>2015-06-13T12:58:20Z</time>
      </trkpt>
      <trkpt lat="49.40547" lon="1.41208">
        <ele>123.4</ele>
        <time>2015-06-13T12:58:25Z</time>
      </trkpt>
      <trkpt lat="49.40572" lon="1.41204">
        <ele>123</ele>
        <time>2015-06-13T12:58:31Z</time>
      </trkpt>
      <trkpt lat="49.4063" lon="1.41199">
        <ele>121.4</ele>
        <time>2015-06-13T12:58:44Z</time>
      </trkpt>
      <trkpt lat="49.40649" lon="1.41196">
        <ele>120.8</ele>
        <time>2015-06-13T12:58:48Z</time>
      </trkpt>
      <trkpt lat="49.40675" lon="1.41196">
        <ele>119.8</ele>
        <time>2015-06-13T12:58:53Z</time>
      </trkpt>
      <trkpt lat="49.40687" lon="1.41192">
        <ele>118.8</ele>
        <time>2015-06-13T12:58:57Z</time>
      </trkpt>
      <trkpt lat="49.40697" lon="1.41196">
        <ele>117.4</ele>
        <time>2015-06-13T12:59:02Z</time>
      </trkpt>
      <trkpt lat="49.40709" lon="1.41195">
        <ele>116.8</ele>
        <time>2015-06-13T12:59:05Z</time>
      </trkpt>
      <trkpt lat="49.40857" lon="1.41177">
        <ele>122.2</ele>
        <time>2015-06-13T12:59:43Z</time>
      </trkpt>
      <trkpt lat="49.40877" lon="1.4118">
        <ele>122.2</ele>
        <time>2015-06-13T12:59:48Z</time>
      </trkpt>
      <trkpt lat="49.40902" lon="1.41173">
        <ele>122.6</ele>
        <time>2015-06-13T12:59:54Z</time>
      </trkpt>
      <trkpt lat="49.40983" lon="1.4116">
        <ele>123</ele>
        <time>2015-06-13T13:00:16Z</time>
      </trkpt>
      <trkpt lat="49.41045" lon="1.41162">
        <ele>123.4</ele>
        <time>2015-06-13T13:00:31Z</time>
      </trkpt>
      <trkpt lat="49.41126" lon="1.41154">
        <ele>123.4</ele>
        <time>2015-06-13T13:00:51Z</time>
      </trkpt>
      <trkpt lat="49.41335" lon="1.41117">
        <ele>129.4</ele>
        <time>2015-06-13T13:01:45Z</time>
      </trkpt>
      <trkpt lat="49.41434" lon="1.41085">
        <ele>132</ele>
        <time>2015-06-13T13:02:16Z</time>
      </trkpt>
      <trkpt lat="49.41469" lon="1.4106">
        <ele>132.2</ele>
        <time>2015-06-13T13:02:28Z</time>
      </trkpt>
      <trkpt lat="49.41749" lon="1.40804">
        <ele>134.4</ele>
        <time>2015-06-13T13:03:46Z</time>
      </trkpt>
      <trkpt lat="49.41848" lon="1.40737">
        <ele>138.6</ele>
        <time>2015-06-13T13:04:19Z</time>
      </trkpt>
      <trkpt lat="49.41879" lon="1.4072">
        <ele>139.6</ele>
        <time>2015-06-13T13:04:29Z</time>
      </trkpt>
      <trkpt lat="49.41888" lon="1.40724">
        <ele>140.2</ele>
        <time>2015-06-13T13:04:32Z</time>
      </trkpt>
      <trkpt lat="49.41923" lon="1.40762">
        <ele>142.8</ele>
        <time>2015-06-13T13:04:48Z</time>
      </trkpt>
      <trkpt lat="49.41942" lon="1.40777">
        <ele>144.2</ele>
        <time>2015-06-13T13:04:55Z</time>
      </trkpt>
      <trkpt lat="49.41956" lon="1.408">
        <ele>145.4</ele>
        <time>2015-06-13T13:05:01Z</time>
      </trkpt>
      <trkpt lat="49.42012" lon="1.40854">
        <ele>148.8</ele>
        <time>2015-06-13T13:05:26Z</time>
      </trkpt>
      <trkpt lat="49.42014" lon="1.4086">
        <ele>149.2</ele>
        <time>2015-06-13T13:05:29Z</time>
      </trkpt>
      <trkpt lat="49.4201" lon="1.4087">
        <ele>149</ele>
        <time>2015-06-13T13:05:34Z</time>
      </trkpt>
      <trkpt lat="49.42013" lon="1.40875">
        <ele>149</ele>
        <time>2015-06-13T13:05:38Z</time>
      </trkpt>
      <trkpt lat="49.42021" lon="1.40869">
        <ele>149.4</ele>
        <time>2015-06-13T13:05:42Z</time>
      </trkpt>
      <trkpt lat="49.4203" lon="1.40866">
        <ele>150</ele>
        <time>2015-06-13T13:05:47Z</time>
      </trkpt>
      <trkpt lat="49.42086" lon="1.40871">
        <ele>150.8</ele>
        <time>2015-06-13T13:06:06Z</time>
      </trkpt>
      <trkpt lat="49.42314" lon="1.40934">
        <ele>151.4</ele>
        <time>2015-06-13T13:07:10Z</time>
      </trkpt>
      <trkpt lat="49.42384" lon="1.40898">
        <ele>149.8</ele>
        <time>2015-06-13T13:07:27Z</time>
      </trkpt>
      <trkpt lat="49.42403" lon="1.40888">
        <ele>148.8</ele>
        <time>2015-06-13T13:07:31Z</time>
      </trkpt>
      <trkpt lat="49.42427" lon="1.4088">
        <ele>147.4</ele>
        <time>2015-06-13T13:07:35Z</time>
      </trkpt>
      <trkpt lat="49.42517" lon="1.40834">
        <ele>133.8</ele>
        <time>2015-06-13T13:07:52Z</time>
      </trkpt>
      <trkpt lat="49.42531" lon="1.40828">
        <ele>131</ele>
        <time>2015-06-13T13:07:55Z</time>
      </trkpt>
      <trkpt lat="49.4255" lon="1.40816">
        <ele>128.6</ele>
        <time>2015-06-13T13:08:00Z</time>
      </trkpt>
      <trkpt lat="49.4255" lon="1.40798">
        <ele>127.8</ele>
        <time>2015-06-13T13:08:04Z</time>
      </trkpt>
      <trkpt lat="49.42528" lon="1.40724">
        <ele>126.2</ele>
        <time>2015-06-13T13:08:17Z</time>
      </trkpt>
      <trkpt lat="49.42517" lon="1.40695">
        <ele>125.4</ele>
        <time>2015-06-13T13:08:22Z</time>
      </trkpt>
      <trkpt lat="49.42512" lon="1.40668">
        <ele>124.2</ele>
        <time>2015-06-13T13:08:26Z</time>
      </trkpt>
      <trkpt lat="49.42515" lon="1.40645">
        <ele>123</ele>
        <time>2015-06-13T13:08:29Z</time>
      </trkpt>
      <trkpt lat="49.42525" lon="1.40615">
        <ele>122</ele>
        <time>2015-06-13T13:08:33Z</time>
      </trkpt>
      <trkpt lat="49.42537" lon="1.40595">
        <ele>121.2</ele>
        <time>2015-06-13T13:08:36Z</time>
      </trkpt>
      <trkpt lat="49.4256" lon="1.40564">
        <ele>120.2</ele>
        <time>2015-06-13T13:08:42Z</time>
      </trkpt>
      <trkpt lat="49.42627" lon="1.40498">
        <ele>117.2</ele>
        <time>2015-06-13T13:08:56Z</time>
      </trkpt>
      <trkpt lat="49.42645" lon="1.40468">
        <ele>116.2</ele>
        <time>2015-06-13T13:09:00Z</time>
      </trkpt>
      <trkpt lat="49.42696" lon="1.40357">
        <ele>113.8</ele>
        <time>2015-06-13T13:09:12Z</time>
      </trkpt>
      <trkpt lat="49.42723" lon="1.40313">
        <ele>112.4</ele>
        <time>2015-06-13T13:09:18Z</time>
      </trkpt>
      <trkpt lat="49.42748" lon="1.40294">
        <ele>111.2</ele>
        <time>2015-06-13T13:09:22Z</time>
      </trkpt>
      <trkpt lat="49.42755" lon="1.4029">
        <ele>111.4</ele>
        <time>2015-06-13T13:09:23Z</time>
      </trkpt>
      <trkpt lat="49.42787" lon="1.40285">
        <ele>110.2</ele>
        <time>2015-06-13T13:09:28Z</time>
      </trkpt>
      <trkpt lat="49.42814" lon="1.40297">
        <ele>109.6</ele>
        <time>2015-06-13T13:09:32Z</time>
      </trkpt>
      <trkpt lat="49.42876" lon="1.40349">
        <ele>107</ele>
        <time>2015-06-13T13:09:43Z</time>
      </trkpt>
      <trkpt lat="49.42915" lon="1.40375">
        <ele>106</ele>
        <time>2015-06-13T13:09:50Z</time>
      </trkpt>
      <trkpt lat="49.42943" lon="1.40389">
        <ele>105.2</ele>
        <time>2015-06-13T13:09:55Z</time>
      </trkpt>
      <trkpt lat="49.4295" lon="1.40391">
        <ele>105</ele>
        <time>2015-06-13T13:09:56Z</time>
      </trkpt>
      <trkpt lat="49.42975" lon="1.40392">
        <ele>104</ele>
        <time>2015-06-13T13:10:00Z</time>
      </trkpt>
      <trkpt lat="49.43005" lon="1.40377">
        <ele>103.6</ele>
        <time>2015-06-13T13:10:04Z</time>
      </trkpt>
      <trkpt lat="49.43035" lon="1.4035">
        <ele>103.2</ele>
        <time>2015-06-13T13:10:09Z</time>
      </trkpt>
      <trkpt lat="49.43072" lon="1.4031">
        <ele>102.6</ele>
        <time>2015-06-13T13:10:16Z</time>
      </trkpt>
      <trkpt lat="49.43141" lon="1.40185">
        <ele>101.2</ele>
        <time>2015-06-13T13:10:33Z</time>
      </trkpt>
      <trkpt lat="49.43163" lon="1.40161">
        <ele>99.2</ele>
        <time>2015-06-13T13:10:38Z</time>
      </trkpt>
      <trkpt lat="49.43169" lon="1.4016">
        <ele>99.2</ele>
        <time>2015-06-13T13:10:39Z</time>
      </trkpt>
      <trkpt lat="49.43182" lon="1.40165">
        <ele>98.6</ele>
        <time>2015-06-13T13:10:41Z</time>
      </trkpt>
      <trkpt lat="49.4321" lon="1.40184">
        <ele>97.6</ele>
        <time>2015-06-13T13:10:45Z</time>
      </trkpt>
      <trkpt lat="49.43291" lon="1.40261">
        <ele>95.8</ele>
        <time>2015-06-13T13:10:58Z</time>
      </trkpt>
      <trkpt lat="49.43373" lon="1.40319">
        <ele>93</ele>
        <time>2015-06-13T13:11:13Z</time>
      </trkpt>
      <trkpt lat="49.43417" lon="1.40359">
        <ele>91.6</ele>
        <time>2015-06-13T13:11:20Z</time>
      </trkpt>
      <trkpt lat="49.43439" lon="1.40373">
        <ele>91</ele>
        <time>2015-06-13T13:11:23Z</time>
      </trkpt>
      <trkpt lat="49.43475" lon="1.40385">
        <ele>90.6</ele>
        <time>2015-06-13T13:11:30Z</time>
      </trkpt>
      <trkpt lat="49.43482" lon="1.40385">
        <ele>90.4</ele>
        <time>2015-06-13T13:11:34Z</time>
      </trkpt>
      <trkpt lat="49.43491" lon="1.40396">
        <ele>90.2</ele>
        <time>2015-06-13T13:11:47Z</time>
      </trkpt>
      <trkpt lat="49.43492" lon="1.40403">
        <ele>90.4</ele>
        <time>2015-06-13T13:12:07Z</time>
      </trkpt>
      <trkpt lat="49.43503" lon="1.40426">
        <ele>90.2</ele>
        <time>2015-06-13T13:12:19Z</time>
      </trkpt>
      <trkpt lat="49.43512" lon="1.40459">
        <ele>92.8</ele>
        <time>2015-06-13T13:12:31Z</time>
      </trkpt>
      <trkpt lat="49.43513" lon="1.40468">
        <ele>93.2</ele>
        <time>2015-06-13T13:12:34Z</time>
      </trkpt>
      <trkpt lat="49.43535" lon="1.40517">
        <ele>95.8</ele>
        <time>2015-06-13T13:12:52Z</time>
      </trkpt>
      <trkpt lat="49.43552" lon="1.40565">
        <ele>99.2</ele>
        <time>2015-06-13T13:13:09Z</time>
      </trkpt>
      <trkpt lat="49.43556" lon="1.40562">
        <ele>101</ele>
        <time>2015-06-13T13:13:19Z</time>
      </trkpt>
      <trkpt lat="49.43554" lon="1.40531">
        <ele>101.6</ele>
        <time>2015-06-13T13:13:33Z</time>
      </trkpt>
      <trkpt lat="49.43553" lon="1.40485">
        <ele>101.6</ele>
        <time>2015-06-13T13:13:48Z</time>
      </trkpt>
      <trkpt lat="49.43557" lon="1.40476">
        <ele>103</ele>
        <time>2015-06-13T13:13:53Z</time>
      </trkpt>
      <trkpt lat="49.43568" lon="1.40473">
        <ele>104.2</ele>
        <time>2015-06-13T13:13:59Z</time>
      </trkpt>
      <trkpt lat="49.4357" lon="1.40474">
        <ele>104.4</ele>
        <time>2015-06-13T13:14:00Z</time>
      </trkpt>
      <trkpt lat="49.43577" lon="1.40481">
        <ele>106</ele>
        <time>2015-06-13T13:14:07Z</time>
      </trkpt>
      <trkpt lat="49.43589" lon="1.40493">
        <ele>108.2</ele>
        <time>2015-06-13T13:14:16Z</time>
      </trkpt>
      <trkpt lat="49.43594" lon="1.40501">
        <ele>109.2</ele>
        <time>2015-06-13T13:14:21Z</time>
      </trkpt>
      <trkpt lat="49.43596" lon="1.40502">
        <ele>109.4</ele>
        <time>2015-06-13T13:14:23Z</time>
      </trkpt>
      <trkpt lat="49.43606" lon="1.40514">
        <ele>111.4</ele>
        <time>2015-06-13T13:14:31Z</time>
      </trkpt>
      <trkpt lat="49.43626" lon="1.40555">
        <ele>117.2</ele>
        <time>2015-06-13T13:14:53Z</time>
      </trkpt>
      <trkpt lat="49.43634" lon="1.40583">
        <ele>120.8</ele>
        <time>2015-06-13T13:15:07Z</time>
      </trkpt>
      <trkpt lat="49.43641" lon="1.406">
        <ele>123.2</ele>
        <time>2015-06-13T13:15:17Z</time>
      </trkpt>
      <trkpt lat="49.43648" lon="1.40628">
        <ele>126.2</ele>
        <time>2015-06-13T13:15:30Z</time>
      </trkpt>
      <trkpt lat="49.43647" lon="1.4063">
        <ele>126.4</ele>
        <time>2015-06-13T13:15:31Z</time>
      </trkpt>
      <trkpt lat="49.43649" lon="1.40639">
        <ele>127.4</ele>
        <time>2015-06-13T13:15:36Z</time>
      </trkpt>
      <trkpt lat="49.43649" lon="1.40656">
        <ele>128.4</ele>
        <time>2015-06-13T13:15:44Z</time>
      </trkpt>
      <trkpt lat="49.43655" lon="1.4068">
        <ele>131.4</ele>
        <time>2015-06-13T13:15:55Z</time>
      </trkpt>
      <trkpt lat="49.4366" lon="1.40695">
        <ele>134</ele>
        <time>2015-06-13T13:16:03Z</time>
      </trkpt>
      <trkpt lat="49.43661" lon="1.40698">
        <ele>134.2</ele>
        <time>2015-06-13T13:16:04Z</time>
      </trkpt>
      <trkpt lat="49.43663" lon="1.40709">
        <ele>136.2</ele>
        <time>2015-06-13T13:16:10Z</time>
      </trkpt>
      <trkpt lat="49.4367" lon="1.40716">
        <ele>138.6</ele>
        <time>2015-06-13T13:16:15Z</time>
      </trkpt>
      <trkpt lat="49.43701" lon="1.40769">
        <ele>150.2</ele>
        <time>2015-06-13T13:16:50Z</time>
      </trkpt>
      <trkpt lat="49.43703" lon="1.4077">
        <ele>150.2</ele>
        <time>2015-06-13T13:16:51Z</time>
      </trkpt>
      <trkpt lat="49.43705" lon="1.40774">
        <ele>151.2</ele>
        <time>2015-06-13T13:16:55Z</time>
      </trkpt>
      <trkpt lat="49.43711" lon="1.40781">
        <ele>152.4</ele>
        <time>2015-06-13T13:17:00Z</time>
      </trkpt>
      <trkpt lat="49.43721" lon="1.40797">
        <ele>154.4</ele>
        <time>2015-06-13T13:17:12Z</time>
      </trkpt>
      <trkpt lat="49.43729" lon="1.40806">
        <ele>155.6</ele>
        <time>2015-06-13T13:17:20Z</time>
      </trkpt>
      <trkpt lat="49.43734" lon="1.40816">
        <ele>156.6</ele>
        <time>2015-06-13T13:17:26Z</time>
      </trkpt>
      <trkpt lat="49.43746" lon="1.40836">
        <ele>158.2</ele>
        <time>2015-06-13T13:17:40Z</time>
      </trkpt>
      <trkpt lat="49.4376" lon="1.40852">
        <ele>160</ele>
        <time>2015-06-13T13:17:53Z</time>
      </trkpt>
      <trkpt lat="49.43768" lon="1.40866">
        <ele>161</ele>
        <time>2015-06-13T13:18:03Z</time>
      </trkpt>
      <trkpt lat="49.43764" lon="1.40868">
        <ele>160.8</ele>
        <time>2015-06-13T13:18:12Z</time>
      </trkpt>
      <trkpt lat="49.43767" lon="1.40869">
        <ele>161.2</ele>
        <time>2015-06-13T13:18:17Z</time>
      </trkpt>
      <trkpt lat="49.43766" lon="1.40874">
        <ele>160.8</ele>
        <time>2015-06-13T13:18:22Z</time>
      </trkpt>
      <trkpt lat="49.43769" lon="1.40869">
        <ele>161.2</ele>
        <time>2015-06-13T13:18:33Z</time>
      </trkpt>
      <trkpt lat="49.43767" lon="1.40873">
        <ele>161.2</ele>
        <time>2015-06-13T13:18:40Z</time>
      </trkpt>
      <trkpt lat="49.4377" lon="1.4087">
        <ele>161.4</ele>
        <time>2015-06-13T13:18:52Z</time>
      </trkpt>
      <trkpt lat="49.4377" lon="1.4087">
        <ele>161.6</ele>
        <time>2015-06-13T13:19:02Z</time>
      </trkpt>
      <trkpt lat="49.4377" lon="1.4087">
        <ele>162.2</ele>
        <time>2015-06-13T13:19:38Z</time>
      </trkpt>
      <trkpt lat="49.43771" lon="1.40871">
        <ele>162.2</ele>
        <time>2015-06-13T13:21:30Z</time>
      </trkpt>
      <trkpt lat="49.43772" lon="1.40871">
        <ele>162.6</ele>
        <time>2015-06-13T13:22:40Z</time>
      </trkpt>
      <trkpt lat="49.4378" lon="1.40872">
        <ele>163</ele>
        <time>2015-06-13T13:22:46Z</time>
      </trkpt>
      <trkpt lat="49.4379" lon="1.4087">
        <ele>163.4</ele>
        <time>2015-06-13T13:22:52Z</time>
      </trkpt>
      <trkpt lat="49.4391" lon="1.40874">
        <ele>164.4</ele>
        <time>2015-06-13T13:23:29Z</time>
      </trkpt>
      <trkpt lat="49.4393" lon="1.40871">
        <ele>164.4</ele>
        <time>2015-06-13T13:23:34Z</time>
      </trkpt>
      <trkpt lat="49.43955" lon="1.40876">
        <ele>163.8</ele>
        <time>2015-06-13T13:23:40Z</time>
      </trkpt>
      <trkpt lat="49.44028" lon="1.40868">
        <ele>160.8</ele>
        <time>2015-06-13T13:23:55Z</time>
      </trkpt>
      <trkpt lat="49.44055" lon="1.40876">
        <ele>159.6</ele>
        <time>2015-06-13T13:24:00Z</time>
      </trkpt>
      <trkpt lat="49.44061" lon="1.40881">
        <ele>159.4</ele>
        <time>2015-06-13T13:24:01Z</time>
      </trkpt>
      <trkpt lat="49.44086" lon="1.40904">
        <ele>158.4</ele>
        <time>2015-06-13T13:24:06Z</time>
      </trkpt>
      <trkpt lat="49.4412" lon="1.40904">
        <ele>159.6</ele>
        <time>2015-06-13T13:24:14Z</time>
      </trkpt>
      <trkpt lat="49.4416" lon="1.40886">
        <ele>162.4</ele>
        <time>2015-06-13T13:24:27Z</time>
      </trkpt>
      <trkpt lat="49.4428" lon="1.40869">
        <ele>166</ele>
        <time>2015-06-13T13:25:02Z</time>
      </trkpt>
      <trkpt lat="49.44312" lon="1.40867">
        <ele>166.2</ele>
        <time>2015-06-13T13:25:12Z</time>
      </trkpt>
      <trkpt lat="49.44319" lon="1.40771">
        <ele>165.2</ele>
        <time>2015-06-13T13:25:32Z</time>
      </trkpt>
      <trkpt lat="49.44333" lon="1.407">
        <ele>165.6</ele>
        <time>2015-06-13T13:25:44Z</time>
      </trkpt>
      <trkpt lat="49.44512" lon="1.40229">
        <ele>161.2</ele>
        <time>2015-06-13T13:26:58Z</time>
      </trkpt>
      <trkpt lat="49.44521" lon="1.40226">
        <ele>160.8</ele>
        <time>2015-06-13T13:27:01Z</time>
      </trkpt>
      <trkpt lat="49.4465" lon="1.40325">
        <ele>163.2</ele>
        <time>2015-06-13T13:27:47Z</time>
      </trkpt>
      <trkpt lat="49.44662" lon="1.40333">
        <ele>163.4</ele>
        <time>2015-06-13T13:27:51Z</time>
      </trkpt>
      <trkpt lat="49.44725" lon="1.40363">
        <ele>162.6</ele>
        <time>2015-06-13T13:28:06Z</time>
      </trkpt>
      <trkpt lat="49.44846" lon="1.40451">
        <ele>153.2</ele>
        <time>2015-06-13T13:28:38Z</time>
      </trkpt>
      <trkpt lat="49.44856" lon="1.4046">
        <ele>149</ele>
        <time>2015-06-13T13:28:40Z</time>
      </trkpt>
      <trkpt lat="49.44884" lon="1.40478">
        <ele>143</ele>
        <time>2015-06-13T13:28:45Z</time>
      </trkpt>
      <trkpt lat="49.44898" lon="1.40482">
        <ele>140.6</ele>
        <time>2015-06-13T13:28:48Z</time>
      </trkpt>
      <trkpt lat="49.44926" lon="1.40501">
        <ele>138.6</ele>
        <time>2015-06-13T13:28:55Z</time>
      </trkpt>
      <trkpt lat="49.44936" lon="1.4051">
        <ele>142</ele>
        <time>2015-06-13T13:29:00Z</time>
      </trkpt>
      <trkpt lat="49.44965" lon="1.40531">
        <ele>147.2</ele>
        <time>2015-06-13T13:29:15Z</time>
      </trkpt>
      <trkpt lat="49.45021" lon="1.4056">
        <ele>150.6</ele>
        <time>2015-06-13T13:29:43Z</time>
      </trkpt>
      <trkpt lat="49.4512" lon="1.40632">
        <ele>154.4</ele>
        <time>2015-06-13T13:30:26Z</time>
      </trkpt>
      <trkpt lat="49.45149" lon="1.40656">
        <ele>154.6</ele>
        <time>2015-06-13T13:30:39Z</time>
      </trkpt>
      <trkpt lat="49.45156" lon="1.40675">
        <ele>154.8</ele>
        <time>2015-06-13T13:30:44Z</time>
      </trkpt>
      <trkpt lat="49.45158" lon="1.40695">
        <ele>155.2</ele>
        <time>2015-06-13T13:30:50Z</time>
      </trkpt>
      <trkpt lat="49.45156" lon="1.41378">
        <ele>157.4</ele>
        <time>2015-06-13T13:32:42Z</time>
      </trkpt>
      <trkpt lat="49.45157" lon="1.41387">
        <ele>157.2</ele>
        <time>2015-06-13T13:32:44Z</time>
      </trkpt>
      <trkpt lat="49.45169" lon="1.41389">
        <ele>156.4</ele>
        <time>2015-06-13T13:32:48Z</time>
      </trkpt>
      <trkpt lat="49.4518" lon="1.41388">
        <ele>156</ele>
        <time>2015-06-13T13:32:54Z</time>
      </trkpt>
      <trkpt lat="49.45181" lon="1.41398">
        <ele>156</ele>
        <time>2015-06-13T13:32:57Z</time>
      </trkpt>
      <trkpt lat="49.45209" lon="1.41455">
        <ele>154.2</ele>
        <time>2015-06-13T13:33:11Z</time>
      </trkpt>
      <trkpt lat="49.45212" lon="1.41467">
        <ele>154</ele>
        <time>2015-06-13T13:33:13Z</time>
      </trkpt>
      <trkpt lat="49.45241" lon="1.41685">
        <ele>150.4</ele>
        <time>2015-06-13T13:33:39Z</time>
      </trkpt>
      <trkpt lat="49.4525" lon="1.41726">
        <ele>149.4</ele>
        <time>2015-06-13T13:33:44Z</time>
      </trkpt>
      <trkpt lat="49.4526" lon="1.4175">
        <ele>148</ele>
        <time>2015-06-13T13:33:47Z</time>
      </trkpt>
      <trkpt lat="49.45265" lon="1.41771">
        <ele>146.4</ele>
        <time>2015-06-13T13:33:50Z</time>
      </trkpt>
      <trkpt lat="49.45264" lon="1.4179">
        <ele>144.4</ele>
        <time>2015-06-13T13:33:53Z</time>
      </trkpt>
      <trkpt lat="49.45257" lon="1.41811">
        <ele>142</ele>
        <time>2015-06-13T13:33:57Z</time>
      </trkpt>
      <trkpt lat="49.45241" lon="1.4183">
        <ele>139.4</ele>
        <time>2015-06-13T13:34:02Z</time>
      </trkpt>
      <trkpt lat="49.45223" lon="1.41843">
        <ele>136.4</ele>
        <time>2015-06-13T13:34:07Z</time>
      </trkpt>
      <trkpt lat="49.4521" lon="1.41855">
        <ele>134.6</ele>
        <time>2015-06-13T13:34:11Z</time>
      </trkpt>
      <trkpt lat="49.45197" lon="1.41877">
        <ele>132.2</ele>
        <time>2015-06-13T13:34:15Z</time>
      </trkpt>
      <trkpt lat="49.45186" lon="1.41908">
        <ele>129.4</ele>
        <time>2015-06-13T13:34:19Z</time>
      </trkpt>
      <trkpt lat="49.45176" lon="1.42019">
        <ele>119.2</ele>
        <time>2015-06-13T13:34:29Z</time>
      </trkpt>
      <trkpt lat="49.45176" lon="1.42044">
        <ele>117.8</ele>
        <time>2015-06-13T13:34:32Z</time>
      </trkpt>
      <trkpt lat="49.45178" lon="1.42047">
        <ele>117.6</ele>
        <time>2015-06-13T13:34:33Z</time>
      </trkpt>
      <trkpt lat="49.45185" lon="1.42048">
        <ele>116.4</ele>
        <time>2015-06-13T13:34:37Z</time>
      </trkpt>
      <trkpt lat="49.45195" lon="1.42043">
        <ele>115</ele>
        <time>2015-06-13T13:34:41Z</time>
      </trkpt>
      <trkpt lat="49.45214" lon="1.42024">
        <ele>112.8</ele>
        <time>2015-06-13T13:34:48Z</time>
      </trkpt>
      <trkpt lat="49.45232" lon="1.42014">
        <ele>111.8</ele>
        <time>2015-06-13T13:34:51Z</time>
      </trkpt>
      <trkpt lat="49.45268" lon="1.42004">
        <ele>110.4</ele>
        <time>2015-06-13T13:34:56Z</time>
      </trkpt>
      <trkpt lat="49.45294" lon="1.42003">
        <ele>110</ele>
        <time>2015-06-13T13:35:00Z</time>
      </trkpt>
      <trkpt lat="49.45305" lon="1.42006">
        <ele>109.2</ele>
        <time>2015-06-13T13:35:02Z</time>
      </trkpt>
      <trkpt lat="49.45326" lon="1.42019">
        <ele>107</ele>
        <time>2015-06-13T13:35:06Z</time>
      </trkpt>
      <trkpt lat="49.45348" lon="1.42048">
        <ele>104.4</ele>
        <time>2015-06-13T13:35:11Z</time>
      </trkpt>
      <trkpt lat="49.45377" lon="1.42104">
        <ele>102</ele>
        <time>2015-06-13T13:35:18Z</time>
      </trkpt>
      <trkpt lat="49.45465" lon="1.42382">
        <ele>91.4</ele>
        <time>2015-06-13T13:35:48Z</time>
      </trkpt>
      <trkpt lat="49.45513" lon="1.42477">
        <ele>89.2</ele>
        <time>2015-06-13T13:36:00Z</time>
      </trkpt>
      <trkpt lat="49.45544" lon="1.42519">
        <ele>87</ele>
        <time>2015-06-13T13:36:06Z</time>
      </trkpt>
      <trkpt lat="49.45563" lon="1.42538">
        <ele>87</ele>
        <time>2015-06-13T13:36:09Z</time>
      </trkpt>
      <trkpt lat="49.45582" lon="1.42566">
        <ele>86.8</ele>
        <time>2015-06-13T13:36:13Z</time>
      </trkpt>
      <trkpt lat="49.45594" lon="1.42593">
        <ele>86.6</ele>
        <time>2015-06-13T13:36:17Z</time>
      </trkpt>
      <trkpt lat="49.456" lon="1.42639">
        <ele>88</ele>
        <time>2015-06-13T13:36:25Z</time>
      </trkpt>
      <trkpt lat="49.45603" lon="1.42697">
        <ele>88.8</ele>
        <time>2015-06-13T13:36:36Z</time>
      </trkpt>
      <trkpt lat="49.45571" lon="1.42945">
        <ele>90</ele>
        <time>2015-06-13T13:37:24Z</time>
      </trkpt>
      <trkpt lat="49.45611" lon="1.43223">
        <ele>92.4</ele>
        <time>2015-06-13T13:38:06Z</time>
      </trkpt>
      <trkpt lat="49.45576" lon="1.43864">
        <ele>95.2</ele>
        <time>2015-06-13T13:39:27Z</time>
      </trkpt>
      <trkpt lat="49.45552" lon="1.43995">
        <ele>94.8</ele>
        <time>2015-06-13T13:39:44Z</time>
      </trkpt>
      <trkpt lat="49.45533" lon="1.4405">
        <ele>94.6</ele>
        <time>2015-06-13T13:39:52Z</time>
      </trkpt>
      <trkpt lat="49.45504" lon="1.44096">
        <ele>95.8</ele>
        <time>2015-06-13T13:40:00Z</time>
      </trkpt>
      <trkpt lat="49.45398" lon="1.44224">
        <ele>98.8</ele>
        <time>2015-06-13T13:40:29Z</time>
      </trkpt>
      <trkpt lat="49.45371" lon="1.44263">
        <ele>100</ele>
        <time>2015-06-13T13:40:39Z</time>
      </trkpt>
      <trkpt lat="49.45376" lon="1.44286">
        <ele>101.6</ele>
        <time>2015-06-13T13:40:49Z</time>
      </trkpt>
      <trkpt lat="49.45376" lon="1.4429">
        <ele>101.8</ele>
        <time>2015-06-13T13:41:02Z</time>
      </trkpt>
      <trkpt lat="49.45374" lon="1.44297">
        <ele>102.2</ele>
        <time>2015-06-13T13:41:07Z</time>
      </trkpt>
      <trkpt lat="49.45374" lon="1.44298">
        <ele>102.8</ele>
        <time>2015-06-13T13:41:14Z</time>
      </trkpt>
      <trkpt lat="49.45375" lon="1.44296">
        <ele>103</ele>
        <time>2015-06-13T13:41:44Z</time>
      </trkpt>
      <trkpt lat="49.45374" lon="1.44294">
        <ele>100.6</ele>
        <time>2015-06-13T13:42:26Z</time>
      </trkpt>
      <trkpt lat="49.45374" lon="1.44294">
        <ele>101.4</ele>
        <time>2015-06-13T13:44:53Z</time>
      </trkpt>
      <trkpt lat="49.45375" lon="1.44295">
        <ele>102.4</ele>
        <time>2015-06-13T13:45:18Z</time>
      </trkpt>
      <trkpt lat="49.45374" lon="1.44299">
        <ele>102.8</ele>
        <time>2015-06-13T13:45:40Z</time>
      </trkpt>
      <trkpt lat="49.45374" lon="1.44299">
        <ele>102.8</ele>
        <time>2015-06-13T13:45:55Z</time>
      </trkpt>
      <trkpt lat="49.45365" lon="1.44324">
        <ele>103.4</ele>
        <time>2015-06-13T13:46:13Z</time>
      </trkpt>
      <trkpt lat="49.45364" lon="1.44325">
        <ele>103.6</ele>
        <time>2015-06-13T13:46:34Z</time>
      </trkpt>
      <trkpt lat="49.45359" lon="1.44333">
        <ele>103.6</ele>
        <time>2015-06-13T13:46:39Z</time>
      </trkpt>
      <trkpt lat="49.45348" lon="1.4436">
        <ele>102.6</ele>
        <time>2015-06-13T13:46:54Z</time>
      </trkpt>
      <trkpt lat="49.45345" lon="1.44365">
        <ele>102.8</ele>
        <time>2015-06-13T13:46:59Z</time>
      </trkpt>
      <trkpt lat="49.45344" lon="1.44403">
        <ele>105.6</ele>
        <time>2015-06-13T13:47:26Z</time>
      </trkpt>
      <trkpt lat="49.4535" lon="1.44422">
        <ele>108.2</ele>
        <time>2015-06-13T13:47:33Z</time>
      </trkpt>
      <trkpt lat="49.45357" lon="1.44436">
        <ele>111.2</ele>
        <time>2015-06-13T13:47:39Z</time>
      </trkpt>
      <trkpt lat="49.4536" lon="1.4444">
        <ele>112.6</ele>
        <time>2015-06-13T13:47:42Z</time>
      </trkpt>
      <trkpt lat="49.45365" lon="1.44445">
        <ele>113.8</ele>
        <time>2015-06-13T13:47:48Z</time>
      </trkpt>
      <trkpt lat="49.45372" lon="1.44445">
        <ele>117</ele>
        <time>2015-06-13T13:47:55Z</time>
      </trkpt>
      <trkpt lat="49.45374" lon="1.44448">
        <ele>118.2</ele>
        <time>2015-06-13T13:47:59Z</time>
      </trkpt>
      <trkpt lat="49.45376" lon="1.4445">
        <ele>118.4</ele>
        <time>2015-06-13T13:48:09Z</time>
      </trkpt>
      <trkpt lat="49.45381" lon="1.44455">
        <ele>119.4</ele>
        <time>2015-06-13T13:48:13Z</time>
      </trkpt>
      <trkpt lat="49.45385" lon="1.4446">
        <ele>120.6</ele>
        <time>2015-06-13T13:48:16Z</time>
      </trkpt>
      <trkpt lat="49.45387" lon="1.44471">
        <ele>121.8</ele>
        <time>2015-06-13T13:48:23Z</time>
      </trkpt>
      <trkpt lat="49.45379" lon="1.44483">
        <ele>123.2</ele>
        <time>2015-06-13T13:48:37Z</time>
      </trkpt>
      <trkpt lat="49.45377" lon="1.44488">
        <ele>123</ele>
        <time>2015-06-13T13:48:54Z</time>
      </trkpt>
      <trkpt lat="49.45373" lon="1.44491">
        <ele>123.8</ele>
        <time>2015-06-13T13:49:27Z</time>
      </trkpt>
      <trkpt lat="49.45363" lon="1.44504">
        <ele>123.8</ele>
        <time>2015-06-13T13:49:34Z</time>
      </trkpt>
      <trkpt lat="49.45349" lon="1.4454">
        <ele>124.4</ele>
        <time>2015-06-13T13:49:46Z</time>
      </trkpt>
      <trkpt lat="49.45332" lon="1.44611">
        <ele>128.8</ele>
        <time>2015-06-13T13:50:09Z</time>
      </trkpt>
      <trkpt lat="49.4532" lon="1.44628">
        <ele>129.8</ele>
        <time>2015-06-13T13:50:16Z</time>
      </trkpt>
      <trkpt lat="49.45309" lon="1.44666">
        <ele>132.2</ele>
        <time>2015-06-13T13:50:30Z</time>
      </trkpt>
      <trkpt lat="49.45299" lon="1.44687">
        <ele>133.4</ele>
        <time>2015-06-13T13:50:38Z</time>
      </trkpt>
      <trkpt lat="49.45295" lon="1.447">
        <ele>135</ele>
        <time>2015-06-13T13:50:44Z</time>
      </trkpt>
      <trkpt lat="49.45291" lon="1.44722">
        <ele>136.6</ele>
        <time>2015-06-13T13:50:52Z</time>
      </trkpt>
      <trkpt lat="49.45282" lon="1.44749">
        <ele>137.6</ele>
        <time>2015-06-13T13:51:02Z</time>
      </trkpt>
      <trkpt lat="49.45278" lon="1.44766">
        <ele>138.8</ele>
        <time>2015-06-13T13:51:08Z</time>
      </trkpt>
      <trkpt lat="49.45276" lon="1.44787">
        <ele>139.2</ele>
        <time>2015-06-13T13:51:14Z</time>
      </trkpt>
      <trkpt lat="49.45265" lon="1.44814">
        <ele>139.4</ele>
        <time>2015-06-13T13:51:22Z</time>
      </trkpt>
      <trkpt lat="49.45258" lon="1.44846">
        <ele>140.8</ele>
        <time>2015-06-13T13:51:35Z</time>
      </trkpt>
      <trkpt lat="49.45261" lon="1.44876">
        <ele>142</ele>
        <time>2015-06-13T13:52:06Z</time>
      </trkpt>
      <trkpt lat="49.45282" lon="1.44937">
        <ele>145.2</ele>
        <time>2015-06-13T13:52:26Z</time>
      </trkpt>
      <trkpt lat="49.45284" lon="1.4494">
        <ele>145.2</ele>
        <time>2015-06-13T13:52:32Z</time>
      </trkpt>
      <trkpt lat="49.45286" lon="1.44963">
        <ele>145.2</ele>
        <time>2015-06-13T13:52:40Z</time>
      </trkpt>
      <trkpt lat="49.45329" lon="1.45081">
        <ele>146.2</ele>
        <time>2015-06-13T13:53:05Z</time>
      </trkpt>
      <trkpt lat="49.45353" lon="1.45151">
        <ele>146.6</ele>
        <time>2015-06-13T13:53:19Z</time>
      </trkpt>
      <trkpt lat="49.45364" lon="1.45267">
        <ele>148.8</ele>
        <time>2015-06-13T13:53:41Z</time>
      </trkpt>
      <trkpt lat="49.45373" lon="1.45289">
        <ele>149.4</ele>
        <time>2015-06-13T13:53:46Z</time>
      </trkpt>
      <trkpt lat="49.45375" lon="1.45294">
        <ele>149.6</ele>
        <time>2015-06-13T13:53:47Z</time>
      </trkpt>
      <trkpt lat="49.45398" lon="1.4535">
        <ele>151.4</ele>
        <time>2015-06-13T13:54:00Z</time>
      </trkpt>
      <trkpt lat="49.45403" lon="1.45347">
        <ele>151.8</ele>
        <time>2015-06-13T13:54:02Z</time>
      </trkpt>
      <trkpt lat="49.45416" lon="1.45333">
        <ele>152.8</ele>
        <time>2015-06-13T13:54:08Z</time>
      </trkpt>
      <trkpt lat="49.45427" lon="1.45325">
        <ele>154</ele>
        <time>2015-06-13T13:54:13Z</time>
      </trkpt>
      <trkpt lat="49.45432" lon="1.4532">
        <ele>154.2</ele>
        <time>2015-06-13T13:54:15Z</time>
      </trkpt>
      <trkpt lat="49.45745" lon="1.45092">
        <ele>165.8</ele>
        <time>2015-06-13T13:55:58Z</time>
      </trkpt>
      <trkpt lat="49.45747" lon="1.45092">
        <ele>165.8</ele>
        <time>2015-06-13T13:56:02Z</time>
      </trkpt>
      <trkpt lat="49.45756" lon="1.45091">
        <ele>165.8</ele>
        <time>2015-06-13T13:56:08Z</time>
      </trkpt>
      <trkpt lat="49.45772" lon="1.45083">
        <ele>165.2</ele>
        <time>2015-06-13T13:56:14Z</time>
      </trkpt>
      <trkpt lat="49.45788" lon="1.45088">
        <ele>165.4</ele>
        <time>2015-06-13T13:56:20Z</time>
      </trkpt>
      <trkpt lat="49.45799" lon="1.45104">
        <ele>165.4</ele>
        <time>2015-06-13T13:56:26Z</time>
      </trkpt>
      <trkpt lat="49.45819" lon="1.45156">
        <ele>166.2</ele>
        <time>2015-06-13T13:56:40Z</time>
      </trkpt>
      <trkpt lat="49.45834" lon="1.45179">
        <ele>166.6</ele>
        <time>2015-06-13T13:56:46Z</time>
      </trkpt>
      <trkpt lat="49.45919" lon="1.45256">
        <ele>166.8</ele>
        <time>2015-06-13T13:57:11Z</time>
      </trkpt>
      <trkpt lat="49.45948" lon="1.4527">
        <ele>167.6</ele>
        <time>2015-06-13T13:57:18Z</time>
      </trkpt>
      <trkpt lat="49.46039" lon="1.45289">
        <ele>169.6</ele>
        <time>2015-06-13T13:57:43Z</time>
      </trkpt>
      <trkpt lat="49.46061" lon="1.45283">
        <ele>169.8</ele>
        <time>2015-06-13T13:57:50Z</time>
      </trkpt>
      <trkpt lat="49.46078" lon="1.45275">
        <ele>169.8</ele>
        <time>2015-06-13T13:57:57Z</time>
      </trkpt>
      <trkpt lat="49.4608" lon="1.45272">
        <ele>169.8</ele>
        <time>2015-06-13T13:58:01Z</time>
      </trkpt>
      <trkpt lat="49.46079" lon="1.45271">
        <ele>170.4</ele>
        <time>2015-06-13T13:58:16Z</time>
      </trkpt>
      <trkpt lat="49.46079" lon="1.4527">
        <ele>169.8</ele>
        <time>2015-06-13T13:58:39Z</time>
      </trkpt>
      <trkpt lat="49.46086" lon="1.45272">
        <ele>169.8</ele>
        <time>2015-06-13T13:58:44Z</time>
      </trkpt>
      <trkpt lat="49.46108" lon="1.45262">
        <ele>169.8</ele>
        <time>2015-06-13T13:58:55Z</time>
      </trkpt>
      <trkpt lat="49.46133" lon="1.45248">
        <ele>169.4</ele>
        <time>2015-06-13T13:59:03Z</time>
      </trkpt>
      <trkpt lat="49.46159" lon="1.45224">
        <ele>168.8</ele>
        <time>2015-06-13T13:59:09Z</time>
      </trkpt>
      <trkpt lat="49.46185" lon="1.45189">
        <ele>168.4</ele>
        <time>2015-06-13T13:59:15Z</time>
      </trkpt>
      <trkpt lat="49.46308" lon="1.4492">
        <ele>166.8</ele>
        <time>2015-06-13T13:59:49Z</time>
      </trkpt>
      <trkpt lat="49.46371" lon="1.44731">
        <ele>167</ele>
        <time>2015-06-13T14:00:12Z</time>
      </trkpt>
      <trkpt lat="49.46427" lon="1.44501">
        <ele>169</ele>
        <time>2015-06-13T14:00:46Z</time>
      </trkpt>
      <trkpt lat="49.46439" lon="1.44469">
        <ele>168.4</ele>
        <time>2015-06-13T14:00:53Z</time>
      </trkpt>
      <trkpt lat="49.46437" lon="1.44461">
        <ele>168.4</ele>
        <time>2015-06-13T14:00:55Z</time>
      </trkpt>
      <trkpt lat="49.46357" lon="1.44415">
        <ele>165.8</ele>
        <time>2015-06-13T14:01:12Z</time>
      </trkpt>
      <trkpt lat="49.46312" lon="1.444">
        <ele>164.4</ele>
        <time>2015-06-13T14:01:20Z</time>
      </trkpt>
      <trkpt lat="49.46169" lon="1.44371">
        <ele>159.8</ele>
        <time>2015-06-13T14:01:44Z</time>
      </trkpt>
      <trkpt lat="49.46156" lon="1.44361">
        <ele>159.2</ele>
        <time>2015-06-13T14:01:47Z</time>
      </trkpt>
      <trkpt lat="49.46156" lon="1.44348">
        <ele>158.8</ele>
        <time>2015-06-13T14:01:49Z</time>
      </trkpt>
      <trkpt lat="49.46175" lon="1.44051">
        <ele>164.6</ele>
        <time>2015-06-13T14:02:45Z</time>
      </trkpt>
      <trkpt lat="49.46195" lon="1.43923">
        <ele>165.4</ele>
        <time>2015-06-13T14:03:15Z</time>
      </trkpt>
      <trkpt lat="49.46202" lon="1.43913">
        <ele>165.4</ele>
        <time>2015-06-13T14:03:18Z</time>
      </trkpt>
      <trkpt lat="49.46283" lon="1.43952">
        <ele>167.6</ele>
        <time>2015-06-13T14:03:41Z</time>
      </trkpt>
      <trkpt lat="49.46334" lon="1.43958">
        <ele>167.6</ele>
        <time>2015-06-13T14:03:54Z</time>
      </trkpt>
      <trkpt lat="49.46364" lon="1.43958">
        <ele>168</ele>
        <time>2015-06-13T14:04:00Z</time>
      </trkpt>
      <trkpt lat="49.46504" lon="1.44012">
        <ele>170.2</ele>
        <time>2015-06-13T14:04:28Z</time>
      </trkpt>
      <trkpt lat="49.46599" lon="1.44086">
        <ele>171.8</ele>
        <time>2015-06-13T14:04:48Z</time>
      </trkpt>
      <trkpt lat="49.46626" lon="1.44121">
        <ele>172.4</ele>
        <time>2015-06-13T14:04:57Z</time>
      </trkpt>
      <trkpt lat="49.46626" lon="1.44144">
        <ele>173.2</ele>
        <time>2015-06-13T14:05:03Z</time>
      </trkpt>
      <trkpt lat="49.4663" lon="1.4417">
        <ele>173.2</ele>
        <time>2015-06-13T14:05:09Z</time>
      </trkpt>
      <trkpt lat="49.46645" lon="1.44177">
        <ele>173</ele>
        <time>2015-06-13T14:05:13Z</time>
      </trkpt>
      <trkpt lat="49.46693" lon="1.44271">
        <ele>170.4</ele>
        <time>2015-06-13T14:05:28Z</time>
      </trkpt>
      <trkpt lat="49.46702" lon="1.44316">
        <ele>170.2</ele>
        <time>2015-06-13T14:05:33Z</time>
      </trkpt>
      <trkpt lat="49.46703" lon="1.44368">
        <ele>169.8</ele>
        <time>2015-06-13T14:05:38Z</time>
      </trkpt>
      <trkpt lat="49.46696" lon="1.44477">
        <ele>169.2</ele>
        <time>2015-06-13T14:05:48Z</time>
      </trkpt>
      <trkpt lat="49.46706" lon="1.44654">
        <ele>168.8</ele>
        <time>2015-06-13T14:06:04Z</time>
      </trkpt>
      <trkpt lat="49.46715" lon="1.44711">
        <ele>168.2</ele>
        <time>2015-06-13T14:06:09Z</time>
      </trkpt>
      <trkpt lat="49.4678" lon="1.44896">
        <ele>163.4</ele>
        <time>2015-06-13T14:06:25Z</time>
      </trkpt>
      <trkpt lat="49.46807" lon="1.44946">
        <ele>162.8</ele>
        <time>2015-06-13T14:06:30Z</time>
      </trkpt>
      <trkpt lat="49.46892" lon="1.45058">
        <ele>163</ele>
        <time>2015-06-13T14:06:45Z</time>
      </trkpt>
      <trkpt lat="49.47015" lon="1.45267">
        <ele>161.6</ele>
        <time>2015-06-13T14:07:12Z</time>
      </trkpt>
      <trkpt lat="49.47063" lon="1.45321">
        <ele>161.6</ele>
        <time>2015-06-13T14:07:23Z</time>
      </trkpt>
      <trkpt lat="49.47156" lon="1.45379">
        <ele>160.8</ele>
        <time>2015-06-13T14:07:42Z</time>
      </trkpt>
      <trkpt lat="49.47219" lon="1.45436">
        <ele>160.8</ele>
        <time>2015-06-13T14:07:56Z</time>
      </trkpt>
      <trkpt lat="49.47377" lon="1.45531">
        <ele>158.6</ele>
        <time>2015-06-13T14:08:22Z</time>
      </trkpt>
      <trkpt lat="49.47389" lon="1.45569">
        <ele>158.2</ele>
        <time>2015-06-13T14:08:27Z</time>
      </trkpt>
      <trkpt lat="49.47393" lon="1.45586">
        <ele>158.6</ele>
        <time>2015-06-13T14:08:31Z</time>
      </trkpt>
      <trkpt lat="49.47391" lon="1.45588">
        <ele>158.6</ele>
        <time>2015-06-13T14:08:33Z</time>
      </trkpt>
      <trkpt lat="49.47369" lon="1.45591">
        <ele>159.6</ele>
        <time>2015-06-13T14:08:43Z</time>
      </trkpt>
      <trkpt lat="49.47355" lon="1.45602">
        <ele>160.2</ele>
        <time>2015-06-13T14:08:46Z</time>
      </trkpt>
      <trkpt lat="49.47294" lon="1.45715">
        <ele>160.2</ele>
        <time>2015-06-13T14:09:01Z</time>
      </trkpt>
      <trkpt lat="49.47255" lon="1.45769">
        <ele>157.8</ele>
        <time>2015-06-13T14:09:09Z</time>
      </trkpt>
      <trkpt lat="49.47238" lon="1.45779">
        <ele>156.4</ele>
        <time>2015-06-13T14:09:12Z</time>
      </trkpt>
      <trkpt lat="49.47207" lon="1.45772">
        <ele>156</ele>
        <time>2015-06-13T14:09:16Z</time>
      </trkpt>
      <trkpt lat="49.47167" lon="1.4576">
        <ele>155.4</ele>
        <time>2015-06-13T14:09:24Z</time>
      </trkpt>
      <trkpt lat="49.47155" lon="1.45758">
        <ele>155.2</ele>
        <time>2015-06-13T14:09:30Z</time>
      </trkpt>
      <trkpt lat="49.47138" lon="1.45752">
        <ele>154.6</ele>
        <time>2015-06-13T14:09:35Z</time>
      </trkpt>
      <trkpt lat="49.47124" lon="1.45752">
        <ele>154.4</ele>
        <time>2015-06-13T14:09:37Z</time>
      </trkpt>
      <trkpt lat="49.47107" lon="1.45754">
        <ele>154.2</ele>
        <time>2015-06-13T14:09:39Z</time>
      </trkpt>
      <trkpt lat="49.47089" lon="1.45767">
        <ele>153</ele>
        <time>2015-06-13T14:09:42Z</time>
      </trkpt>
      <trkpt lat="49.47073" lon="1.45796">
        <ele>153</ele>
        <time>2015-06-13T14:09:46Z</time>
      </trkpt>
      <trkpt lat="49.4707" lon="1.45815">
        <ele>154.2</ele>
        <time>2015-06-13T14:09:50Z</time>
      </trkpt>
      <trkpt lat="49.47084" lon="1.45843">
        <ele>154.8</ele>
        <time>2015-06-13T14:09:55Z</time>
      </trkpt>
      <trkpt lat="49.47101" lon="1.45868">
        <ele>155.2</ele>
        <time>2015-06-13T14:09:58Z</time>
      </trkpt>
      <trkpt lat="49.47107" lon="1.45883">
        <ele>155.2</ele>
        <time>2015-06-13T14:10:00Z</time>
      </trkpt>
      <trkpt lat="49.47114" lon="1.4592">
        <ele>156</ele>
        <time>2015-06-13T14:10:05Z</time>
      </trkpt>
      <trkpt lat="49.4711" lon="1.45942">
        <ele>157.4</ele>
        <time>2015-06-13T14:10:09Z</time>
      </trkpt>
      <trkpt lat="49.47078" lon="1.45998">
        <ele>160.2</ele>
        <time>2015-06-13T14:10:22Z</time>
      </trkpt>
      <trkpt lat="49.46941" lon="1.46203">
        <ele>161.6</ele>
        <time>2015-06-13T14:11:05Z</time>
      </trkpt>
      <trkpt lat="49.46897" lon="1.46246">
        <ele>158.8</ele>
        <time>2015-06-13T14:11:13Z</time>
      </trkpt>
      <trkpt lat="49.4686" lon="1.46258">
        <ele>156.4</ele>
        <time>2015-06-13T14:11:18Z</time>
      </trkpt>
      <trkpt lat="49.46831" lon="1.46274">
        <ele>155.2</ele>
        <time>2015-06-13T14:11:22Z</time>
      </trkpt>
      <trkpt lat="49.46814" lon="1.46296">
        <ele>155.4</ele>
        <time>2015-06-13T14:11:25Z</time>
      </trkpt>
      <trkpt lat="49.46791" lon="1.46361">
        <ele>159.8</ele>
        <time>2015-06-13T14:11:35Z</time>
      </trkpt>
      <trkpt lat="49.46668" lon="1.46565">
        <ele>162</ele>
        <time>2015-06-13T14:12:16Z</time>
      </trkpt>
      <trkpt lat="49.46642" lon="1.46593">
        <ele>163.2</ele>
        <time>2015-06-13T14:12:22Z</time>
      </trkpt>
      <trkpt lat="49.46619" lon="1.46594">
        <ele>163.8</ele>
        <time>2015-06-13T14:12:27Z</time>
      </trkpt>
      <trkpt lat="49.46423" lon="1.46538">
        <ele>169.4</ele>
        <time>2015-06-13T14:13:09Z</time>
      </trkpt>
      <trkpt lat="49.46417" lon="1.46537">
        <ele>169.6</ele>
        <time>2015-06-13T14:13:11Z</time>
      </trkpt>
      <trkpt lat="49.46406" lon="1.46528">
        <ele>169.6</ele>
        <time>2015-06-13T14:13:16Z</time>
      </trkpt>
      <trkpt lat="49.46396" lon="1.46529">
        <ele>170.2</ele>
        <time>2015-06-13T14:13:25Z</time>
      </trkpt>
      <trkpt lat="49.46393" lon="1.46526">
        <ele>170.4</ele>
        <time>2015-06-13T14:13:31Z</time>
      </trkpt>
      <trkpt lat="49.46381" lon="1.46518">
        <ele>169.6</ele>
        <time>2015-06-13T14:13:36Z</time>
      </trkpt>
      <trkpt lat="49.46317" lon="1.46502">
        <ele>166.4</ele>
        <time>2015-06-13T14:13:54Z</time>
      </trkpt>
      <trkpt lat="49.46298" lon="1.46495">
        <ele>169.6</ele>
        <time>2015-06-13T14:13:59Z</time>
      </trkpt>
      <trkpt lat="49.46278" lon="1.46493">
        <ele>169.2</ele>
        <time>2015-06-13T14:14:03Z</time>
      </trkpt>
      <trkpt lat="49.4625" lon="1.46482">
        <ele>169.6</ele>
        <time>2015-06-13T14:14:09Z</time>
      </trkpt>
      <trkpt lat="49.4623" lon="1.46477">
        <ele>169.4</ele>
        <time>2015-06-13T14:14:13Z</time>
      </trkpt>
      <trkpt lat="49.46163" lon="1.46452">
        <ele>169</ele>
        <time>2015-06-13T14:14:28Z</time>
      </trkpt>
      <trkpt lat="49.46145" lon="1.46448">
        <ele>169.2</ele>
        <time>2015-06-13T14:14:32Z</time>
      </trkpt>
      <trkpt lat="49.46102" lon="1.46446">
        <ele>168.4</ele>
        <time>2015-06-13T14:14:42Z</time>
      </trkpt>
      <trkpt lat="49.46096" lon="1.4646">
        <ele>168.4</ele>
        <time>2015-06-13T14:14:45Z</time>
      </trkpt>
      <trkpt lat="49.46074" lon="1.4679">
        <ele>165.2</ele>
        <time>2015-06-13T14:15:24Z</time>
      </trkpt>
      <trkpt lat="49.46068" lon="1.46793">
        <ele>165</ele>
        <time>2015-06-13T14:15:25Z</time>
      </trkpt>
      <trkpt lat="49.46057" lon="1.46791">
        <ele>164.6</ele>
        <time>2015-06-13T14:15:27Z</time>
      </trkpt>
      <trkpt lat="49.45561" lon="1.4666">
        <ele>158.8</ele>
        <time>2015-06-13T14:16:42Z</time>
      </trkpt>
      <trkpt lat="49.45542" lon="1.46641">
        <ele>157</ele>
        <time>2015-06-13T14:16:45Z</time>
      </trkpt>
      <trkpt lat="49.45529" lon="1.46607">
        <ele>155.8</ele>
        <time>2015-06-13T14:16:48Z</time>
      </trkpt>
      <trkpt lat="49.45486" lon="1.46399">
        <ele>147.8</ele>
        <time>2015-06-13T14:17:02Z</time>
      </trkpt>
      <trkpt lat="49.45462" lon="1.4635">
        <ele>145.6</ele>
        <time>2015-06-13T14:17:07Z</time>
      </trkpt>
      <trkpt lat="49.45446" lon="1.46343">
        <ele>143.8</ele>
        <time>2015-06-13T14:17:09Z</time>
      </trkpt>
      <trkpt lat="49.45392" lon="1.46341">
        <ele>139.6</ele>
        <time>2015-06-13T14:17:15Z</time>
      </trkpt>
      <trkpt lat="49.45308" lon="1.46321">
        <ele>134.2</ele>
        <time>2015-06-13T14:17:24Z</time>
      </trkpt>
      <trkpt lat="49.45272" lon="1.46319">
        <ele>131.2</ele>
        <time>2015-06-13T14:17:28Z</time>
      </trkpt>
      <trkpt lat="49.4525" lon="1.4631">
        <ele>129.6</ele>
        <time>2015-06-13T14:17:31Z</time>
      </trkpt>
      <trkpt lat="49.45235" lon="1.46287">
        <ele>127.2</ele>
        <time>2015-06-13T14:17:34Z</time>
      </trkpt>
      <trkpt lat="49.45224" lon="1.46276">
        <ele>126.4</ele>
        <time>2015-06-13T14:17:37Z</time>
      </trkpt>
      <trkpt lat="49.45214" lon="1.46283">
        <ele>126.2</ele>
        <time>2015-06-13T14:17:40Z</time>
      </trkpt>
      <trkpt lat="49.45205" lon="1.46304">
        <ele>126.4</ele>
        <time>2015-06-13T14:17:45Z</time>
      </trkpt>
      <trkpt lat="49.45208" lon="1.46322">
        <ele>126.4</ele>
        <time>2015-06-13T14:17:48Z</time>
      </trkpt>
      <trkpt lat="49.45228" lon="1.46361">
        <ele>126.8</ele>
        <time>2015-06-13T14:17:54Z</time>
      </trkpt>
      <trkpt lat="49.45254" lon="1.46386">
        <ele>127.4</ele>
        <time>2015-06-13T14:18:00Z</time>
      </trkpt>
      <trkpt lat="49.45329" lon="1.46444">
        <ele>129.6</ele>
        <time>2015-06-13T14:18:15Z</time>
      </trkpt>
      <trkpt lat="49.45363" lon="1.46484">
        <ele>130.6</ele>
        <time>2015-06-13T14:18:20Z</time>
      </trkpt>
      <trkpt lat="49.4537" lon="1.46503">
        <ele>130.8</ele>
        <time>2015-06-13T14:18:22Z</time>
      </trkpt>
      <trkpt lat="49.454" lon="1.4662">
        <ele>132.4</ele>
        <time>2015-06-13T14:18:34Z</time>
      </trkpt>
      <trkpt lat="49.45427" lon="1.46954">
        <ele>136.6</ele>
        <time>2015-06-13T14:19:14Z</time>
      </trkpt>
      <trkpt lat="49.45384" lon="1.46961">
        <ele>137</ele>
        <time>2015-06-13T14:19:19Z</time>
      </trkpt>
      <trkpt lat="49.4538" lon="1.46965">
        <ele>137.2</ele>
        <time>2015-06-13T14:19:20Z</time>
      </trkpt>
      <trkpt lat="49.45366" lon="1.46989">
        <ele>137.4</ele>
        <time>2015-06-13T14:19:26Z</time>
      </trkpt>
      <trkpt lat="49.45354" lon="1.47019">
        <ele>137.8</ele>
        <time>2015-06-13T14:19:37Z</time>
      </trkpt>
      <trkpt lat="49.45355" lon="1.4702">
        <ele>138</ele>
        <time>2015-06-13T14:19:38Z</time>
      </trkpt>
      <trkpt lat="49.45351" lon="1.47025">
        <ele>137.8</ele>
        <time>2015-06-13T14:19:43Z</time>
      </trkpt>
      <trkpt lat="49.45346" lon="1.47017">
        <ele>137.8</ele>
        <time>2015-06-13T14:19:51Z</time>
      </trkpt>
      <trkpt lat="49.45339" lon="1.47019">
        <ele>140.4</ele>
        <time>2015-06-13T14:20:40Z</time>
      </trkpt>
      <trkpt lat="49.45338" lon="1.47018">
        <ele>141</ele>
        <time>2015-06-13T14:20:42Z</time>
      </trkpt>
      <trkpt lat="49.4533" lon="1.47018">
        <ele>143</ele>
        <time>2015-06-13T14:20:48Z</time>
      </trkpt>
      <trkpt lat="49.45267" lon="1.46998">
        <ele>152</ele>
        <time>2015-06-13T14:21:18Z</time>
      </trkpt>
      <trkpt lat="49.45254" lon="1.46998">
        <ele>153.6</ele>
        <time>2015-06-13T14:21:25Z</time>
      </trkpt>
      <trkpt lat="49.45243" lon="1.46996">
        <ele>155.4</ele>
        <time>2015-06-13T14:21:33Z</time>
      </trkpt>
      <trkpt lat="49.45243" lon="1.46996">
        <ele>155.4</ele>
        <time>2015-06-13T14:21:34Z</time>
      </trkpt>
      <trkpt lat="49.45232" lon="1.46994">
        <ele>156.4</ele>
        <time>2015-06-13T14:21:41Z</time>
      </trkpt>
      <trkpt lat="49.4521" lon="1.46995">
        <ele>157.6</ele>
        <time>2015-06-13T14:21:53Z</time>
      </trkpt>
      <trkpt lat="49.45197" lon="1.46994">
        <ele>158.6</ele>
        <time>2015-06-13T14:22:05Z</time>
      </trkpt>
      <trkpt lat="49.45192" lon="1.46994">
        <ele>159</ele>
        <time>2015-06-13T14:22:14Z</time>
      </trkpt>
      <trkpt lat="49.45177" lon="1.46991">
        <ele>159.2</ele>
        <time>2015-06-13T14:22:23Z</time>
      </trkpt>
      <trkpt lat="49.45172" lon="1.46992">
        <ele>159.4</ele>
        <time>2015-06-13T14:22:32Z</time>
      </trkpt>
      <trkpt lat="49.45166" lon="1.46995">
        <ele>159.8</ele>
        <time>2015-06-13T14:22:36Z</time>
      </trkpt>
      <trkpt lat="49.45151" lon="1.47004">
        <ele>160.4</ele>
        <time>2015-06-13T14:22:46Z</time>
      </trkpt>
      <trkpt lat="49.45132" lon="1.47025">
        <ele>160.8</ele>
        <time>2015-06-13T14:23:00Z</time>
      </trkpt>
      <trkpt lat="49.45129" lon="1.47032">
        <ele>160.8</ele>
        <time>2015-06-13T14:23:06Z</time>
      </trkpt>
      <trkpt lat="49.45129" lon="1.47032">
        <ele>160.2</ele>
        <time>2015-06-13T14:25:18Z</time>
      </trkpt>
      <trkpt lat="49.45158" lon="1.47587">
        <ele>146.2</ele>
        <time>2015-06-13T14:27:27Z</time>
      </trkpt>
      <trkpt lat="49.45157" lon="1.4761">
        <ele>147.8</ele>
        <time>2015-06-13T14:27:31Z</time>
      </trkpt>
      <trkpt lat="49.45146" lon="1.47614">
        <ele>149</ele>
        <time>2015-06-13T14:27:34Z</time>
      </trkpt>
      <trkpt lat="49.45138" lon="1.47615">
        <ele>149</ele>
        <time>2015-06-13T14:27:36Z</time>
      </trkpt>
      <trkpt lat="49.45129" lon="1.47622">
        <ele>149.4</ele>
        <time>2015-06-13T14:27:40Z</time>
      </trkpt>
      <trkpt lat="49.45131" lon="1.47625">
        <ele>149.6</ele>
        <time>2015-06-13T14:27:44Z</time>
      </trkpt>
      <trkpt lat="49.45164" lon="1.47618">
        <ele>150</ele>
        <time>2015-06-13T14:28:05Z</time>
      </trkpt>
      <trkpt lat="49.45173" lon="1.47617">
        <ele>150.4</ele>
        <time>2015-06-13T14:28:09Z</time>
      </trkpt>
      <trkpt lat="49.45179" lon="1.47626">
        <ele>150.8</ele>
        <time>2015-06-13T14:28:13Z</time>
      </trkpt>
      <trkpt lat="49.45174" lon="1.47639">
        <ele>150.8</ele>
        <time>2015-06-13T14:28:17Z</time>
      </trkpt>
      <trkpt lat="49.4515" lon="1.47683">
        <ele>148</ele>
        <time>2015-06-13T14:28:26Z</time>
      </trkpt>
      <trkpt lat="49.45035" lon="1.48141">
        <ele>151.8</ele>
        <time>2015-06-13T14:29:43Z</time>
      </trkpt>
      <trkpt lat="49.4496" lon="1.48408">
        <ele>160</ele>
        <time>2015-06-13T14:30:42Z</time>
      </trkpt>
      <trkpt lat="49.44941" lon="1.48452">
        <ele>159.8</ele>
        <time>2015-06-13T14:30:53Z</time>
      </trkpt>
      <trkpt lat="49.44931" lon="1.48454">
        <ele>160.4</ele>
        <time>2015-06-13T14:30:57Z</time>
      </trkpt>
      <trkpt lat="49.44912" lon="1.48473">
        <ele>160.4</ele>
        <time>2015-06-13T14:31:07Z</time>
      </trkpt>
      <trkpt lat="49.44913" lon="1.48507">
        <ele>160</ele>
        <time>2015-06-13T14:31:19Z</time>
      </trkpt>
      <trkpt lat="49.44921" lon="1.48522">
        <ele>159.8</ele>
        <time>2015-06-13T14:31:24Z</time>
      </trkpt>
      <trkpt lat="49.44919" lon="1.48537">
        <ele>159.6</ele>
        <time>2015-06-13T14:31:28Z</time>
      </trkpt>
      <trkpt lat="49.44903" lon="1.48625">
        <ele>159</ele>
        <time>2015-06-13T14:31:49Z</time>
      </trkpt>
      <trkpt lat="49.44888" lon="1.48656">
        <ele>158.4</ele>
        <time>2015-06-13T14:32:02Z</time>
      </trkpt>
      <trkpt lat="49.44885" lon="1.48678">
        <ele>157.8</ele>
        <time>2015-06-13T14:32:06Z</time>
      </trkpt>
      <trkpt lat="49.44768" lon="1.49108">
        <ele>160</ele>
        <time>2015-06-13T14:33:18Z</time>
      </trkpt>
      <trkpt lat="49.44759" lon="1.49135">
        <ele>161</ele>
        <time>2015-06-13T14:33:24Z</time>
      </trkpt>
      <trkpt lat="49.44714" lon="1.49347">
        <ele>162.4</ele>
        <time>2015-06-13T14:34:01Z</time>
      </trkpt>
      <trkpt lat="49.44656" lon="1.49541">
        <ele>160.4</ele>
        <time>2015-06-13T14:34:34Z</time>
      </trkpt>
      <trkpt lat="49.44642" lon="1.49614">
        <ele>160.8</ele>
        <time>2015-06-13T14:34:46Z</time>
      </trkpt>
      <trkpt lat="49.44644" lon="1.49676">
        <ele>162</ele>
        <time>2015-06-13T14:34:59Z</time>
      </trkpt>
      <trkpt lat="49.44651" lon="1.49716">
        <ele>162.4</ele>
        <time>2015-06-13T14:35:06Z</time>
      </trkpt>
      <trkpt lat="49.44653" lon="1.49759">
        <ele>163</ele>
        <time>2015-06-13T14:35:13Z</time>
      </trkpt>
      <trkpt lat="49.4464" lon="1.49939">
        <ele>163.4</ele>
        <time>2015-06-13T14:35:44Z</time>
      </trkpt>
      <trkpt lat="49.44646" lon="1.49978">
        <ele>163.6</ele>
        <time>2015-06-13T14:35:50Z</time>
      </trkpt>
      <trkpt lat="49.44641" lon="1.50117">
        <ele>163.2</ele>
        <time>2015-06-13T14:36:20Z</time>
      </trkpt>
      <trkpt lat="49.4464" lon="1.50122">
        <ele>162.2</ele>
        <time>2015-06-13T14:36:30Z</time>
      </trkpt>
      <trkpt lat="49.44638" lon="1.50152">
        <ele>161.8</ele>
        <time>2015-06-13T14:36:35Z</time>
      </trkpt>
      <trkpt lat="49.44628" lon="1.50177">
        <ele>161</ele>
        <time>2015-06-13T14:36:39Z</time>
      </trkpt>
      <trkpt lat="49.44609" lon="1.50208">
        <ele>159.6</ele>
        <time>2015-06-13T14:36:44Z</time>
      </trkpt>
      <trkpt lat="49.44599" lon="1.50233">
        <ele>158</ele>
        <time>2015-06-13T14:36:48Z</time>
      </trkpt>
      <trkpt lat="49.44591" lon="1.50308">
        <ele>150.6</ele>
        <time>2015-06-13T14:36:58Z</time>
      </trkpt>
      <trkpt lat="49.4458" lon="1.50353">
        <ele>144.2</ele>
        <time>2015-06-13T14:37:03Z</time>
      </trkpt>
      <trkpt lat="49.44577" lon="1.50389">
        <ele>141.2</ele>
        <time>2015-06-13T14:37:07Z</time>
      </trkpt>
      <trkpt lat="49.44568" lon="1.50421">
        <ele>138.2</ele>
        <time>2015-06-13T14:37:11Z</time>
      </trkpt>
      <trkpt lat="49.44554" lon="1.50431">
        <ele>136.4</ele>
        <time>2015-06-13T14:37:14Z</time>
      </trkpt>
      <trkpt lat="49.4454" lon="1.50421">
        <ele>136.2</ele>
        <time>2015-06-13T14:37:17Z</time>
      </trkpt>
      <trkpt lat="49.44437" lon="1.50311">
        <ele>134.4</ele>
        <time>2015-06-13T14:37:40Z</time>
      </trkpt>
      <trkpt lat="49.44308" lon="1.50163">
        <ele>130.2</ele>
        <time>2015-06-13T14:38:09Z</time>
      </trkpt>
      <trkpt lat="49.44262" lon="1.50136">
        <ele>129.2</ele>
        <time>2015-06-13T14:38:17Z</time>
      </trkpt>
      <trkpt lat="49.44179" lon="1.5014">
        <ele>127.4</ele>
        <time>2015-06-13T14:38:30Z</time>
      </trkpt>
      <trkpt lat="49.44036" lon="1.5016">
        <ele>125</ele>
        <time>2015-06-13T14:38:51Z</time>
      </trkpt>
      <trkpt lat="49.439" lon="1.50229">
        <ele>124.6</ele>
        <time>2015-06-13T14:39:13Z</time>
      </trkpt>
      <trkpt lat="49.43868" lon="1.50268">
        <ele>123.4</ele>
        <time>2015-06-13T14:39:19Z</time>
      </trkpt>
      <trkpt lat="49.43785" lon="1.50388">
        <ele>120</ele>
        <time>2015-06-13T14:39:35Z</time>
      </trkpt>
      <trkpt lat="49.43778" lon="1.50396">
        <ele>121.2</ele>
        <time>2015-06-13T14:39:38Z</time>
      </trkpt>
      <trkpt lat="49.43774" lon="1.5041">
        <ele>122</ele>
        <time>2015-06-13T14:39:41Z</time>
      </trkpt>
      <trkpt lat="49.43769" lon="1.50455">
        <ele>124.6</ele>
        <time>2015-06-13T14:39:48Z</time>
      </trkpt>
      <trkpt lat="49.43775" lon="1.50499">
        <ele>127</ele>
        <time>2015-06-13T14:39:56Z</time>
      </trkpt>
      <trkpt lat="49.43781" lon="1.50524">
        <ele>128.2</ele>
        <time>2015-06-13T14:40:00Z</time>
      </trkpt>
      <trkpt lat="49.43799" lon="1.50573">
        <ele>130.4</ele>
        <time>2015-06-13T14:40:10Z</time>
      </trkpt>
      <trkpt lat="49.43842" lon="1.50652">
        <ele>135</ele>
        <time>2015-06-13T14:40:32Z</time>
      </trkpt>
      <trkpt lat="49.4386" lon="1.50706">
        <ele>137.8</ele>
        <time>2015-06-13T14:40:47Z</time>
      </trkpt>
      <trkpt lat="49.43862" lon="1.50765">
        <ele>140.2</ele>
        <time>2015-06-13T14:41:04Z</time>
      </trkpt>
      <trkpt lat="49.43841" lon="1.50879">
        <ele>145.4</ele>
        <time>2015-06-13T14:41:38Z</time>
      </trkpt>
      <trkpt lat="49.43829" lon="1.50893">
        <ele>146.2</ele>
        <time>2015-06-13T14:42:02Z</time>
      </trkpt>
      <trkpt lat="49.43811" lon="1.5091">
        <ele>142.8</ele>
        <time>2015-06-13T14:42:10Z</time>
      </trkpt>
      <trkpt lat="49.43807" lon="1.50915">
        <ele>148.2</ele>
        <time>2015-06-13T14:42:12Z</time>
      </trkpt>
      <trkpt lat="49.43709" lon="1.51002">
        <ele>155</ele>
        <time>2015-06-13T14:42:59Z</time>
      </trkpt>
      <trkpt lat="49.43708" lon="1.51004">
        <ele>155.2</ele>
        <time>2015-06-13T14:43:00Z</time>
      </trkpt>
      <trkpt lat="49.43508" lon="1.51173">
        <ele>158.6</ele>
        <time>2015-06-13T14:44:15Z</time>
      </trkpt>
      <trkpt lat="49.43488" lon="1.5118">
        <ele>159.2</ele>
        <time>2015-06-13T14:44:20Z</time>
      </trkpt>
      <trkpt lat="49.43473" lon="1.51173">
        <ele>158.8</ele>
        <time>2015-06-13T14:44:24Z</time>
      </trkpt>
      <trkpt lat="49.43457" lon="1.51144">
        <ele>158.2</ele>
        <time>2015-06-13T14:44:29Z</time>
      </trkpt>
      <trkpt lat="49.43302" lon="1.50729">
        <ele>155.4</ele>
        <time>2015-06-13T14:45:29Z</time>
      </trkpt>
      <trkpt lat="49.43297" lon="1.5073">
        <ele>155.6</ele>
        <time>2015-06-13T14:45:30Z</time>
      </trkpt>
      <trkpt lat="49.43272" lon="1.50762">
        <ele>155.2</ele>
        <time>2015-06-13T14:45:37Z</time>
      </trkpt>
      <trkpt lat="49.43138" lon="1.51072">
        <ele>160</ele>
        <time>2015-06-13T14:46:37Z</time>
      </trkpt>
      <trkpt lat="49.43137" lon="1.51076">
        <ele>160.2</ele>
        <time>2015-06-13T14:46:38Z</time>
      </trkpt>
      <trkpt lat="49.43136" lon="1.51102">
        <ele>160.4</ele>
        <time>2015-06-13T14:46:44Z</time>
      </trkpt>
      <trkpt lat="49.43148" lon="1.51126">
        <ele>160.4</ele>
        <time>2015-06-13T14:46:49Z</time>
      </trkpt>
      <trkpt lat="49.43166" lon="1.51156">
        <ele>161.4</ele>
        <time>2015-06-13T14:46:56Z</time>
      </trkpt>
      <trkpt lat="49.4347" lon="1.51504">
        <ele>163.6</ele>
        <time>2015-06-13T14:48:26Z</time>
      </trkpt>
      <trkpt lat="49.43495" lon="1.51553">
        <ele>164</ele>
        <time>2015-06-13T14:48:35Z</time>
      </trkpt>
      <trkpt lat="49.43507" lon="1.51593">
        <ele>164</ele>
        <time>2015-06-13T14:48:41Z</time>
      </trkpt>
      <trkpt lat="49.43756" lon="1.52282">
        <ele>165.2</ele>
        <time>2015-06-13T14:50:32Z</time>
      </trkpt>
      <trkpt lat="49.43794" lon="1.5242">
        <ele>166.2</ele>
        <time>2015-06-13T14:50:53Z</time>
      </trkpt>
      <trkpt lat="49.43808" lon="1.52662">
        <ele>167.8</ele>
        <time>2015-06-13T14:51:30Z</time>
      </trkpt>
      <trkpt lat="49.43798" lon="1.52733">
        <ele>167.2</ele>
        <time>2015-06-13T14:51:41Z</time>
      </trkpt>
      <trkpt lat="49.43784" lon="1.52748">
        <ele>166.6</ele>
        <time>2015-06-13T14:51:44Z</time>
      </trkpt>
      <trkpt lat="49.4356" lon="1.52925">
        <ele>164.8</ele>
        <time>2015-06-13T14:52:36Z</time>
      </trkpt>
      <trkpt lat="49.43522" lon="1.5295">
        <ele>164.8</ele>
        <time>2015-06-13T14:52:44Z</time>
      </trkpt>
      <trkpt lat="49.43401" lon="1.53007">
        <ele>164.4</ele>
        <time>2015-06-13T14:53:07Z</time>
      </trkpt>
      <trkpt lat="49.43192" lon="1.53156">
        <ele>158.8</ele>
        <time>2015-06-13T14:53:47Z</time>
      </trkpt>
      <trkpt lat="49.43182" lon="1.5316">
        <ele>158.6</ele>
        <time>2015-06-13T14:53:49Z</time>
      </trkpt>
      <trkpt lat="49.43156" lon="1.53158">
        <ele>157.6</ele>
        <time>2015-06-13T14:53:54Z</time>
      </trkpt>
      <trkpt lat="49.43138" lon="1.53154">
        <ele>157.2</ele>
        <time>2015-06-13T14:53:58Z</time>
      </trkpt>
      <trkpt lat="49.43121" lon="1.53153">
        <ele>157.2</ele>
        <time>2015-06-13T14:54:02Z</time>
      </trkpt>
      <trkpt lat="49.43111" lon="1.53151">
        <ele>156.4</ele>
        <time>2015-06-13T14:54:04Z</time>
      </trkpt>
      <trkpt lat="49.43083" lon="1.53139">
        <ele>155.4</ele>
        <time>2015-06-13T14:54:10Z</time>
      </trkpt>
      <trkpt lat="49.4298" lon="1.53122">
        <ele>149.2</ele>
        <time>2015-06-13T14:54:26Z</time>
      </trkpt>
      <trkpt lat="49.42915" lon="1.5309">
        <ele>146</ele>
        <time>2015-06-13T14:54:35Z</time>
      </trkpt>
      <trkpt lat="49.4289" lon="1.53087">
        <ele>144.2</ele>
        <time>2015-06-13T14:54:39Z</time>
      </trkpt>
      <trkpt lat="49.42856" lon="1.53079">
        <ele>140.4</ele>
        <time>2015-06-13T14:54:45Z</time>
      </trkpt>
      <trkpt lat="49.42841" lon="1.53072">
        <ele>137.4</ele>
        <time>2015-06-13T14:54:48Z</time>
      </trkpt>
      <trkpt lat="49.42824" lon="1.5307">
        <ele>131.8</ele>
        <time>2015-06-13T14:54:51Z</time>
      </trkpt>
      <trkpt lat="49.42811" lon="1.53074">
        <ele>129</ele>
        <time>2015-06-13T14:54:53Z</time>
      </trkpt>
      <trkpt lat="49.42792" lon="1.53088">
        <ele>125.2</ele>
        <time>2015-06-13T14:54:56Z</time>
      </trkpt>
      <trkpt lat="49.42768" lon="1.53144">
        <ele>120.8</ele>
        <time>2015-06-13T14:55:02Z</time>
      </trkpt>
      <trkpt lat="49.42763" lon="1.53159">
        <ele>120.6</ele>
        <time>2015-06-13T14:55:05Z</time>
      </trkpt>
      <trkpt lat="49.42798" lon="1.53232">
        <ele>120.6</ele>
        <time>2015-06-13T14:55:20Z</time>
      </trkpt>
      <trkpt lat="49.42821" lon="1.53328">
        <ele>121.2</ele>
        <time>2015-06-13T14:55:34Z</time>
      </trkpt>
      <trkpt lat="49.42849" lon="1.53392">
        <ele>122</ele>
        <time>2015-06-13T14:55:46Z</time>
      </trkpt>
      <trkpt lat="49.42897" lon="1.53477">
        <ele>122.8</ele>
        <time>2015-06-13T14:56:03Z</time>
      </trkpt>
      <trkpt lat="49.42911" lon="1.5352">
        <ele>122.8</ele>
        <time>2015-06-13T14:56:11Z</time>
      </trkpt>
      <trkpt lat="49.42911" lon="1.53534">
        <ele>123</ele>
        <time>2015-06-13T14:56:14Z</time>
      </trkpt>
      <trkpt lat="49.42901" lon="1.53532">
        <ele>123.2</ele>
        <time>2015-06-13T14:56:18Z</time>
      </trkpt>
      <trkpt lat="49.42883" lon="1.5352">
        <ele>124.2</ele>
        <time>2015-06-13T14:56:25Z</time>
      </trkpt>
      <trkpt lat="49.42811" lon="1.53489">
        <ele>132</ele>
        <time>2015-06-13T14:57:02Z</time>
      </trkpt>
      <trkpt lat="49.42794" lon="1.53483">
        <ele>133.2</ele>
        <time>2015-06-13T14:57:10Z</time>
      </trkpt>
      <trkpt lat="49.42773" lon="1.53472">
        <ele>135.2</ele>
        <time>2015-06-13T14:57:19Z</time>
      </trkpt>
      <trkpt lat="49.42722" lon="1.53403">
        <ele>140.8</ele>
        <time>2015-06-13T14:57:53Z</time>
      </trkpt>
      <trkpt lat="49.42708" lon="1.53381">
        <ele>143</ele>
        <time>2015-06-13T14:58:05Z</time>
      </trkpt>
      <trkpt lat="49.42685" lon="1.53357">
        <ele>146.4</ele>
        <time>2015-06-13T14:58:22Z</time>
      </trkpt>
      <trkpt lat="49.42681" lon="1.53355">
        <ele>147.4</ele>
        <time>2015-06-13T14:58:31Z</time>
      </trkpt>
      <trkpt lat="49.42675" lon="1.5335">
        <ele>147.6</ele>
        <time>2015-06-13T14:58:45Z</time>
      </trkpt>
      <trkpt lat="49.4266" lon="1.5334">
        <ele>145</ele>
        <time>2015-06-13T14:58:51Z</time>
      </trkpt>
      <trkpt lat="49.42641" lon="1.53332">
        <ele>150</ele>
        <time>2015-06-13T14:59:04Z</time>
      </trkpt>
      <trkpt lat="49.42607" lon="1.53336">
        <ele>152</ele>
        <time>2015-06-13T14:59:18Z</time>
      </trkpt>
      <trkpt lat="49.42573" lon="1.53342">
        <ele>153.6</ele>
        <time>2015-06-13T14:59:31Z</time>
      </trkpt>
      <trkpt lat="49.42551" lon="1.53355">
        <ele>155</ele>
        <time>2015-06-13T14:59:41Z</time>
      </trkpt>
      <trkpt lat="49.4251" lon="1.53394">
        <ele>157.4</ele>
        <time>2015-06-13T15:00:08Z</time>
      </trkpt>
      <trkpt lat="49.42454" lon="1.5343">
        <ele>158.6</ele>
        <time>2015-06-13T15:00:29Z</time>
      </trkpt>
      <trkpt lat="49.42346" lon="1.53529">
        <ele>159.2</ele>
        <time>2015-06-13T15:01:11Z</time>
      </trkpt>
      <trkpt lat="49.42332" lon="1.53553">
        <ele>159.4</ele>
        <time>2015-06-13T15:01:17Z</time>
      </trkpt>
      <trkpt lat="49.42298" lon="1.53636">
        <ele>159.2</ele>
        <time>2015-06-13T15:01:38Z</time>
      </trkpt>
      <trkpt lat="49.42282" lon="1.53692">
        <ele>159</ele>
        <time>2015-06-13T15:01:50Z</time>
      </trkpt>
      <trkpt lat="49.42274" lon="1.53739">
        <ele>158</ele>
        <time>2015-06-13T15:01:58Z</time>
      </trkpt>
      <trkpt lat="49.42273" lon="1.53745">
        <ele>158</ele>
        <time>2015-06-13T15:01:59Z</time>
      </trkpt>
      <trkpt lat="49.42262" lon="1.53817">
        <ele>158</ele>
        <time>2015-06-13T15:02:13Z</time>
      </trkpt>
      <trkpt lat="49.42248" lon="1.53854">
        <ele>157.2</ele>
        <time>2015-06-13T15:02:31Z</time>
      </trkpt>
      <trkpt lat="49.42248" lon="1.53854">
        <ele>156.8</ele>
        <time>2015-06-13T15:03:05Z</time>
      </trkpt>
      <trkpt lat="49.42196" lon="1.53961">
        <ele>154.8</ele>
        <time>2015-06-13T15:04:17Z</time>
      </trkpt>
      <trkpt lat="49.42182" lon="1.53981">
        <ele>152.6</ele>
        <time>2015-06-13T15:04:21Z</time>
      </trkpt>
      <trkpt lat="49.42154" lon="1.54013">
        <ele>149</ele>
        <time>2015-06-13T15:04:29Z</time>
      </trkpt>
      <trkpt lat="49.42139" lon="1.54017">
        <ele>148.8</ele>
        <time>2015-06-13T15:04:34Z</time>
      </trkpt>
      <trkpt lat="49.42121" lon="1.54009">
        <ele>150</ele>
        <time>2015-06-13T15:04:41Z</time>
      </trkpt>
      <trkpt lat="49.42111" lon="1.54001">
        <ele>151.4</ele>
        <time>2015-06-13T15:04:47Z</time>
      </trkpt>
      <trkpt lat="49.42069" lon="1.53977">
        <ele>154.8</ele>
        <time>2015-06-13T15:05:04Z</time>
      </trkpt>
      <trkpt lat="49.42044" lon="1.5397">
        <ele>156.2</ele>
        <time>2015-06-13T15:05:13Z</time>
      </trkpt>
      <trkpt lat="49.42013" lon="1.53966">
        <ele>157.2</ele>
        <time>2015-06-13T15:05:22Z</time>
      </trkpt>
      <trkpt lat="49.42005" lon="1.53961">
        <ele>157.4</ele>
        <time>2015-06-13T15:05:25Z</time>
      </trkpt>
      <trkpt lat="49.42023" lon="1.53867">
        <ele>152.6</ele>
        <time>2015-06-13T15:05:41Z</time>
      </trkpt>
      <trkpt lat="49.42024" lon="1.5369">
        <ele>143.4</ele>
        <time>2015-06-13T15:05:57Z</time>
      </trkpt>
      <trkpt lat="49.42064" lon="1.53544">
        <ele>133</ele>
        <time>2015-06-13T15:06:08Z</time>
      </trkpt>
      <trkpt lat="49.42167" lon="1.53301">
        <ele>125</ele>
        <time>2015-06-13T15:06:34Z</time>
      </trkpt>
      <trkpt lat="49.42182" lon="1.53271">
        <ele>122.4</ele>
        <time>2015-06-13T15:06:38Z</time>
      </trkpt>
      <trkpt lat="49.42189" lon="1.53253">
        <ele>121.8</ele>
        <time>2015-06-13T15:06:42Z</time>
      </trkpt>
      <trkpt lat="49.42215" lon="1.53141">
        <ele>119.4</ele>
        <time>2015-06-13T15:07:04Z</time>
      </trkpt>
      <trkpt lat="49.42217" lon="1.53124">
        <ele>119.2</ele>
        <time>2015-06-13T15:07:07Z</time>
      </trkpt>
      <trkpt lat="49.42217" lon="1.5312">
        <ele>119.2</ele>
        <time>2015-06-13T15:07:08Z</time>
      </trkpt>
      <trkpt lat="49.42213" lon="1.53108">
        <ele>118.4</ele>
        <time>2015-06-13T15:07:12Z</time>
      </trkpt>
      <trkpt lat="49.42212" lon="1.53105">
        <ele>118</ele>
        <time>2015-06-13T15:07:16Z</time>
      </trkpt>
      <trkpt lat="49.42118" lon="1.53026">
        <ele>116</ele>
        <time>2015-06-13T15:07:45Z</time>
      </trkpt>
      <trkpt lat="49.42087" lon="1.52996">
        <ele>116.6</ele>
        <time>2015-06-13T15:07:53Z</time>
      </trkpt>
      <trkpt lat="49.42047" lon="1.52944">
        <ele>119.4</ele>
        <time>2015-06-13T15:08:08Z</time>
      </trkpt>
      <trkpt lat="49.42022" lon="1.52907">
        <ele>120.8</ele>
        <time>2015-06-13T15:08:19Z</time>
      </trkpt>
      <trkpt lat="49.419" lon="1.52692">
        <ele>121</ele>
        <time>2015-06-13T15:09:03Z</time>
      </trkpt>
      <trkpt lat="49.41859" lon="1.52583">
        <ele>121.6</ele>
        <time>2015-06-13T15:09:20Z</time>
      </trkpt>
      <trkpt lat="49.4169" lon="1.51864">
        <ele>108</ele>
        <time>2015-06-13T15:10:42Z</time>
      </trkpt>
      <trkpt lat="49.4167" lon="1.51726">
        <ele>107.6</ele>
        <time>2015-06-13T15:10:56Z</time>
      </trkpt>
      <trkpt lat="49.41663" lon="1.51401">
        <ele>105.4</ele>
        <time>2015-06-13T15:11:26Z</time>
      </trkpt>
      <trkpt lat="49.41545" lon="1.50898">
        <ele>103.2</ele>
        <time>2015-06-13T15:12:22Z</time>
      </trkpt>
      <trkpt lat="49.4154" lon="1.50837">
        <ele>103.6</ele>
        <time>2015-06-13T15:12:29Z</time>
      </trkpt>
      <trkpt lat="49.41556" lon="1.5065">
        <ele>100.2</ele>
        <time>2015-06-13T15:12:47Z</time>
      </trkpt>
      <trkpt lat="49.41552" lon="1.50621">
        <ele>100.2</ele>
        <time>2015-06-13T15:12:50Z</time>
      </trkpt>
      <trkpt lat="49.41537" lon="1.50581">
        <ele>100.4</ele>
        <time>2015-06-13T15:12:56Z</time>
      </trkpt>
      <trkpt lat="49.41521" lon="1.50555">
        <ele>100.2</ele>
        <time>2015-06-13T15:13:02Z</time>
      </trkpt>
      <trkpt lat="49.41519" lon="1.50552">
        <ele>100.8</ele>
        <time>2015-06-13T15:13:03Z</time>
      </trkpt>
      <trkpt lat="49.41511" lon="1.50556">
        <ele>101</ele>
        <time>2015-06-13T15:13:06Z</time>
      </trkpt>
      <trkpt lat="49.41505" lon="1.5057">
        <ele>101</ele>
        <time>2015-06-13T15:13:10Z</time>
      </trkpt>
      <trkpt lat="49.41503" lon="1.50565">
        <ele>101</ele>
        <time>2015-06-13T15:13:13Z</time>
      </trkpt>
      <trkpt lat="49.41503" lon="1.50564">
        <ele>102</ele>
        <time>2015-06-13T15:13:17Z</time>
      </trkpt>
      <trkpt lat="49.41502" lon="1.50555">
        <ele>101.4</ele>
        <time>2015-06-13T15:13:25Z</time>
      </trkpt>
      <trkpt lat="49.41472" lon="1.50515">
        <ele>100.6</ele>
        <time>2015-06-13T15:13:35Z</time>
      </trkpt>
      <trkpt lat="49.41462" lon="1.50489">
        <ele>100.4</ele>
        <time>2015-06-13T15:13:39Z</time>
      </trkpt>
      <trkpt lat="49.41449" lon="1.50426">
        <ele>100.2</ele>
        <time>2015-06-13T15:13:47Z</time>
      </trkpt>
      <trkpt lat="49.41448" lon="1.50391">
        <ele>100.2</ele>
        <time>2015-06-13T15:13:51Z</time>
      </trkpt>
      <trkpt lat="49.41463" lon="1.50308">
        <ele>99.8</ele>
        <time>2015-06-13T15:14:00Z</time>
      </trkpt>
      <trkpt lat="49.41464" lon="1.50261">
        <ele>99.4</ele>
        <time>2015-06-13T15:14:05Z</time>
      </trkpt>
      <trkpt lat="49.41456" lon="1.50196">
        <ele>99.2</ele>
        <time>2015-06-13T15:14:12Z</time>
      </trkpt>
      <trkpt lat="49.41408" lon="1.50009">
        <ele>98.6</ele>
        <time>2015-06-13T15:14:33Z</time>
      </trkpt>
      <trkpt lat="49.41389" lon="1.49964">
        <ele>98.6</ele>
        <time>2015-06-13T15:14:39Z</time>
      </trkpt>
      <trkpt lat="49.41368" lon="1.4993">
        <ele>99</ele>
        <time>2015-06-13T15:14:45Z</time>
      </trkpt>
      <trkpt lat="49.4135" lon="1.49881">
        <ele>98.6</ele>
        <time>2015-06-13T15:14:54Z</time>
      </trkpt>
      <trkpt lat="49.41336" lon="1.4987">
        <ele>98.2</ele>
        <time>2015-06-13T15:14:59Z</time>
      </trkpt>
      <trkpt lat="49.4132" lon="1.4987">
        <ele>98.2</ele>
        <time>2015-06-13T15:15:04Z</time>
      </trkpt>
      <trkpt lat="49.41296" lon="1.49865">
        <ele>97.6</ele>
        <time>2015-06-13T15:15:11Z</time>
      </trkpt>
      <trkpt lat="49.41281" lon="1.49851">
        <ele>98</ele>
        <time>2015-06-13T15:15:16Z</time>
      </trkpt>
      <trkpt lat="49.4125" lon="1.49797">
        <ele>97.6</ele>
        <time>2015-06-13T15:15:27Z</time>
      </trkpt>
      <trkpt lat="49.41221" lon="1.49761">
        <ele>97.4</ele>
        <time>2015-06-13T15:15:34Z</time>
      </trkpt>
      <trkpt lat="49.41149" lon="1.49691">
        <ele>96.6</ele>
        <time>2015-06-13T15:15:48Z</time>
      </trkpt>
      <trkpt lat="49.41122" lon="1.49649">
        <ele>96.6</ele>
        <time>2015-06-13T15:15:54Z</time>
      </trkpt>
      <trkpt lat="49.41108" lon="1.49618">
        <ele>98.2</ele>
        <time>2015-06-13T15:15:58Z</time>
      </trkpt>
      <trkpt lat="49.41103" lon="1.49601">
        <ele>95.8</ele>
        <time>2015-06-13T15:16:00Z</time>
      </trkpt>
      <trkpt lat="49.41098" lon="1.49562">
        <ele>96.4</ele>
        <time>2015-06-13T15:16:04Z</time>
      </trkpt>
      <trkpt lat="49.41106" lon="1.49528">
        <ele>96.2</ele>
        <time>2015-06-13T15:16:08Z</time>
      </trkpt>
      <trkpt lat="49.41113" lon="1.49508">
        <ele>96.2</ele>
        <time>2015-06-13T15:16:11Z</time>
      </trkpt>
      <trkpt lat="49.41112" lon="1.49479">
        <ele>96.8</ele>
        <time>2015-06-13T15:16:16Z</time>
      </trkpt>
      <trkpt lat="49.4049" lon="1.48345">
        <ele>96</ele>
        <time>2015-06-13T15:18:56Z</time>
      </trkpt>
      <trkpt lat="49.40488" lon="1.48339">
        <ele>96.2</ele>
        <time>2015-06-13T15:18:57Z</time>
      </trkpt>
      <trkpt lat="49.40484" lon="1.48313">
        <ele>96.4</ele>
        <time>2015-06-13T15:19:01Z</time>
      </trkpt>
      <trkpt lat="49.40474" lon="1.48293">
        <ele>97</ele>
        <time>2015-06-13T15:19:04Z</time>
      </trkpt>
      <trkpt lat="49.40452" lon="1.48258">
        <ele>98.8</ele>
        <time>2015-06-13T15:19:10Z</time>
      </trkpt>
      <trkpt lat="49.40423" lon="1.48159">
        <ele>102.8</ele>
        <time>2015-06-13T15:19:23Z</time>
      </trkpt>
      <trkpt lat="49.40353" lon="1.47798">
        <ele>93.2</ele>
        <time>2015-06-13T15:19:56Z</time>
      </trkpt>
      <trkpt lat="49.40338" lon="1.47779">
        <ele>92.6</ele>
        <time>2015-06-13T15:19:59Z</time>
      </trkpt>
      <trkpt lat="49.40318" lon="1.47777">
        <ele>92.2</ele>
        <time>2015-06-13T15:20:02Z</time>
      </trkpt>
      <trkpt lat="49.40208" lon="1.47836">
        <ele>90.8</ele>
        <time>2015-06-13T15:20:21Z</time>
      </trkpt>
      <trkpt lat="49.40173" lon="1.47843">
        <ele>91.4</ele>
        <time>2015-06-13T15:20:27Z</time>
      </trkpt>
      <trkpt lat="49.40154" lon="1.4782">
        <ele>91.2</ele>
        <time>2015-06-13T15:20:31Z</time>
      </trkpt>
      <trkpt lat="49.40128" lon="1.47706">
        <ele>92</ele>
        <time>2015-06-13T15:20:45Z</time>
      </trkpt>
      <trkpt lat="49.40109" lon="1.4765">
        <ele>92.8</ele>
        <time>2015-06-13T15:20:53Z</time>
      </trkpt>
      <trkpt lat="49.40094" lon="1.47626">
        <ele>93.4</ele>
        <time>2015-06-13T15:20:57Z</time>
      </trkpt>
      <trkpt lat="49.40067" lon="1.476">
        <ele>94.4</ele>
        <time>2015-06-13T15:21:03Z</time>
      </trkpt>
      <trkpt lat="49.40048" lon="1.47611">
        <ele>95</ele>
        <time>2015-06-13T15:21:07Z</time>
      </trkpt>
      <trkpt lat="49.39947" lon="1.47751">
        <ele>102.4</ele>
        <time>2015-06-13T15:21:36Z</time>
      </trkpt>
      <trkpt lat="49.39934" lon="1.47767">
        <ele>103.6</ele>
        <time>2015-06-13T15:21:41Z</time>
      </trkpt>
      <trkpt lat="49.3993" lon="1.47777">
        <ele>104.4</ele>
        <time>2015-06-13T15:21:44Z</time>
      </trkpt>
      <trkpt lat="49.39929" lon="1.47781">
        <ele>104.6</ele>
        <time>2015-06-13T15:21:45Z</time>
      </trkpt>
      <trkpt lat="49.39941" lon="1.47798">
        <ele>104.2</ele>
        <time>2015-06-13T15:21:54Z</time>
      </trkpt>
      <trkpt lat="49.39942" lon="1.47806">
        <ele>104.2</ele>
        <time>2015-06-13T15:21:58Z</time>
      </trkpt>
      <trkpt lat="49.3995" lon="1.47819">
        <ele>104</ele>
        <time>2015-06-13T15:22:04Z</time>
      </trkpt>
      <trkpt lat="49.39952" lon="1.47834">
        <ele>103.6</ele>
        <time>2015-06-13T15:22:08Z</time>
      </trkpt>
      <trkpt lat="49.39942" lon="1.47846">
        <ele>103.8</ele>
        <time>2015-06-13T15:22:12Z</time>
      </trkpt>
      <trkpt lat="49.39917" lon="1.47863">
        <ele>106</ele>
        <time>2015-06-13T15:22:20Z</time>
      </trkpt>
      <trkpt lat="49.39913" lon="1.47874">
        <ele>106.8</ele>
        <time>2015-06-13T15:22:23Z</time>
      </trkpt>
      <trkpt lat="49.39918" lon="1.47883">
        <ele>107.2</ele>
        <time>2015-06-13T15:22:25Z</time>
      </trkpt>
      <trkpt lat="49.39934" lon="1.47898">
        <ele>108.6</ele>
        <time>2015-06-13T15:22:33Z</time>
      </trkpt>
      <trkpt lat="49.39934" lon="1.47898">
        <ele>108.8</ele>
        <time>2015-06-13T15:22:38Z</time>
      </trkpt>
    </trkseg>
  </trk>
</gpx>